<?xml version="1.0" encoding="UTF-8" standalone="no" ?>
<gpx xmlns="http://www.topografix.com/GPX/1/1" xmlns:xsi="http://www.w3.org/2001/XMLSchema-instance" xsi:schemaLocation="http://www.topografix.com/GPX/1/1 http://www.topografix.com/GPX/1/1/gpx.xsd" version="1.1" creator="VisuGPX - https://www.visugpx.com">
  <metadata>
    <name>De Joinville à La Varenne par les îles de la Marne</name>
    <desc><![CDATA[<p>Type: Indéfini<br/>Heure de départ: 10:56 24 nov. 2024<br/>Heure d'arrivée: 15:24 24 nov. 2024<br/>Distance: 11,5 km (04:28)<br/>Temps déplacement: 03:18<br/>Vitesse moyenne: 2,56 km/h<br/>Vitesse en mouvement: 3,47 km/h<br/>Vitesse Max.: 8,80 km/h<br/>Altitude minimale: 14 m<br/>Altitude maximale: 62 m<br/>Vitesse de montée: 198,2 m/h<br/>Vitesse de descente: 225,1 m/h<br/>Dénivelé positif: 336 m<br/>Dénivelé négatif: 358 m<br/>Temps de montée: 01:41<br/>Temps de descente: 01:35<br/></p><hr align="center" width="480" style="height: 2px; width: 517px"/>]]></desc>
  </metadata>
  <wpt lat="48.82019" lon="2.4644">
    <ele>62.96</ele>
    <type><![CDATA[Point de départ]]></type>
  </wpt>
  <wpt lat="48.7942" lon="2.51369">
    <ele>40.67</ele>
    <desc><![CDATA[<p><br /><h3>Nom: Segment: 1</h3><br />Type: Indéfini<br/>Heure de départ: 10:56 24 nov. 2024<br/>Heure d'arrivée: 15:24 24 nov. 2024<br/>Distance: 11,5km (04:28)<br/>Temps déplacement: 03:13<br/>Vitesse moyenne: 2,56 km/h<br/>Vitesse en mouvement: 3,57 km/h<br/>Vitesse Max.: 8,80 km/h<br/>Altitude minimale: 16 m<br/>Altitude maximale: 62 m<br/>Vitesse de montée: 157,9 m/h<br/>Vitesse de descente: 157,1 m/h<br/>Dénivelé positif: 241 m<br/>Dénivelé négatif: 263 m<br/>Temps de montée: 01:31<br/>Temps de descente: 01:40<br/></p>]]></desc>
    <type><![CDATA[Point d'arrivée]]></type>
  </wpt>
  <wpt lat="48.78849" lon="2.47312">
    <ele>32.8</ele>
    <type><![CDATA[picnic]]></type>
  </wpt>
  <trk>
    <name><![CDATA[2024-11-24 10:56:08]]></name>
    <desc><![CDATA[<p>Type: Indéfini<br/>Heure de départ: 10:56 24 nov. 2024<br/>Heure d'arrivée: 15:24 24 nov. 2024<br/>Distance: 11,5 km (04:28)<br/>Temps déplacement: 03:18<br/>Vitesse moyenne: 2,56 km/h<br/>Vitesse en mouvement: 3,47 km/h<br/>Vitesse Max.: 8,80 km/h<br/>Altitude minimale: 14 m<br/>Altitude maximale: 62 m<br/>Vitesse de montée: 198,2 m/h<br/>Vitesse de descente: 225,1 m/h<br/>Dénivelé positif: 336 m<br/>Dénivelé négatif: 358 m<br/>Temps de montée: 01:41<br/>Temps de descente: 01:35<br/></p><hr align="center" width="480" style="height: 2px; width: 517px"/>]]></desc>
    <extensions>
      <line xmlns="http://www.topografix.com/GPX/gpx_style/0/2">
        <color>0000FF</color>
        <width>4</width>
      </line>
    </extensions>
    <trkseg>
      <trkpt lat="48.82007" lon="2.46414">
        <ele>56.35</ele>
        <time>2024-11-24T09:56:59.000Z</time>
      </trkpt>
      <trkpt lat="48.82002" lon="2.46413">
        <ele>52.5</ele>
        <time>2024-11-24T09:57:06.000Z</time>
      </trkpt>
      <trkpt lat="48.81997" lon="2.46415">
        <ele>50.8</ele>
        <time>2024-11-24T09:57:10.000Z</time>
      </trkpt>
      <trkpt lat="48.81992" lon="2.46418">
        <ele>52.02</ele>
        <time>2024-11-24T09:57:18.000Z</time>
      </trkpt>
      <trkpt lat="48.81987" lon="2.46416">
        <ele>52.93</ele>
        <time>2024-11-24T09:57:25.000Z</time>
      </trkpt>
      <trkpt lat="48.81984" lon="2.4641">
        <ele>52.84</ele>
        <time>2024-11-24T09:57:30.000Z</time>
      </trkpt>
      <trkpt lat="48.81981" lon="2.46404">
        <ele>52.1</ele>
        <time>2024-11-24T09:57:35.000Z</time>
      </trkpt>
      <trkpt lat="48.81978" lon="2.46396">
        <ele>50.59</ele>
        <time>2024-11-24T09:57:40.000Z</time>
      </trkpt>
      <trkpt lat="48.81975" lon="2.4639">
        <ele>48.29</ele>
        <time>2024-11-24T09:57:46.000Z</time>
      </trkpt>
      <trkpt lat="48.81973" lon="2.46384">
        <ele>49.16</ele>
        <time>2024-11-24T09:57:53.000Z</time>
      </trkpt>
      <trkpt lat="48.81966" lon="2.46361">
        <ele>49.2</ele>
        <time>2024-11-24T09:58:00.000Z</time>
      </trkpt>
      <trkpt lat="48.81958" lon="2.46339">
        <ele>49.48</ele>
        <time>2024-11-24T09:58:19.000Z</time>
      </trkpt>
      <trkpt lat="48.81956" lon="2.46332">
        <ele>50.77</ele>
        <time>2024-11-24T09:58:22.000Z</time>
      </trkpt>
      <trkpt lat="48.81953" lon="2.46324">
        <ele>50.28</ele>
        <time>2024-11-24T09:58:28.000Z</time>
      </trkpt>
      <trkpt lat="48.8195" lon="2.46318">
        <ele>48.77</ele>
        <time>2024-11-24T09:58:32.000Z</time>
      </trkpt>
      <trkpt lat="48.81947" lon="2.46312">
        <ele>46.89</ele>
        <time>2024-11-24T09:58:36.000Z</time>
      </trkpt>
      <trkpt lat="48.81944" lon="2.46305">
        <ele>46.32</ele>
        <time>2024-11-24T09:58:42.000Z</time>
      </trkpt>
      <trkpt lat="48.81941" lon="2.46298">
        <ele>46.34</ele>
        <time>2024-11-24T09:58:48.000Z</time>
      </trkpt>
      <trkpt lat="48.81938" lon="2.46292">
        <ele>47.13</ele>
        <time>2024-11-24T09:58:52.000Z</time>
      </trkpt>
      <trkpt lat="48.81935" lon="2.46284">
        <ele>46.26</ele>
        <time>2024-11-24T09:58:56.000Z</time>
      </trkpt>
      <trkpt lat="48.81932" lon="2.46279">
        <ele>45.63</ele>
        <time>2024-11-24T09:59:01.000Z</time>
      </trkpt>
      <trkpt lat="48.81929" lon="2.46273">
        <ele>44.82</ele>
        <time>2024-11-24T09:59:05.000Z</time>
      </trkpt>
      <trkpt lat="48.81926" lon="2.46267">
        <ele>43.74</ele>
        <time>2024-11-24T09:59:09.000Z</time>
      </trkpt>
      <trkpt lat="48.81923" lon="2.4626">
        <ele>43.86</ele>
        <time>2024-11-24T09:59:14.000Z</time>
      </trkpt>
      <trkpt lat="48.8192" lon="2.46254">
        <ele>45.64</ele>
        <time>2024-11-24T09:59:20.000Z</time>
      </trkpt>
      <trkpt lat="48.81915" lon="2.46254">
        <ele>44.69</ele>
        <time>2024-11-24T09:59:28.000Z</time>
      </trkpt>
      <trkpt lat="48.81911" lon="2.46257">
        <ele>46.14</ele>
        <time>2024-11-24T09:59:38.000Z</time>
      </trkpt>
      <trkpt lat="48.81908" lon="2.46264">
        <ele>46.84</ele>
        <time>2024-11-24T09:59:55.000Z</time>
      </trkpt>
      <trkpt lat="48.81903" lon="2.46268">
        <ele>47.68</ele>
        <time>2024-11-24T09:59:58.000Z</time>
      </trkpt>
      <trkpt lat="48.81899" lon="2.46273">
        <ele>48.15</ele>
        <time>2024-11-24T10:00:02.000Z</time>
      </trkpt>
      <trkpt lat="48.81894" lon="2.46269">
        <ele>47.22</ele>
        <time>2024-11-24T10:00:21.000Z</time>
      </trkpt>
      <trkpt lat="48.81889" lon="2.46268">
        <ele>48.75</ele>
        <time>2024-11-24T10:00:30.000Z</time>
      </trkpt>
      <trkpt lat="48.81884" lon="2.46267">
        <ele>49.27</ele>
        <time>2024-11-24T10:00:36.000Z</time>
      </trkpt>
      <trkpt lat="48.81878" lon="2.46268">
        <ele>51</ele>
        <time>2024-11-24T10:00:44.000Z</time>
      </trkpt>
      <trkpt lat="48.81873" lon="2.46265">
        <ele>51.55</ele>
        <time>2024-11-24T10:00:48.000Z</time>
      </trkpt>
      <trkpt lat="48.81869" lon="2.46261">
        <ele>52.95</ele>
        <time>2024-11-24T10:00:53.000Z</time>
      </trkpt>
      <trkpt lat="48.81864" lon="2.46262">
        <ele>54.1</ele>
        <time>2024-11-24T10:00:59.000Z</time>
      </trkpt>
      <trkpt lat="48.81859" lon="2.4626">
        <ele>53.2</ele>
        <time>2024-11-24T10:01:06.000Z</time>
      </trkpt>
      <trkpt lat="48.81856" lon="2.46265">
        <ele>53.3</ele>
        <time>2024-11-24T10:01:09.000Z</time>
      </trkpt>
      <trkpt lat="48.81852" lon="2.46272">
        <ele>53.06</ele>
        <time>2024-11-24T10:01:13.000Z</time>
      </trkpt>
      <trkpt lat="48.81849" lon="2.46278">
        <ele>50.69</ele>
        <time>2024-11-24T10:01:20.000Z</time>
      </trkpt>
      <trkpt lat="48.81845" lon="2.46282">
        <ele>49.1</ele>
        <time>2024-11-24T10:01:24.000Z</time>
      </trkpt>
      <trkpt lat="48.81841" lon="2.46287">
        <ele>49.89</ele>
        <time>2024-11-24T10:01:29.000Z</time>
      </trkpt>
      <trkpt lat="48.81836" lon="2.46289">
        <ele>51.87</ele>
        <time>2024-11-24T10:02:17.000Z</time>
      </trkpt>
      <trkpt lat="48.81832" lon="2.46288">
        <ele>54.44</ele>
        <time>2024-11-24T10:02:24.000Z</time>
      </trkpt>
      <trkpt lat="48.81826" lon="2.46288">
        <ele>54.06</ele>
        <time>2024-11-24T10:02:28.000Z</time>
      </trkpt>
      <trkpt lat="48.81821" lon="2.46287">
        <ele>55.97</ele>
        <time>2024-11-24T10:02:31.000Z</time>
      </trkpt>
      <trkpt lat="48.81818" lon="2.46317">
        <ele>60.06</ele>
        <time>2024-11-24T10:02:59.000Z</time>
      </trkpt>
      <trkpt lat="48.81818" lon="2.46325">
        <ele>55.42</ele>
        <time>2024-11-24T10:03:08.000Z</time>
      </trkpt>
      <trkpt lat="48.81817" lon="2.46334">
        <ele>53.59</ele>
        <time>2024-11-24T10:03:13.000Z</time>
      </trkpt>
      <trkpt lat="48.81818" lon="2.46342">
        <ele>53.46</ele>
        <time>2024-11-24T10:03:17.000Z</time>
      </trkpt>
      <trkpt lat="48.81817" lon="2.46349">
        <ele>53.86</ele>
        <time>2024-11-24T10:03:22.000Z</time>
      </trkpt>
      <trkpt lat="48.81812" lon="2.46347">
        <ele>53.38</ele>
        <time>2024-11-24T10:03:26.000Z</time>
      </trkpt>
      <trkpt lat="48.81807" lon="2.46346">
        <ele>51.6</ele>
        <time>2024-11-24T10:03:31.000Z</time>
      </trkpt>
      <trkpt lat="48.81802" lon="2.46346">
        <ele>51.57</ele>
        <time>2024-11-24T10:03:35.000Z</time>
      </trkpt>
      <trkpt lat="48.81797" lon="2.46345">
        <ele>51.06</ele>
        <time>2024-11-24T10:03:39.000Z</time>
      </trkpt>
      <trkpt lat="48.81792" lon="2.46347">
        <ele>51</ele>
        <time>2024-11-24T10:03:44.000Z</time>
      </trkpt>
      <trkpt lat="48.81787" lon="2.46345">
        <ele>50.9</ele>
        <time>2024-11-24T10:03:52.000Z</time>
      </trkpt>
      <trkpt lat="48.81782" lon="2.46345">
        <ele>52.03</ele>
        <time>2024-11-24T10:04:00.000Z</time>
      </trkpt>
      <trkpt lat="48.81777" lon="2.46344">
        <ele>53.74</ele>
        <time>2024-11-24T10:04:06.000Z</time>
      </trkpt>
      <trkpt lat="48.81772" lon="2.46345">
        <ele>54.76</ele>
        <time>2024-11-24T10:04:10.000Z</time>
      </trkpt>
      <trkpt lat="48.81768" lon="2.46342">
        <ele>55.67</ele>
        <time>2024-11-24T10:04:15.000Z</time>
      </trkpt>
      <trkpt lat="48.81764" lon="2.46337">
        <ele>56.38</ele>
        <time>2024-11-24T10:04:20.000Z</time>
      </trkpt>
      <trkpt lat="48.8176" lon="2.46333">
        <ele>56.95</ele>
        <time>2024-11-24T10:04:23.000Z</time>
      </trkpt>
      <trkpt lat="48.81757" lon="2.46326">
        <ele>57.37</ele>
        <time>2024-11-24T10:04:27.000Z</time>
      </trkpt>
      <trkpt lat="48.81752" lon="2.46321">
        <ele>57.66</ele>
        <time>2024-11-24T10:04:30.000Z</time>
      </trkpt>
      <trkpt lat="48.81749" lon="2.46317">
        <ele>57.21</ele>
        <time>2024-11-24T10:04:35.000Z</time>
      </trkpt>
      <trkpt lat="48.81746" lon="2.46309">
        <ele>56.28</ele>
        <time>2024-11-24T10:04:40.000Z</time>
      </trkpt>
      <trkpt lat="48.81743" lon="2.46304">
        <ele>56.47</ele>
        <time>2024-11-24T10:04:44.000Z</time>
      </trkpt>
      <trkpt lat="48.81738" lon="2.46302">
        <ele>55.88</ele>
        <time>2024-11-24T10:04:49.000Z</time>
      </trkpt>
      <trkpt lat="48.81734" lon="2.46307">
        <ele>55.26</ele>
        <time>2024-11-24T10:04:56.000Z</time>
      </trkpt>
      <trkpt lat="48.81731" lon="2.46312">
        <ele>54.72</ele>
        <time>2024-11-24T10:05:00.000Z</time>
      </trkpt>
      <trkpt lat="48.81726" lon="2.46317">
        <ele>53.65</ele>
        <time>2024-11-24T10:05:04.000Z</time>
      </trkpt>
      <trkpt lat="48.81723" lon="2.46322">
        <ele>51.87</ele>
        <time>2024-11-24T10:05:09.000Z</time>
      </trkpt>
      <trkpt lat="48.81719" lon="2.46328">
        <ele>52.01</ele>
        <time>2024-11-24T10:05:14.000Z</time>
      </trkpt>
      <trkpt lat="48.81715" lon="2.46335">
        <ele>52.54</ele>
        <time>2024-11-24T10:05:17.000Z</time>
      </trkpt>
      <trkpt lat="48.81712" lon="2.46341">
        <ele>55.58</ele>
        <time>2024-11-24T10:05:23.000Z</time>
      </trkpt>
      <trkpt lat="48.81707" lon="2.46347">
        <ele>56.96</ele>
        <time>2024-11-24T10:05:28.000Z</time>
      </trkpt>
      <trkpt lat="48.81703" lon="2.46353">
        <ele>54.62</ele>
        <time>2024-11-24T10:05:34.000Z</time>
      </trkpt>
      <trkpt lat="48.81698" lon="2.46356">
        <ele>53.85</ele>
        <time>2024-11-24T10:05:39.000Z</time>
      </trkpt>
      <trkpt lat="48.81693" lon="2.46353">
        <ele>52.09</ele>
        <time>2024-11-24T10:05:50.000Z</time>
      </trkpt>
      <trkpt lat="48.8169" lon="2.46347">
        <ele>51.71</ele>
        <time>2024-11-24T10:05:53.000Z</time>
      </trkpt>
      <trkpt lat="48.81686" lon="2.46347">
        <ele>51.74</ele>
        <time>2024-11-24T10:05:57.000Z</time>
      </trkpt>
      <trkpt lat="48.81681" lon="2.46346">
        <ele>51.39</ele>
        <time>2024-11-24T10:06:02.000Z</time>
      </trkpt>
      <trkpt lat="48.81676" lon="2.46348">
        <ele>53.8</ele>
        <time>2024-11-24T10:06:05.000Z</time>
      </trkpt>
      <trkpt lat="48.81672" lon="2.46349">
        <ele>55.05</ele>
        <time>2024-11-24T10:06:08.000Z</time>
      </trkpt>
      <trkpt lat="48.81667" lon="2.46348">
        <ele>54.17</ele>
        <time>2024-11-24T10:06:14.000Z</time>
      </trkpt>
      <trkpt lat="48.81664" lon="2.46343">
        <ele>53.02</ele>
        <time>2024-11-24T10:06:18.000Z</time>
      </trkpt>
      <trkpt lat="48.8166" lon="2.46337">
        <ele>52.09</ele>
        <time>2024-11-24T10:06:23.000Z</time>
      </trkpt>
      <trkpt lat="48.81657" lon="2.46331">
        <ele>53.13</ele>
        <time>2024-11-24T10:06:28.000Z</time>
      </trkpt>
      <trkpt lat="48.81653" lon="2.46326">
        <ele>53.76</ele>
        <time>2024-11-24T10:06:31.000Z</time>
      </trkpt>
      <trkpt lat="48.81649" lon="2.4632">
        <ele>54.77</ele>
        <time>2024-11-24T10:06:34.000Z</time>
      </trkpt>
      <trkpt lat="48.81646" lon="2.46315">
        <ele>54.55</ele>
        <time>2024-11-24T10:06:38.000Z</time>
      </trkpt>
      <trkpt lat="48.81643" lon="2.46309">
        <ele>61</ele>
        <time>2024-11-24T10:06:43.000Z</time>
      </trkpt>
      <trkpt lat="48.81639" lon="2.46304">
        <ele>55.39</ele>
        <time>2024-11-24T10:06:47.000Z</time>
      </trkpt>
      <trkpt lat="48.81636" lon="2.46299">
        <ele>55.38</ele>
        <time>2024-11-24T10:06:51.000Z</time>
      </trkpt>
      <trkpt lat="48.81632" lon="2.46293">
        <ele>53.68</ele>
        <time>2024-11-24T10:06:57.000Z</time>
      </trkpt>
      <trkpt lat="48.81629" lon="2.46288">
        <ele>54.04</ele>
        <time>2024-11-24T10:07:01.000Z</time>
      </trkpt>
      <trkpt lat="48.81625" lon="2.46283">
        <ele>55.37</ele>
        <time>2024-11-24T10:07:08.000Z</time>
      </trkpt>
      <trkpt lat="48.81622" lon="2.46278">
        <ele>56.56</ele>
        <time>2024-11-24T10:07:12.000Z</time>
      </trkpt>
      <trkpt lat="48.81619" lon="2.46272">
        <ele>56.53</ele>
        <time>2024-11-24T10:07:22.000Z</time>
      </trkpt>
      <trkpt lat="48.81614" lon="2.46265">
        <ele>57.56</ele>
        <time>2024-11-24T10:07:28.000Z</time>
      </trkpt>
      <trkpt lat="48.81611" lon="2.4626">
        <ele>58.14</ele>
        <time>2024-11-24T10:07:32.000Z</time>
      </trkpt>
      <trkpt lat="48.81607" lon="2.46254">
        <ele>58.36</ele>
        <time>2024-11-24T10:07:35.000Z</time>
      </trkpt>
      <trkpt lat="48.81604" lon="2.46248">
        <ele>58.9</ele>
        <time>2024-11-24T10:07:41.000Z</time>
      </trkpt>
      <trkpt lat="48.816" lon="2.46243">
        <ele>59.6</ele>
        <time>2024-11-24T10:07:44.000Z</time>
      </trkpt>
      <trkpt lat="48.81596" lon="2.46236">
        <ele>60.15</ele>
        <time>2024-11-24T10:07:50.000Z</time>
      </trkpt>
      <trkpt lat="48.81593" lon="2.46231">
        <ele>60.73</ele>
        <time>2024-11-24T10:07:53.000Z</time>
      </trkpt>
      <trkpt lat="48.81589" lon="2.46234">
        <ele>60.3</ele>
        <time>2024-11-24T10:07:55.000Z</time>
      </trkpt>
      <trkpt lat="48.81585" lon="2.46238">
        <ele>59.58</ele>
        <time>2024-11-24T10:07:57.000Z</time>
      </trkpt>
      <trkpt lat="48.8158" lon="2.46242">
        <ele>56.35</ele>
        <time>2024-11-24T10:08:00.000Z</time>
      </trkpt>
      <trkpt lat="48.81576" lon="2.46246">
        <ele>52.88</ele>
        <time>2024-11-24T10:08:05.000Z</time>
      </trkpt>
      <trkpt lat="48.81572" lon="2.4625">
        <ele>52.74</ele>
        <time>2024-11-24T10:08:09.000Z</time>
      </trkpt>
      <trkpt lat="48.81568" lon="2.46255">
        <ele>52.64</ele>
        <time>2024-11-24T10:08:13.000Z</time>
      </trkpt>
      <trkpt lat="48.81565" lon="2.46261">
        <ele>51.14</ele>
        <time>2024-11-24T10:08:18.000Z</time>
      </trkpt>
      <trkpt lat="48.81561" lon="2.46265">
        <ele>51.88</ele>
        <time>2024-11-24T10:08:23.000Z</time>
      </trkpt>
      <trkpt lat="48.81557" lon="2.46271">
        <ele>53.05</ele>
        <time>2024-11-24T10:08:27.000Z</time>
      </trkpt>
      <trkpt lat="48.81554" lon="2.46277">
        <ele>53.15</ele>
        <time>2024-11-24T10:08:31.000Z</time>
      </trkpt>
      <trkpt lat="48.8155" lon="2.46282">
        <ele>54.44</ele>
        <time>2024-11-24T10:08:36.000Z</time>
      </trkpt>
      <trkpt lat="48.81546" lon="2.46287">
        <ele>56.3</ele>
        <time>2024-11-24T10:08:40.000Z</time>
      </trkpt>
      <trkpt lat="48.81543" lon="2.46292">
        <ele>54.57</ele>
        <time>2024-11-24T10:08:46.000Z</time>
      </trkpt>
      <trkpt lat="48.81539" lon="2.46298">
        <ele>54.77</ele>
        <time>2024-11-24T10:08:51.000Z</time>
      </trkpt>
      <trkpt lat="48.81535" lon="2.46302">
        <ele>55.41</ele>
        <time>2024-11-24T10:08:56.000Z</time>
      </trkpt>
      <trkpt lat="48.81532" lon="2.46307">
        <ele>54.57</ele>
        <time>2024-11-24T10:09:00.000Z</time>
      </trkpt>
      <trkpt lat="48.81527" lon="2.46308">
        <ele>52.79</ele>
        <time>2024-11-24T10:09:07.000Z</time>
      </trkpt>
      <trkpt lat="48.81525" lon="2.46301">
        <ele>51.92</ele>
        <time>2024-11-24T10:09:11.000Z</time>
      </trkpt>
      <trkpt lat="48.81527" lon="2.46294">
        <ele>50.64</ele>
        <time>2024-11-24T10:09:17.000Z</time>
      </trkpt>
      <trkpt lat="48.8153" lon="2.46287">
        <ele>50.37</ele>
        <time>2024-11-24T10:09:21.000Z</time>
      </trkpt>
      <trkpt lat="48.81532" lon="2.4628">
        <ele>50.55</ele>
        <time>2024-11-24T10:09:26.000Z</time>
      </trkpt>
      <trkpt lat="48.81535" lon="2.46274">
        <ele>51.58</ele>
        <time>2024-11-24T10:09:30.000Z</time>
      </trkpt>
      <trkpt lat="48.81538" lon="2.46269">
        <ele>52.09</ele>
        <time>2024-11-24T10:09:35.000Z</time>
      </trkpt>
      <trkpt lat="48.81538" lon="2.46263">
        <ele>51.2</ele>
      </trkpt>
      <trkpt lat="48.81532" lon="2.46266">
        <ele>58.23</ele>
        <time>2024-11-24T10:10:45.000Z</time>
      </trkpt>
      <trkpt lat="48.81528" lon="2.46268">
        <ele>56.5</ele>
        <time>2024-11-24T10:10:54.000Z</time>
      </trkpt>
      <trkpt lat="48.81524" lon="2.46276">
        <ele>54.75</ele>
        <time>2024-11-24T10:10:59.000Z</time>
      </trkpt>
      <trkpt lat="48.8152" lon="2.46282">
        <ele>53.88</ele>
        <time>2024-11-24T10:11:03.000Z</time>
      </trkpt>
      <trkpt lat="48.81516" lon="2.46286">
        <ele>49.74</ele>
        <time>2024-11-24T10:11:09.000Z</time>
      </trkpt>
      <trkpt lat="48.81512" lon="2.4629">
        <ele>48</ele>
        <time>2024-11-24T10:11:15.000Z</time>
      </trkpt>
      <trkpt lat="48.8151" lon="2.46296">
        <ele>45.13</ele>
        <time>2024-11-24T10:11:28.000Z</time>
      </trkpt>
      <trkpt lat="48.81506" lon="2.463">
        <ele>41.81</ele>
        <time>2024-11-24T10:12:32.000Z</time>
      </trkpt>
      <trkpt lat="48.81502" lon="2.46294">
        <ele>41.74</ele>
        <time>2024-11-24T10:12:38.000Z</time>
      </trkpt>
      <trkpt lat="48.81497" lon="2.46289">
        <ele>39.4</ele>
        <time>2024-11-24T10:12:42.000Z</time>
      </trkpt>
      <trkpt lat="48.81493" lon="2.46285">
        <ele>36.71</ele>
        <time>2024-11-24T10:12:47.000Z</time>
      </trkpt>
      <trkpt lat="48.81489" lon="2.46279">
        <ele>36.6</ele>
        <time>2024-11-24T10:12:52.000Z</time>
      </trkpt>
      <trkpt lat="48.81486" lon="2.46273">
        <ele>37.69</ele>
        <time>2024-11-24T10:12:55.000Z</time>
      </trkpt>
      <trkpt lat="48.81482" lon="2.46269">
        <ele>39</ele>
        <time>2024-11-24T10:13:03.000Z</time>
      </trkpt>
      <trkpt lat="48.81478" lon="2.46264">
        <ele>38.34</ele>
        <time>2024-11-24T10:13:07.000Z</time>
      </trkpt>
      <trkpt lat="48.81474" lon="2.46261">
        <ele>37.55</ele>
        <time>2024-11-24T10:13:11.000Z</time>
      </trkpt>
      <trkpt lat="48.8147" lon="2.46257">
        <ele>38.4</ele>
        <time>2024-11-24T10:13:16.000Z</time>
      </trkpt>
      <trkpt lat="48.81465" lon="2.46253">
        <ele>36.89</ele>
        <time>2024-11-24T10:13:21.000Z</time>
      </trkpt>
      <trkpt lat="48.81459" lon="2.46249">
        <ele>36.93</ele>
        <time>2024-11-24T10:13:25.000Z</time>
      </trkpt>
      <trkpt lat="48.81456" lon="2.46245">
        <ele>42.3</ele>
        <time>2024-11-24T10:13:31.000Z</time>
      </trkpt>
      <trkpt lat="48.81454" lon="2.46239">
        <ele>35.58</ele>
        <time>2024-11-24T10:13:33.000Z</time>
      </trkpt>
      <trkpt lat="48.81451" lon="2.46233">
        <ele>37.24</ele>
        <time>2024-11-24T10:13:36.000Z</time>
      </trkpt>
      <trkpt lat="48.81446" lon="2.46235">
        <ele>38.91</ele>
        <time>2024-11-24T10:13:41.000Z</time>
      </trkpt>
      <trkpt lat="48.81442" lon="2.46232">
        <ele>38.89</ele>
        <time>2024-11-24T10:13:47.000Z</time>
      </trkpt>
      <trkpt lat="48.8144" lon="2.46224">
        <ele>38.54</ele>
        <time>2024-11-24T10:13:53.000Z</time>
      </trkpt>
      <trkpt lat="48.81436" lon="2.46231">
        <ele>37.62</ele>
        <time>2024-11-24T10:16:07.000Z</time>
      </trkpt>
      <trkpt lat="48.81431" lon="2.46232">
        <ele>37.78</ele>
        <time>2024-11-24T10:16:26.000Z</time>
      </trkpt>
      <trkpt lat="48.81426" lon="2.4623">
        <ele>37.96</ele>
        <time>2024-11-24T10:16:40.000Z</time>
      </trkpt>
      <trkpt lat="48.81422" lon="2.46229">
        <ele>37.93</ele>
        <time>2024-11-24T10:16:48.000Z</time>
      </trkpt>
      <trkpt lat="48.81425" lon="2.46224">
        <ele>36.55</ele>
        <time>2024-11-24T10:16:59.000Z</time>
      </trkpt>
      <trkpt lat="48.81427" lon="2.46217">
        <ele>35.45</ele>
        <time>2024-11-24T10:17:08.000Z</time>
      </trkpt>
      <trkpt lat="48.81427" lon="2.46207">
        <ele>36.06</ele>
        <time>2024-11-24T10:17:16.000Z</time>
      </trkpt>
      <trkpt lat="48.81422" lon="2.46206">
        <ele>34.88</ele>
        <time>2024-11-24T10:17:21.000Z</time>
      </trkpt>
      <trkpt lat="48.81417" lon="2.46208">
        <ele>32.97</ele>
        <time>2024-11-24T10:17:29.000Z</time>
      </trkpt>
      <trkpt lat="48.81413" lon="2.46211">
        <ele>33.55</ele>
        <time>2024-11-24T10:17:35.000Z</time>
      </trkpt>
      <trkpt lat="48.81408" lon="2.46209">
        <ele>31.59</ele>
        <time>2024-11-24T10:17:54.000Z</time>
      </trkpt>
      <trkpt lat="48.81404" lon="2.46204">
        <ele>30.99</ele>
        <time>2024-11-24T10:18:00.000Z</time>
      </trkpt>
      <trkpt lat="48.81401" lon="2.46198">
        <ele>30.7</ele>
        <time>2024-11-24T10:18:06.000Z</time>
      </trkpt>
      <trkpt lat="48.81398" lon="2.46192">
        <ele>30.41</ele>
        <time>2024-11-24T10:18:11.000Z</time>
      </trkpt>
      <trkpt lat="48.81394" lon="2.46187">
        <ele>29.87</ele>
        <time>2024-11-24T10:18:16.000Z</time>
      </trkpt>
      <trkpt lat="48.8139" lon="2.46181">
        <ele>28.79</ele>
        <time>2024-11-24T10:18:20.000Z</time>
      </trkpt>
      <trkpt lat="48.81387" lon="2.46175">
        <ele>27.29</ele>
        <time>2024-11-24T10:18:25.000Z</time>
      </trkpt>
      <trkpt lat="48.81384" lon="2.4617">
        <ele>26.92</ele>
        <time>2024-11-24T10:18:30.000Z</time>
      </trkpt>
      <trkpt lat="48.8138" lon="2.46164">
        <ele>26.37</ele>
        <time>2024-11-24T10:18:34.000Z</time>
      </trkpt>
      <trkpt lat="48.81377" lon="2.46159">
        <ele>26.88</ele>
        <time>2024-11-24T10:18:39.000Z</time>
      </trkpt>
      <trkpt lat="48.81374" lon="2.46154">
        <ele>28.38</ele>
        <time>2024-11-24T10:18:45.000Z</time>
      </trkpt>
      <trkpt lat="48.8137" lon="2.46148">
        <ele>30.38</ele>
        <time>2024-11-24T10:18:50.000Z</time>
      </trkpt>
      <trkpt lat="48.81367" lon="2.46142">
        <ele>31.89</ele>
        <time>2024-11-24T10:18:55.000Z</time>
      </trkpt>
      <trkpt lat="48.81364" lon="2.46137">
        <ele>32.25</ele>
        <time>2024-11-24T10:18:58.000Z</time>
      </trkpt>
      <trkpt lat="48.8136" lon="2.46132">
        <ele>31.87</ele>
        <time>2024-11-24T10:19:02.000Z</time>
      </trkpt>
      <trkpt lat="48.81357" lon="2.46127">
        <ele>31.59</ele>
        <time>2024-11-24T10:19:06.000Z</time>
      </trkpt>
      <trkpt lat="48.81353" lon="2.4612">
        <ele>31.69</ele>
        <time>2024-11-24T10:19:11.000Z</time>
      </trkpt>
      <trkpt lat="48.8135" lon="2.46114">
        <ele>33.28</ele>
        <time>2024-11-24T10:19:15.000Z</time>
      </trkpt>
      <trkpt lat="48.81346" lon="2.46108">
        <ele>35.17</ele>
        <time>2024-11-24T10:19:19.000Z</time>
      </trkpt>
      <trkpt lat="48.81342" lon="2.46103">
        <ele>35.6</ele>
        <time>2024-11-24T10:19:22.000Z</time>
      </trkpt>
      <trkpt lat="48.81339" lon="2.46096">
        <ele>34.08</ele>
        <time>2024-11-24T10:19:27.000Z</time>
      </trkpt>
      <trkpt lat="48.81335" lon="2.4609">
        <ele>31.92</ele>
        <time>2024-11-24T10:19:33.000Z</time>
      </trkpt>
      <trkpt lat="48.81332" lon="2.46083">
        <ele>31.5</ele>
        <time>2024-11-24T10:19:38.000Z</time>
      </trkpt>
      <trkpt lat="48.81328" lon="2.46077">
        <ele>32.24</ele>
        <time>2024-11-24T10:19:43.000Z</time>
      </trkpt>
      <trkpt lat="48.81325" lon="2.46072">
        <ele>32.04</ele>
        <time>2024-11-24T10:19:48.000Z</time>
      </trkpt>
      <trkpt lat="48.81322" lon="2.46066">
        <ele>31.89</ele>
        <time>2024-11-24T10:19:52.000Z</time>
      </trkpt>
      <trkpt lat="48.81318" lon="2.46061">
        <ele>30.88</ele>
        <time>2024-11-24T10:19:57.000Z</time>
      </trkpt>
      <trkpt lat="48.81315" lon="2.46055">
        <ele>31.04</ele>
        <time>2024-11-24T10:20:02.000Z</time>
      </trkpt>
      <trkpt lat="48.81312" lon="2.4605">
        <ele>31.06</ele>
        <time>2024-11-24T10:20:07.000Z</time>
      </trkpt>
      <trkpt lat="48.81309" lon="2.46044">
        <ele>31.06</ele>
        <time>2024-11-24T10:20:10.000Z</time>
      </trkpt>
      <trkpt lat="48.81305" lon="2.46038">
        <ele>30.61</ele>
        <time>2024-11-24T10:20:14.000Z</time>
      </trkpt>
      <trkpt lat="48.81302" lon="2.46032">
        <ele>30.42</ele>
        <time>2024-11-24T10:20:18.000Z</time>
      </trkpt>
      <trkpt lat="48.81298" lon="2.46027">
        <ele>31.17</ele>
        <time>2024-11-24T10:20:22.000Z</time>
      </trkpt>
      <trkpt lat="48.81295" lon="2.46021">
        <ele>30.42</ele>
        <time>2024-11-24T10:20:26.000Z</time>
      </trkpt>
      <trkpt lat="48.81291" lon="2.46015">
        <ele>29.65</ele>
        <time>2024-11-24T10:20:30.000Z</time>
      </trkpt>
      <trkpt lat="48.81288" lon="2.46009">
        <ele>28.69</ele>
        <time>2024-11-24T10:20:36.000Z</time>
      </trkpt>
      <trkpt lat="48.81284" lon="2.46003">
        <ele>28</ele>
        <time>2024-11-24T10:20:42.000Z</time>
      </trkpt>
      <trkpt lat="48.81281" lon="2.45997">
        <ele>28.9</ele>
        <time>2024-11-24T10:20:47.000Z</time>
      </trkpt>
      <trkpt lat="48.81277" lon="2.45991">
        <ele>28.46</ele>
        <time>2024-11-24T10:20:51.000Z</time>
      </trkpt>
      <trkpt lat="48.81274" lon="2.45986">
        <ele>28.44</ele>
        <time>2024-11-24T10:20:55.000Z</time>
      </trkpt>
      <trkpt lat="48.81271" lon="2.4598">
        <ele>28.32</ele>
        <time>2024-11-24T10:20:59.000Z</time>
      </trkpt>
      <trkpt lat="48.81267" lon="2.45974">
        <ele>27.82</ele>
        <time>2024-11-24T10:21:04.000Z</time>
      </trkpt>
      <trkpt lat="48.81263" lon="2.45968">
        <ele>27.7</ele>
        <time>2024-11-24T10:21:10.000Z</time>
      </trkpt>
      <trkpt lat="48.8126" lon="2.45963">
        <ele>27.02</ele>
        <time>2024-11-24T10:21:14.000Z</time>
      </trkpt>
      <trkpt lat="48.81254" lon="2.45958">
        <ele>26.53</ele>
        <time>2024-11-24T10:21:34.000Z</time>
      </trkpt>
      <trkpt lat="48.81251" lon="2.45952">
        <ele>26.2</ele>
        <time>2024-11-24T10:21:39.000Z</time>
      </trkpt>
      <trkpt lat="48.81247" lon="2.45945">
        <ele>25.66</ele>
        <time>2024-11-24T10:21:43.000Z</time>
      </trkpt>
      <trkpt lat="48.81244" lon="2.45938">
        <ele>25.58</ele>
        <time>2024-11-24T10:21:48.000Z</time>
      </trkpt>
      <trkpt lat="48.8124" lon="2.45933">
        <ele>26.15</ele>
        <time>2024-11-24T10:21:52.000Z</time>
      </trkpt>
      <trkpt lat="48.81237" lon="2.45928">
        <ele>26.12</ele>
        <time>2024-11-24T10:21:56.000Z</time>
      </trkpt>
      <trkpt lat="48.81231" lon="2.45925">
        <ele>25.73</ele>
        <time>2024-11-24T10:22:10.000Z</time>
      </trkpt>
      <trkpt lat="48.81227" lon="2.4592">
        <ele>26.2</ele>
        <time>2024-11-24T10:22:16.000Z</time>
      </trkpt>
      <trkpt lat="48.81224" lon="2.45914">
        <ele>26.12</ele>
        <time>2024-11-24T10:22:20.000Z</time>
      </trkpt>
      <trkpt lat="48.8122" lon="2.45909">
        <ele>25.71</ele>
        <time>2024-11-24T10:22:24.000Z</time>
      </trkpt>
      <trkpt lat="48.81217" lon="2.45903">
        <ele>25.54</ele>
        <time>2024-11-24T10:22:29.000Z</time>
      </trkpt>
      <trkpt lat="48.81216" lon="2.45895">
        <ele>25.2</ele>
        <time>2024-11-24T10:22:35.000Z</time>
      </trkpt>
      <trkpt lat="48.81212" lon="2.45889">
        <ele>24.82</ele>
        <time>2024-11-24T10:22:41.000Z</time>
      </trkpt>
      <trkpt lat="48.81209" lon="2.45883">
        <ele>25.12</ele>
        <time>2024-11-24T10:22:46.000Z</time>
      </trkpt>
      <trkpt lat="48.81207" lon="2.45876">
        <ele>27.17</ele>
        <time>2024-11-24T10:22:52.000Z</time>
      </trkpt>
      <trkpt lat="48.81206" lon="2.4587">
        <ele>28.81</ele>
        <time>2024-11-24T10:22:56.000Z</time>
      </trkpt>
      <trkpt lat="48.81201" lon="2.45864">
        <ele>29.73</ele>
        <time>2024-11-24T10:23:01.000Z</time>
      </trkpt>
      <trkpt lat="48.81198" lon="2.45859">
        <ele>30.58</ele>
        <time>2024-11-24T10:23:05.000Z</time>
      </trkpt>
      <trkpt lat="48.81194" lon="2.45854">
        <ele>30.45</ele>
        <time>2024-11-24T10:23:09.000Z</time>
      </trkpt>
      <trkpt lat="48.81191" lon="2.45849">
        <ele>29.74</ele>
        <time>2024-11-24T10:23:13.000Z</time>
      </trkpt>
      <trkpt lat="48.81188" lon="2.45842">
        <ele>29.48</ele>
        <time>2024-11-24T10:23:17.000Z</time>
      </trkpt>
      <trkpt lat="48.81184" lon="2.45836">
        <ele>28.49</ele>
        <time>2024-11-24T10:23:21.000Z</time>
      </trkpt>
      <trkpt lat="48.81181" lon="2.4583">
        <ele>29.21</ele>
        <time>2024-11-24T10:23:26.000Z</time>
      </trkpt>
      <trkpt lat="48.81177" lon="2.45824">
        <ele>30.04</ele>
        <time>2024-11-24T10:23:31.000Z</time>
      </trkpt>
      <trkpt lat="48.81173" lon="2.4582">
        <ele>31.1</ele>
        <time>2024-11-24T10:23:37.000Z</time>
      </trkpt>
      <trkpt lat="48.81165" lon="2.45815">
        <ele>29.48</ele>
        <time>2024-11-24T10:24:37.000Z</time>
      </trkpt>
      <trkpt lat="48.81162" lon="2.45808">
        <ele>29.44</ele>
        <time>2024-11-24T10:24:48.000Z</time>
      </trkpt>
      <trkpt lat="48.81159" lon="2.45803">
        <ele>29.08</ele>
        <time>2024-11-24T10:24:57.000Z</time>
      </trkpt>
      <trkpt lat="48.81156" lon="2.45797">
        <ele>27.11</ele>
        <time>2024-11-24T10:25:03.000Z</time>
      </trkpt>
      <trkpt lat="48.81154" lon="2.4579">
        <ele>25.21</ele>
        <time>2024-11-24T10:25:09.000Z</time>
      </trkpt>
      <trkpt lat="48.8115" lon="2.45784">
        <ele>24.56</ele>
        <time>2024-11-24T10:25:18.000Z</time>
      </trkpt>
      <trkpt lat="48.81147" lon="2.45778">
        <ele>25.43</ele>
        <time>2024-11-24T10:25:25.000Z</time>
      </trkpt>
      <trkpt lat="48.81145" lon="2.45772">
        <ele>23.8</ele>
        <time>2024-11-24T10:25:33.000Z</time>
      </trkpt>
      <trkpt lat="48.81143" lon="2.45766">
        <ele>23.65</ele>
        <time>2024-11-24T10:25:38.000Z</time>
      </trkpt>
      <trkpt lat="48.81139" lon="2.45761">
        <ele>22.95</ele>
        <time>2024-11-24T10:25:42.000Z</time>
      </trkpt>
      <trkpt lat="48.81135" lon="2.45761">
        <ele>21.76</ele>
        <time>2024-11-24T10:25:47.000Z</time>
      </trkpt>
      <trkpt lat="48.8113" lon="2.45762">
        <ele>22.95</ele>
        <time>2024-11-24T10:26:04.000Z</time>
      </trkpt>
      <trkpt lat="48.81125" lon="2.45762">
        <ele>24.61</ele>
        <time>2024-11-24T10:26:12.000Z</time>
      </trkpt>
      <trkpt lat="48.81122" lon="2.45768">
        <ele>23.63</ele>
        <time>2024-11-24T10:26:20.000Z</time>
      </trkpt>
      <trkpt lat="48.8112" lon="2.45774">
        <ele>22.53</ele>
        <time>2024-11-24T10:26:25.000Z</time>
      </trkpt>
      <trkpt lat="48.81117" lon="2.4578">
        <ele>22.22</ele>
        <time>2024-11-24T10:26:31.000Z</time>
      </trkpt>
      <trkpt lat="48.81113" lon="2.45784">
        <ele>21.81</ele>
        <time>2024-11-24T10:26:36.000Z</time>
      </trkpt>
      <trkpt lat="48.81109" lon="2.45789">
        <ele>21.62</ele>
        <time>2024-11-24T10:26:40.000Z</time>
      </trkpt>
      <trkpt lat="48.81105" lon="2.45794">
        <ele>22.03</ele>
        <time>2024-11-24T10:26:44.000Z</time>
      </trkpt>
      <trkpt lat="48.81102" lon="2.458">
        <ele>22.55</ele>
        <time>2024-11-24T10:26:49.000Z</time>
      </trkpt>
      <trkpt lat="48.81098" lon="2.45804">
        <ele>22.78</ele>
        <time>2024-11-24T10:26:53.000Z</time>
      </trkpt>
      <trkpt lat="48.81094" lon="2.4581">
        <ele>22.63</ele>
        <time>2024-11-24T10:26:58.000Z</time>
      </trkpt>
      <trkpt lat="48.81091" lon="2.45814">
        <ele>22.18</ele>
        <time>2024-11-24T10:27:02.000Z</time>
      </trkpt>
      <trkpt lat="48.81087" lon="2.45819">
        <ele>22.54</ele>
        <time>2024-11-24T10:27:06.000Z</time>
      </trkpt>
      <trkpt lat="48.81083" lon="2.45823">
        <ele>22.79</ele>
        <time>2024-11-24T10:27:10.000Z</time>
      </trkpt>
      <trkpt lat="48.8108" lon="2.45827">
        <ele>23.53</ele>
        <time>2024-11-24T10:27:15.000Z</time>
      </trkpt>
      <trkpt lat="48.81076" lon="2.45832">
        <ele>24.12</ele>
        <time>2024-11-24T10:27:20.000Z</time>
      </trkpt>
      <trkpt lat="48.81072" lon="2.45837">
        <ele>24.46</ele>
        <time>2024-11-24T10:27:24.000Z</time>
      </trkpt>
      <trkpt lat="48.81068" lon="2.45841">
        <ele>25.07</ele>
        <time>2024-11-24T10:27:28.000Z</time>
      </trkpt>
      <trkpt lat="48.81065" lon="2.45848">
        <ele>25.61</ele>
        <time>2024-11-24T10:27:34.000Z</time>
      </trkpt>
      <trkpt lat="48.81062" lon="2.45853">
        <ele>26.51</ele>
        <time>2024-11-24T10:27:40.000Z</time>
      </trkpt>
      <trkpt lat="48.81057" lon="2.45857">
        <ele>29.79</ele>
        <time>2024-11-24T10:27:46.000Z</time>
      </trkpt>
      <trkpt lat="48.81053" lon="2.45862">
        <ele>30.47</ele>
        <time>2024-11-24T10:27:50.000Z</time>
      </trkpt>
      <trkpt lat="48.8105" lon="2.45868">
        <ele>30.38</ele>
        <time>2024-11-24T10:27:55.000Z</time>
      </trkpt>
      <trkpt lat="48.81047" lon="2.45875">
        <ele>30.29</ele>
        <time>2024-11-24T10:28:00.000Z</time>
      </trkpt>
      <trkpt lat="48.81045" lon="2.45882">
        <ele>29.67</ele>
        <time>2024-11-24T10:28:05.000Z</time>
      </trkpt>
      <trkpt lat="48.81041" lon="2.45889">
        <ele>29.64</ele>
        <time>2024-11-24T10:28:10.000Z</time>
      </trkpt>
      <trkpt lat="48.81039" lon="2.45896">
        <ele>28.84</ele>
        <time>2024-11-24T10:28:15.000Z</time>
      </trkpt>
      <trkpt lat="48.81036" lon="2.45904">
        <ele>27.22</ele>
        <time>2024-11-24T10:28:20.000Z</time>
      </trkpt>
      <trkpt lat="48.81033" lon="2.4591">
        <ele>27.26</ele>
        <time>2024-11-24T10:28:25.000Z</time>
      </trkpt>
      <trkpt lat="48.81032" lon="2.45917">
        <ele>26.73</ele>
        <time>2024-11-24T10:28:29.000Z</time>
      </trkpt>
      <trkpt lat="48.81029" lon="2.45924">
        <ele>26.57</ele>
        <time>2024-11-24T10:28:34.000Z</time>
      </trkpt>
      <trkpt lat="48.81027" lon="2.4593">
        <ele>27.26</ele>
        <time>2024-11-24T10:28:38.000Z</time>
      </trkpt>
      <trkpt lat="48.81024" lon="2.45937">
        <ele>26.36</ele>
        <time>2024-11-24T10:28:43.000Z</time>
      </trkpt>
      <trkpt lat="48.81021" lon="2.45944">
        <ele>25.75</ele>
        <time>2024-11-24T10:28:48.000Z</time>
      </trkpt>
      <trkpt lat="48.81018" lon="2.4595">
        <ele>24.42</ele>
        <time>2024-11-24T10:28:52.000Z</time>
      </trkpt>
      <trkpt lat="48.81015" lon="2.45957">
        <ele>24.33</ele>
        <time>2024-11-24T10:28:56.000Z</time>
      </trkpt>
      <trkpt lat="48.81012" lon="2.45962">
        <ele>25.35</ele>
        <time>2024-11-24T10:29:00.000Z</time>
      </trkpt>
      <trkpt lat="48.8101" lon="2.45968">
        <ele>27.39</ele>
        <time>2024-11-24T10:29:04.000Z</time>
      </trkpt>
      <trkpt lat="48.81007" lon="2.45975">
        <ele>28.29</ele>
        <time>2024-11-24T10:29:09.000Z</time>
      </trkpt>
      <trkpt lat="48.81004" lon="2.45982">
        <ele>28.36</ele>
        <time>2024-11-24T10:29:14.000Z</time>
      </trkpt>
      <trkpt lat="48.81003" lon="2.4599">
        <ele>29.01</ele>
        <time>2024-11-24T10:29:19.000Z</time>
      </trkpt>
      <trkpt lat="48.81" lon="2.45996">
        <ele>29.28</ele>
        <time>2024-11-24T10:29:24.000Z</time>
      </trkpt>
      <trkpt lat="48.80997" lon="2.46003">
        <ele>29.25</ele>
        <time>2024-11-24T10:29:29.000Z</time>
      </trkpt>
      <trkpt lat="48.80994" lon="2.46009">
        <ele>29.1</ele>
        <time>2024-11-24T10:29:34.000Z</time>
      </trkpt>
      <trkpt lat="48.80991" lon="2.46016">
        <ele>29.69</ele>
        <time>2024-11-24T10:29:39.000Z</time>
      </trkpt>
      <trkpt lat="48.80988" lon="2.46022">
        <ele>28.22</ele>
        <time>2024-11-24T10:29:43.000Z</time>
      </trkpt>
      <trkpt lat="48.80984" lon="2.46028">
        <ele>28.4</ele>
        <time>2024-11-24T10:29:48.000Z</time>
      </trkpt>
      <trkpt lat="48.8098" lon="2.46033">
        <ele>25.57</ele>
        <time>2024-11-24T10:29:53.000Z</time>
      </trkpt>
      <trkpt lat="48.80977" lon="2.46039">
        <ele>23.53</ele>
        <time>2024-11-24T10:29:58.000Z</time>
      </trkpt>
      <trkpt lat="48.80973" lon="2.46044">
        <ele>25.93</ele>
        <time>2024-11-24T10:30:03.000Z</time>
      </trkpt>
      <trkpt lat="48.80969" lon="2.46049">
        <ele>27.36</ele>
        <time>2024-11-24T10:30:07.000Z</time>
      </trkpt>
      <trkpt lat="48.80965" lon="2.46051">
        <ele>27.59</ele>
        <time>2024-11-24T10:30:16.000Z</time>
      </trkpt>
      <trkpt lat="48.80963" lon="2.46058">
        <ele>27.93</ele>
        <time>2024-11-24T10:30:23.000Z</time>
      </trkpt>
      <trkpt lat="48.80961" lon="2.46065">
        <ele>27.67</ele>
        <time>2024-11-24T10:30:30.000Z</time>
      </trkpt>
      <trkpt lat="48.80957" lon="2.46071">
        <ele>30.39</ele>
        <time>2024-11-24T10:30:35.000Z</time>
      </trkpt>
      <trkpt lat="48.80954" lon="2.46077">
        <ele>31.21</ele>
        <time>2024-11-24T10:30:38.000Z</time>
      </trkpt>
      <trkpt lat="48.80954" lon="2.46084">
        <ele>30.28</ele>
        <time>2024-11-24T10:30:41.000Z</time>
      </trkpt>
      <trkpt lat="48.80954" lon="2.46091">
        <ele>28.01</ele>
        <time>2024-11-24T10:30:49.000Z</time>
      </trkpt>
      <trkpt lat="48.80954" lon="2.461">
        <ele>28.09</ele>
        <time>2024-11-24T10:30:56.000Z</time>
      </trkpt>
      <trkpt lat="48.80952" lon="2.46107">
        <ele>28.05</ele>
        <time>2024-11-24T10:30:58.000Z</time>
      </trkpt>
      <trkpt lat="48.80949" lon="2.46114">
        <ele>25.87</ele>
        <time>2024-11-24T10:31:01.000Z</time>
      </trkpt>
      <trkpt lat="48.80946" lon="2.4612">
        <ele>24.37</ele>
        <time>2024-11-24T10:31:06.000Z</time>
      </trkpt>
      <trkpt lat="48.80943" lon="2.46126">
        <ele>23.48</ele>
        <time>2024-11-24T10:31:11.000Z</time>
      </trkpt>
      <trkpt lat="48.8094" lon="2.46132">
        <ele>23.08</ele>
        <time>2024-11-24T10:31:15.000Z</time>
      </trkpt>
      <trkpt lat="48.80937" lon="2.46139">
        <ele>23.38</ele>
        <time>2024-11-24T10:31:19.000Z</time>
      </trkpt>
      <trkpt lat="48.80934" lon="2.46145">
        <ele>22.97</ele>
        <time>2024-11-24T10:31:23.000Z</time>
      </trkpt>
      <trkpt lat="48.80932" lon="2.4615">
        <ele>22.88</ele>
        <time>2024-11-24T10:31:27.000Z</time>
      </trkpt>
      <trkpt lat="48.80929" lon="2.46156">
        <ele>23.21</ele>
        <time>2024-11-24T10:31:31.000Z</time>
      </trkpt>
      <trkpt lat="48.80926" lon="2.46162">
        <ele>22.77</ele>
        <time>2024-11-24T10:31:36.000Z</time>
      </trkpt>
      <trkpt lat="48.80923" lon="2.46168">
        <ele>22.21</ele>
        <time>2024-11-24T10:31:41.000Z</time>
      </trkpt>
      <trkpt lat="48.8092" lon="2.46174">
        <ele>22.03</ele>
        <time>2024-11-24T10:31:45.000Z</time>
      </trkpt>
      <trkpt lat="48.80918" lon="2.4618">
        <ele>21.83</ele>
        <time>2024-11-24T10:31:49.000Z</time>
      </trkpt>
      <trkpt lat="48.80915" lon="2.46186">
        <ele>22.84</ele>
        <time>2024-11-24T10:31:55.000Z</time>
      </trkpt>
      <trkpt lat="48.80911" lon="2.46193">
        <ele>23.42</ele>
        <time>2024-11-24T10:32:02.000Z</time>
      </trkpt>
      <trkpt lat="48.80908" lon="2.46199">
        <ele>23.87</ele>
        <time>2024-11-24T10:32:08.000Z</time>
      </trkpt>
      <trkpt lat="48.80906" lon="2.46205">
        <ele>23.69</ele>
        <time>2024-11-24T10:32:12.000Z</time>
      </trkpt>
      <trkpt lat="48.80904" lon="2.46212">
        <ele>23.49</ele>
        <time>2024-11-24T10:32:23.000Z</time>
      </trkpt>
      <trkpt lat="48.80902" lon="2.46218">
        <ele>26.52</ele>
        <time>2024-11-24T10:32:35.000Z</time>
      </trkpt>
      <trkpt lat="48.80899" lon="2.46223">
        <ele>27.63</ele>
        <time>2024-11-24T10:32:41.000Z</time>
      </trkpt>
      <trkpt lat="48.80896" lon="2.46227">
        <ele>22.44</ele>
        <time>2024-11-24T10:33:08.000Z</time>
      </trkpt>
      <trkpt lat="48.80891" lon="2.46231">
        <ele>22.78</ele>
        <time>2024-11-24T10:33:31.000Z</time>
      </trkpt>
      <trkpt lat="48.80887" lon="2.46237">
        <ele>24.42</ele>
        <time>2024-11-24T10:33:37.000Z</time>
      </trkpt>
      <trkpt lat="48.80885" lon="2.46243">
        <ele>26.32</ele>
        <time>2024-11-24T10:33:43.000Z</time>
      </trkpt>
      <trkpt lat="48.80882" lon="2.46248">
        <ele>26.43</ele>
        <time>2024-11-24T10:33:49.000Z</time>
      </trkpt>
      <trkpt lat="48.80878" lon="2.46254">
        <ele>27.31</ele>
        <time>2024-11-24T10:33:54.000Z</time>
      </trkpt>
      <trkpt lat="48.80875" lon="2.4626">
        <ele>28</ele>
        <time>2024-11-24T10:33:59.000Z</time>
      </trkpt>
      <trkpt lat="48.80872" lon="2.46266">
        <ele>28.87</ele>
        <time>2024-11-24T10:34:06.000Z</time>
      </trkpt>
      <trkpt lat="48.80868" lon="2.46272">
        <ele>28.58</ele>
        <time>2024-11-24T10:34:10.000Z</time>
      </trkpt>
      <trkpt lat="48.80865" lon="2.46278">
        <ele>29.56</ele>
        <time>2024-11-24T10:34:13.000Z</time>
      </trkpt>
      <trkpt lat="48.80862" lon="2.46283">
        <ele>30.64</ele>
        <time>2024-11-24T10:34:15.000Z</time>
      </trkpt>
      <trkpt lat="48.80858" lon="2.4629">
        <ele>31.72</ele>
        <time>2024-11-24T10:34:18.000Z</time>
      </trkpt>
      <trkpt lat="48.80855" lon="2.46296">
        <ele>33.1</ele>
        <time>2024-11-24T10:34:24.000Z</time>
      </trkpt>
      <trkpt lat="48.80852" lon="2.46301">
        <ele>33.24</ele>
        <time>2024-11-24T10:34:29.000Z</time>
      </trkpt>
      <trkpt lat="48.80847" lon="2.4631">
        <ele>27.03</ele>
        <time>2024-11-24T10:34:40.000Z</time>
      </trkpt>
      <trkpt lat="48.80844" lon="2.46316">
        <ele>25.06</ele>
        <time>2024-11-24T10:34:45.000Z</time>
      </trkpt>
      <trkpt lat="48.80841" lon="2.46322">
        <ele>24.4</ele>
        <time>2024-11-24T10:34:51.000Z</time>
      </trkpt>
      <trkpt lat="48.80838" lon="2.46327">
        <ele>24.28</ele>
        <time>2024-11-24T10:34:55.000Z</time>
      </trkpt>
      <trkpt lat="48.80835" lon="2.46334">
        <ele>23.72</ele>
        <time>2024-11-24T10:34:58.000Z</time>
      </trkpt>
      <trkpt lat="48.80831" lon="2.46339">
        <ele>23.57</ele>
        <time>2024-11-24T10:35:04.000Z</time>
      </trkpt>
      <trkpt lat="48.80827" lon="2.46345">
        <ele>27.3</ele>
        <time>2024-11-24T10:35:05.000Z</time>
      </trkpt>
      <trkpt lat="48.80824" lon="2.4635">
        <ele>29.17</ele>
        <time>2024-11-24T10:35:09.000Z</time>
      </trkpt>
      <trkpt lat="48.8082" lon="2.46355">
        <ele>28.92</ele>
        <time>2024-11-24T10:35:14.000Z</time>
      </trkpt>
      <trkpt lat="48.80817" lon="2.4636">
        <ele>28.6</ele>
        <time>2024-11-24T10:35:18.000Z</time>
      </trkpt>
      <trkpt lat="48.80814" lon="2.46366">
        <ele>27.26</ele>
        <time>2024-11-24T10:35:23.000Z</time>
      </trkpt>
      <trkpt lat="48.8081" lon="2.46371">
        <ele>26.25</ele>
        <time>2024-11-24T10:35:30.000Z</time>
      </trkpt>
      <trkpt lat="48.80806" lon="2.46377">
        <ele>26.21</ele>
        <time>2024-11-24T10:35:35.000Z</time>
      </trkpt>
      <trkpt lat="48.80802" lon="2.46383">
        <ele>25.9</ele>
        <time>2024-11-24T10:35:39.000Z</time>
      </trkpt>
      <trkpt lat="48.80797" lon="2.46389">
        <ele>26</ele>
        <time>2024-11-24T10:35:43.000Z</time>
      </trkpt>
      <trkpt lat="48.80793" lon="2.46394">
        <ele>26.6</ele>
        <time>2024-11-24T10:35:48.000Z</time>
      </trkpt>
      <trkpt lat="48.80789" lon="2.46399">
        <ele>26.29</ele>
        <time>2024-11-24T10:35:52.000Z</time>
      </trkpt>
      <trkpt lat="48.80786" lon="2.46404">
        <ele>26.47</ele>
        <time>2024-11-24T10:35:57.000Z</time>
      </trkpt>
      <trkpt lat="48.80782" lon="2.4641">
        <ele>26.25</ele>
        <time>2024-11-24T10:36:01.000Z</time>
      </trkpt>
      <trkpt lat="48.80778" lon="2.46415">
        <ele>25.48</ele>
        <time>2024-11-24T10:36:04.000Z</time>
      </trkpt>
      <trkpt lat="48.80774" lon="2.4642">
        <ele>25.23</ele>
        <time>2024-11-24T10:36:08.000Z</time>
      </trkpt>
      <trkpt lat="48.8077" lon="2.46425">
        <ele>25.38</ele>
        <time>2024-11-24T10:36:13.000Z</time>
      </trkpt>
      <trkpt lat="48.80767" lon="2.4643">
        <ele>25.99</ele>
        <time>2024-11-24T10:36:18.000Z</time>
      </trkpt>
      <trkpt lat="48.80763" lon="2.46435">
        <ele>25.68</ele>
        <time>2024-11-24T10:36:23.000Z</time>
      </trkpt>
      <trkpt lat="48.80759" lon="2.4644">
        <ele>25.82</ele>
        <time>2024-11-24T10:36:28.000Z</time>
      </trkpt>
      <trkpt lat="48.80755" lon="2.46445">
        <ele>25.16</ele>
        <time>2024-11-24T10:36:32.000Z</time>
      </trkpt>
      <trkpt lat="48.80751" lon="2.4645">
        <ele>24.88</ele>
        <time>2024-11-24T10:36:36.000Z</time>
      </trkpt>
      <trkpt lat="48.80747" lon="2.46455">
        <ele>25.08</ele>
        <time>2024-11-24T10:36:40.000Z</time>
      </trkpt>
      <trkpt lat="48.80744" lon="2.4646">
        <ele>24.24</ele>
        <time>2024-11-24T10:36:45.000Z</time>
      </trkpt>
      <trkpt lat="48.80739" lon="2.46461">
        <ele>23.53</ele>
        <time>2024-11-24T10:37:01.000Z</time>
      </trkpt>
      <trkpt lat="48.80735" lon="2.46467">
        <ele>24.63</ele>
        <time>2024-11-24T10:37:06.000Z</time>
      </trkpt>
      <trkpt lat="48.80731" lon="2.46472">
        <ele>24.45</ele>
        <time>2024-11-24T10:37:11.000Z</time>
      </trkpt>
      <trkpt lat="48.80728" lon="2.46478">
        <ele>24.29</ele>
        <time>2024-11-24T10:37:17.000Z</time>
      </trkpt>
      <trkpt lat="48.80725" lon="2.46485">
        <ele>24.29</ele>
        <time>2024-11-24T10:37:23.000Z</time>
      </trkpt>
      <trkpt lat="48.80721" lon="2.4649">
        <ele>23.92</ele>
        <time>2024-11-24T10:37:28.000Z</time>
      </trkpt>
      <trkpt lat="48.80718" lon="2.46495">
        <ele>23.52</ele>
        <time>2024-11-24T10:37:34.000Z</time>
      </trkpt>
      <trkpt lat="48.80715" lon="2.46501">
        <ele>23.09</ele>
        <time>2024-11-24T10:37:40.000Z</time>
      </trkpt>
      <trkpt lat="48.80711" lon="2.46506">
        <ele>22.67</ele>
        <time>2024-11-24T10:37:45.000Z</time>
      </trkpt>
      <trkpt lat="48.80701" lon="2.46514">
        <ele>27.93</ele>
        <time>2024-11-24T10:39:37.000Z</time>
      </trkpt>
      <trkpt lat="48.80705" lon="2.46524">
        <ele>30.62</ele>
        <time>2024-11-24T10:40:18.000Z</time>
      </trkpt>
      <trkpt lat="48.80708" lon="2.46529">
        <ele>29.65</ele>
        <time>2024-11-24T10:40:24.000Z</time>
      </trkpt>
      <trkpt lat="48.80711" lon="2.46534">
        <ele>28.39</ele>
        <time>2024-11-24T10:40:28.000Z</time>
      </trkpt>
      <trkpt lat="48.80714" lon="2.4654">
        <ele>26.89</ele>
        <time>2024-11-24T10:40:32.000Z</time>
      </trkpt>
      <trkpt lat="48.80717" lon="2.46546">
        <ele>25.4</ele>
        <time>2024-11-24T10:40:36.000Z</time>
      </trkpt>
      <trkpt lat="48.80721" lon="2.46551">
        <ele>24.58</ele>
        <time>2024-11-24T10:40:40.000Z</time>
      </trkpt>
      <trkpt lat="48.80724" lon="2.46557">
        <ele>23.64</ele>
        <time>2024-11-24T10:40:46.000Z</time>
      </trkpt>
      <trkpt lat="48.80727" lon="2.46563">
        <ele>23.39</ele>
        <time>2024-11-24T10:40:50.000Z</time>
      </trkpt>
      <trkpt lat="48.80731" lon="2.46569">
        <ele>22.73</ele>
        <time>2024-11-24T10:40:55.000Z</time>
      </trkpt>
      <trkpt lat="48.80734" lon="2.46574">
        <ele>22.32</ele>
        <time>2024-11-24T10:41:00.000Z</time>
      </trkpt>
      <trkpt lat="48.80739" lon="2.46579">
        <ele>21.91</ele>
        <time>2024-11-24T10:41:06.000Z</time>
      </trkpt>
      <trkpt lat="48.8074" lon="2.46585">
        <ele>19.82</ele>
        <time>2024-11-24T10:41:13.000Z</time>
      </trkpt>
      <trkpt lat="48.80739" lon="2.46594">
        <ele>19.1</ele>
        <time>2024-11-24T10:41:18.000Z</time>
      </trkpt>
      <trkpt lat="48.80736" lon="2.46601">
        <ele>18.81</ele>
        <time>2024-11-24T10:41:23.000Z</time>
      </trkpt>
      <trkpt lat="48.80735" lon="2.46612">
        <ele>21.77</ele>
        <time>2024-11-24T10:41:28.000Z</time>
      </trkpt>
      <trkpt lat="48.80737" lon="2.46619">
        <ele>22.95</ele>
        <time>2024-11-24T10:41:35.000Z</time>
      </trkpt>
      <trkpt lat="48.80738" lon="2.46625">
        <ele>23.29</ele>
        <time>2024-11-24T10:41:40.000Z</time>
      </trkpt>
      <trkpt lat="48.8074" lon="2.46632">
        <ele>22.87</ele>
        <time>2024-11-24T10:41:47.000Z</time>
      </trkpt>
      <trkpt lat="48.80741" lon="2.46639">
        <ele>22.6</ele>
        <time>2024-11-24T10:41:53.000Z</time>
      </trkpt>
      <trkpt lat="48.80743" lon="2.46646">
        <ele>22.95</ele>
        <time>2024-11-24T10:41:57.000Z</time>
      </trkpt>
      <trkpt lat="48.80747" lon="2.46652">
        <ele>22.72</ele>
        <time>2024-11-24T10:42:00.000Z</time>
      </trkpt>
      <trkpt lat="48.80747" lon="2.46659">
        <ele>23.25</ele>
        <time>2024-11-24T10:42:04.000Z</time>
      </trkpt>
      <trkpt lat="48.80745" lon="2.46665">
        <ele>23.39</ele>
        <time>2024-11-24T10:42:08.000Z</time>
      </trkpt>
      <trkpt lat="48.80742" lon="2.46671">
        <ele>25.14</ele>
        <time>2024-11-24T10:42:12.000Z</time>
      </trkpt>
      <trkpt lat="48.80738" lon="2.46676">
        <ele>25.4</ele>
        <time>2024-11-24T10:42:15.000Z</time>
      </trkpt>
      <trkpt lat="48.80732" lon="2.46677">
        <ele>26.8</ele>
        <time>2024-11-24T10:42:18.000Z</time>
      </trkpt>
      <trkpt lat="48.80729" lon="2.46683">
        <ele>26.77</ele>
        <time>2024-11-24T10:42:23.000Z</time>
      </trkpt>
      <trkpt lat="48.80725" lon="2.46688">
        <ele>30.05</ele>
        <time>2024-11-24T10:42:28.000Z</time>
      </trkpt>
      <trkpt lat="48.80722" lon="2.46695">
        <ele>29.54</ele>
        <time>2024-11-24T10:42:33.000Z</time>
      </trkpt>
      <trkpt lat="48.80718" lon="2.46699">
        <ele>29.21</ele>
        <time>2024-11-24T10:42:37.000Z</time>
      </trkpt>
      <trkpt lat="48.80715" lon="2.46705">
        <ele>28.71</ele>
        <time>2024-11-24T10:42:42.000Z</time>
      </trkpt>
      <trkpt lat="48.80711" lon="2.46711">
        <ele>28.58</ele>
        <time>2024-11-24T10:42:46.000Z</time>
      </trkpt>
      <trkpt lat="48.80705" lon="2.46714">
        <ele>36.36</ele>
        <time>2024-11-24T10:42:47.000Z</time>
      </trkpt>
      <trkpt lat="48.80701" lon="2.46719">
        <ele>44.59</ele>
        <time>2024-11-24T10:42:50.000Z</time>
      </trkpt>
      <trkpt lat="48.80696" lon="2.46722">
        <ele>44.46</ele>
        <time>2024-11-24T10:42:54.000Z</time>
      </trkpt>
      <trkpt lat="48.80692" lon="2.46727">
        <ele>43.01</ele>
        <time>2024-11-24T10:42:58.000Z</time>
      </trkpt>
      <trkpt lat="48.80689" lon="2.46731">
        <ele>41.81</ele>
        <time>2024-11-24T10:43:03.000Z</time>
      </trkpt>
      <trkpt lat="48.80685" lon="2.46734">
        <ele>40.88</ele>
        <time>2024-11-24T10:43:08.000Z</time>
      </trkpt>
      <trkpt lat="48.8068" lon="2.46736">
        <ele>40.35</ele>
        <time>2024-11-24T10:43:12.000Z</time>
      </trkpt>
      <trkpt lat="48.80676" lon="2.46733">
        <ele>44.59</ele>
        <time>2024-11-24T10:43:15.000Z</time>
      </trkpt>
      <trkpt lat="48.80671" lon="2.46734">
        <ele>46.08</ele>
        <time>2024-11-24T10:43:19.000Z</time>
      </trkpt>
      <trkpt lat="48.80666" lon="2.46736">
        <ele>44.62</ele>
        <time>2024-11-24T10:43:24.000Z</time>
      </trkpt>
      <trkpt lat="48.80662" lon="2.46741">
        <ele>44.2</ele>
        <time>2024-11-24T10:43:30.000Z</time>
      </trkpt>
      <trkpt lat="48.8066" lon="2.46749">
        <ele>44.05</ele>
        <time>2024-11-24T10:43:36.000Z</time>
      </trkpt>
      <trkpt lat="48.80658" lon="2.46755">
        <ele>42.24</ele>
        <time>2024-11-24T10:43:42.000Z</time>
      </trkpt>
      <trkpt lat="48.80657" lon="2.46762">
        <ele>39.87</ele>
        <time>2024-11-24T10:43:48.000Z</time>
      </trkpt>
      <trkpt lat="48.80654" lon="2.46767">
        <ele>38.14</ele>
        <time>2024-11-24T10:43:52.000Z</time>
      </trkpt>
      <trkpt lat="48.8065" lon="2.46773">
        <ele>36.36</ele>
        <time>2024-11-24T10:43:57.000Z</time>
      </trkpt>
      <trkpt lat="48.80647" lon="2.46779">
        <ele>35.15</ele>
        <time>2024-11-24T10:44:01.000Z</time>
      </trkpt>
      <trkpt lat="48.80643" lon="2.46785">
        <ele>33.33</ele>
        <time>2024-11-24T10:44:06.000Z</time>
      </trkpt>
      <trkpt lat="48.8064" lon="2.4679">
        <ele>31.47</ele>
        <time>2024-11-24T10:44:10.000Z</time>
      </trkpt>
      <trkpt lat="48.80637" lon="2.46795">
        <ele>30.06</ele>
        <time>2024-11-24T10:44:14.000Z</time>
      </trkpt>
      <trkpt lat="48.80633" lon="2.46799">
        <ele>29.8</ele>
        <time>2024-11-24T10:44:18.000Z</time>
      </trkpt>
      <trkpt lat="48.80628" lon="2.468">
        <ele>30.4</ele>
        <time>2024-11-24T10:44:22.000Z</time>
      </trkpt>
      <trkpt lat="48.80624" lon="2.46802">
        <ele>29.15</ele>
        <time>2024-11-24T10:44:26.000Z</time>
      </trkpt>
      <trkpt lat="48.80619" lon="2.46805">
        <ele>27.54</ele>
        <time>2024-11-24T10:44:30.000Z</time>
      </trkpt>
      <trkpt lat="48.80614" lon="2.46809">
        <ele>26.33</ele>
        <time>2024-11-24T10:44:35.000Z</time>
      </trkpt>
      <trkpt lat="48.8061" lon="2.46813">
        <ele>25.94</ele>
        <time>2024-11-24T10:44:39.000Z</time>
      </trkpt>
      <trkpt lat="48.80606" lon="2.46817">
        <ele>25.89</ele>
        <time>2024-11-24T10:44:43.000Z</time>
      </trkpt>
      <trkpt lat="48.80601" lon="2.46821">
        <ele>25.68</ele>
        <time>2024-11-24T10:44:47.000Z</time>
      </trkpt>
      <trkpt lat="48.80598" lon="2.46826">
        <ele>27.04</ele>
        <time>2024-11-24T10:44:51.000Z</time>
      </trkpt>
      <trkpt lat="48.80594" lon="2.46831">
        <ele>29.52</ele>
        <time>2024-11-24T10:44:57.000Z</time>
      </trkpt>
      <trkpt lat="48.80592" lon="2.46837">
        <ele>28.78</ele>
        <time>2024-11-24T10:45:03.000Z</time>
      </trkpt>
      <trkpt lat="48.80588" lon="2.46844">
        <ele>28.81</ele>
        <time>2024-11-24T10:45:08.000Z</time>
      </trkpt>
      <trkpt lat="48.80584" lon="2.46849">
        <ele>27.82</ele>
        <time>2024-11-24T10:45:12.000Z</time>
      </trkpt>
      <trkpt lat="48.80581" lon="2.46855">
        <ele>26.54</ele>
        <time>2024-11-24T10:45:18.000Z</time>
      </trkpt>
      <trkpt lat="48.80575" lon="2.46857">
        <ele>25.88</ele>
        <time>2024-11-24T10:45:22.000Z</time>
      </trkpt>
      <trkpt lat="48.80569" lon="2.4686">
        <ele>25.31</ele>
        <time>2024-11-24T10:45:25.000Z</time>
      </trkpt>
      <trkpt lat="48.80565" lon="2.46862">
        <ele>25.51</ele>
        <time>2024-11-24T10:45:31.000Z</time>
      </trkpt>
      <trkpt lat="48.80559" lon="2.46865">
        <ele>24.36</ele>
        <time>2024-11-24T10:45:36.000Z</time>
      </trkpt>
      <trkpt lat="48.80555" lon="2.46866">
        <ele>24.46</ele>
        <time>2024-11-24T10:45:42.000Z</time>
      </trkpt>
      <trkpt lat="48.8055" lon="2.46869">
        <ele>24.66</ele>
        <time>2024-11-24T10:45:47.000Z</time>
      </trkpt>
      <trkpt lat="48.80545" lon="2.46871">
        <ele>24.4</ele>
        <time>2024-11-24T10:45:50.000Z</time>
      </trkpt>
      <trkpt lat="48.80541" lon="2.46873">
        <ele>24.7</ele>
        <time>2024-11-24T10:45:53.000Z</time>
      </trkpt>
      <trkpt lat="48.80536" lon="2.46875">
        <ele>25.12</ele>
        <time>2024-11-24T10:45:58.000Z</time>
      </trkpt>
      <trkpt lat="48.80532" lon="2.46877">
        <ele>26.17</ele>
        <time>2024-11-24T10:46:02.000Z</time>
      </trkpt>
      <trkpt lat="48.80527" lon="2.46879">
        <ele>25.82</ele>
        <time>2024-11-24T10:46:06.000Z</time>
      </trkpt>
      <trkpt lat="48.80522" lon="2.46881">
        <ele>27.04</ele>
        <time>2024-11-24T10:46:14.000Z</time>
      </trkpt>
      <trkpt lat="48.80516" lon="2.46883">
        <ele>27.29</ele>
        <time>2024-11-24T10:46:19.000Z</time>
      </trkpt>
      <trkpt lat="48.80512" lon="2.46885">
        <ele>26.47</ele>
        <time>2024-11-24T10:46:23.000Z</time>
      </trkpt>
      <trkpt lat="48.80507" lon="2.46887">
        <ele>25.85</ele>
        <time>2024-11-24T10:46:27.000Z</time>
      </trkpt>
      <trkpt lat="48.80502" lon="2.46889">
        <ele>25.4</ele>
        <time>2024-11-24T10:46:32.000Z</time>
      </trkpt>
      <trkpt lat="48.80497" lon="2.46892">
        <ele>23.64</ele>
        <time>2024-11-24T10:46:38.000Z</time>
      </trkpt>
      <trkpt lat="48.80493" lon="2.46893">
        <ele>23.81</ele>
        <time>2024-11-24T10:46:43.000Z</time>
      </trkpt>
      <trkpt lat="48.80491" lon="2.46886">
        <ele>25.56</ele>
        <time>2024-11-24T10:46:52.000Z</time>
      </trkpt>
      <trkpt lat="48.80488" lon="2.46881">
        <ele>28.22</ele>
        <time>2024-11-24T10:46:59.000Z</time>
      </trkpt>
      <trkpt lat="48.80485" lon="2.46875">
        <ele>28.79</ele>
        <time>2024-11-24T10:47:04.000Z</time>
      </trkpt>
      <trkpt lat="48.80481" lon="2.46869">
        <ele>30.91</ele>
        <time>2024-11-24T10:47:09.000Z</time>
      </trkpt>
      <trkpt lat="48.80479" lon="2.46863">
        <ele>31.16</ele>
        <time>2024-11-24T10:47:14.000Z</time>
      </trkpt>
      <trkpt lat="48.80476" lon="2.46856">
        <ele>29.57</ele>
        <time>2024-11-24T10:47:20.000Z</time>
      </trkpt>
      <trkpt lat="48.80473" lon="2.4685">
        <ele>27.25</ele>
        <time>2024-11-24T10:47:24.000Z</time>
      </trkpt>
      <trkpt lat="48.80471" lon="2.46844">
        <ele>28.51</ele>
        <time>2024-11-24T10:47:31.000Z</time>
      </trkpt>
      <trkpt lat="48.80468" lon="2.46836">
        <ele>30.64</ele>
        <time>2024-11-24T10:47:39.000Z</time>
      </trkpt>
      <trkpt lat="48.80465" lon="2.4683">
        <ele>31.07</ele>
        <time>2024-11-24T10:47:43.000Z</time>
      </trkpt>
      <trkpt lat="48.80463" lon="2.46823">
        <ele>31.16</ele>
        <time>2024-11-24T10:47:47.000Z</time>
      </trkpt>
      <trkpt lat="48.80459" lon="2.46819">
        <ele>28.94</ele>
        <time>2024-11-24T10:47:57.000Z</time>
      </trkpt>
      <trkpt lat="48.80457" lon="2.46811">
        <ele>29.6</ele>
        <time>2024-11-24T10:48:13.000Z</time>
      </trkpt>
      <trkpt lat="48.80457" lon="2.46804">
        <ele>30.44</ele>
        <time>2024-11-24T10:48:18.000Z</time>
      </trkpt>
      <trkpt lat="48.80454" lon="2.46799">
        <ele>29.96</ele>
        <time>2024-11-24T10:48:21.000Z</time>
      </trkpt>
      <trkpt lat="48.80451" lon="2.46793">
        <ele>28.98</ele>
        <time>2024-11-24T10:48:25.000Z</time>
      </trkpt>
      <trkpt lat="48.80449" lon="2.46786">
        <ele>28.12</ele>
        <time>2024-11-24T10:48:30.000Z</time>
      </trkpt>
      <trkpt lat="48.80447" lon="2.46779">
        <ele>29.03</ele>
        <time>2024-11-24T10:48:33.000Z</time>
      </trkpt>
      <trkpt lat="48.80444" lon="2.4677">
        <ele>30.62</ele>
        <time>2024-11-24T10:48:38.000Z</time>
      </trkpt>
      <trkpt lat="48.80439" lon="2.46771">
        <ele>30.35</ele>
        <time>2024-11-24T10:48:42.000Z</time>
      </trkpt>
      <trkpt lat="48.80434" lon="2.46773">
        <ele>29.58</ele>
        <time>2024-11-24T10:48:47.000Z</time>
      </trkpt>
      <trkpt lat="48.80429" lon="2.46776">
        <ele>27.62</ele>
        <time>2024-11-24T10:48:52.000Z</time>
      </trkpt>
      <trkpt lat="48.80424" lon="2.46778">
        <ele>25.74</ele>
        <time>2024-11-24T10:48:58.000Z</time>
      </trkpt>
      <trkpt lat="48.8042" lon="2.46782">
        <ele>26.05</ele>
        <time>2024-11-24T10:49:02.000Z</time>
      </trkpt>
      <trkpt lat="48.80416" lon="2.46785">
        <ele>27.03</ele>
        <time>2024-11-24T10:49:08.000Z</time>
      </trkpt>
      <trkpt lat="48.8041" lon="2.46789">
        <ele>27.16</ele>
        <time>2024-11-24T10:49:12.999Z</time>
      </trkpt>
      <trkpt lat="48.80406" lon="2.46792">
        <ele>27.05</ele>
        <time>2024-11-24T10:49:19.000Z</time>
      </trkpt>
      <trkpt lat="48.804" lon="2.46796">
        <ele>26.98</ele>
        <time>2024-11-24T10:49:25.000Z</time>
      </trkpt>
      <trkpt lat="48.80405" lon="2.46793">
        <ele>28.32</ele>
        <time>2024-11-24T10:49:28.000Z</time>
      </trkpt>
      <trkpt lat="48.804" lon="2.46796">
        <ele>26.55</ele>
        <time>2024-11-24T10:49:29.000Z</time>
      </trkpt>
      <trkpt lat="48.80395" lon="2.46799">
        <ele>25.46</ele>
        <time>2024-11-24T10:49:30.000Z</time>
      </trkpt>
      <trkpt lat="48.8039" lon="2.46801">
        <ele>25.11</ele>
        <time>2024-11-24T10:49:36.000Z</time>
      </trkpt>
      <trkpt lat="48.80384" lon="2.46804">
        <ele>23.68</ele>
        <time>2024-11-24T10:49:44.000Z</time>
      </trkpt>
      <trkpt lat="48.80378" lon="2.46808">
        <ele>22.51</ele>
        <time>2024-11-24T10:49:48.000Z</time>
      </trkpt>
      <trkpt lat="48.80374" lon="2.4681">
        <ele>21.41</ele>
        <time>2024-11-24T10:49:52.000Z</time>
      </trkpt>
      <trkpt lat="48.80368" lon="2.46812">
        <ele>21.46</ele>
        <time>2024-11-24T10:49:58.000Z</time>
      </trkpt>
      <trkpt lat="48.80363" lon="2.46814">
        <ele>23.21</ele>
        <time>2024-11-24T10:50:01.000Z</time>
      </trkpt>
      <trkpt lat="48.80357" lon="2.46815">
        <ele>24.12</ele>
        <time>2024-11-24T10:50:07.000Z</time>
      </trkpt>
      <trkpt lat="48.80352" lon="2.46816">
        <ele>23.37</ele>
        <time>2024-11-24T10:50:12.000Z</time>
      </trkpt>
      <trkpt lat="48.80347" lon="2.46818">
        <ele>21.98</ele>
        <time>2024-11-24T10:50:16.000Z</time>
      </trkpt>
      <trkpt lat="48.80341" lon="2.46819">
        <ele>21.27</ele>
        <time>2024-11-24T10:50:22.000Z</time>
      </trkpt>
      <trkpt lat="48.80336" lon="2.46817">
        <ele>21.71</ele>
        <time>2024-11-24T10:50:26.000Z</time>
      </trkpt>
      <trkpt lat="48.80334" lon="2.46811">
        <ele>22.41</ele>
        <time>2024-11-24T10:50:30.000Z</time>
      </trkpt>
      <trkpt lat="48.80329" lon="2.46807">
        <ele>23.89</ele>
        <time>2024-11-24T10:50:34.000Z</time>
      </trkpt>
      <trkpt lat="48.80324" lon="2.46806">
        <ele>25.53</ele>
        <time>2024-11-24T10:50:38.000Z</time>
      </trkpt>
      <trkpt lat="48.80319" lon="2.46806">
        <ele>26.39</ele>
        <time>2024-11-24T10:50:43.000Z</time>
      </trkpt>
      <trkpt lat="48.80314" lon="2.46806">
        <ele>28.29</ele>
        <time>2024-11-24T10:50:48.000Z</time>
      </trkpt>
      <trkpt lat="48.80309" lon="2.46806">
        <ele>29.9</ele>
        <time>2024-11-24T10:50:53.000Z</time>
      </trkpt>
      <trkpt lat="48.80304" lon="2.46806">
        <ele>31.43</ele>
        <time>2024-11-24T10:50:57.000Z</time>
      </trkpt>
      <trkpt lat="48.80298" lon="2.46806">
        <ele>32.16</ele>
        <time>2024-11-24T10:51:04.000Z</time>
      </trkpt>
      <trkpt lat="48.80293" lon="2.46805">
        <ele>32.38</ele>
        <time>2024-11-24T10:51:09.000Z</time>
      </trkpt>
      <trkpt lat="48.80288" lon="2.46804">
        <ele>32.47</ele>
        <time>2024-11-24T10:51:14.000Z</time>
      </trkpt>
      <trkpt lat="48.80284" lon="2.46803">
        <ele>32.85</ele>
        <time>2024-11-24T10:51:19.000Z</time>
      </trkpt>
      <trkpt lat="48.80279" lon="2.46802">
        <ele>32.91</ele>
        <time>2024-11-24T10:51:24.000Z</time>
      </trkpt>
      <trkpt lat="48.80275" lon="2.46801">
        <ele>32.71</ele>
        <time>2024-11-24T10:51:28.000Z</time>
      </trkpt>
      <trkpt lat="48.8027" lon="2.468">
        <ele>32.99</ele>
        <time>2024-11-24T10:51:31.000Z</time>
      </trkpt>
      <trkpt lat="48.80265" lon="2.46798">
        <ele>33.66</ele>
        <time>2024-11-24T10:51:35.000Z</time>
      </trkpt>
      <trkpt lat="48.8026" lon="2.46797">
        <ele>33.78</ele>
        <time>2024-11-24T10:51:39.000Z</time>
      </trkpt>
      <trkpt lat="48.80256" lon="2.46796">
        <ele>32.54</ele>
        <time>2024-11-24T10:51:46.000Z</time>
      </trkpt>
      <trkpt lat="48.8025" lon="2.46794">
        <ele>31.71</ele>
        <time>2024-11-24T10:51:50.000Z</time>
      </trkpt>
      <trkpt lat="48.80245" lon="2.46792">
        <ele>31.48</ele>
        <time>2024-11-24T10:51:54.000Z</time>
      </trkpt>
      <trkpt lat="48.8024" lon="2.4679">
        <ele>31.56</ele>
        <time>2024-11-24T10:51:57.000Z</time>
      </trkpt>
      <trkpt lat="48.80235" lon="2.46788">
        <ele>31.98</ele>
        <time>2024-11-24T10:52:01.000Z</time>
      </trkpt>
      <trkpt lat="48.8023" lon="2.46785">
        <ele>31.34</ele>
        <time>2024-11-24T10:52:08.000Z</time>
      </trkpt>
      <trkpt lat="48.80225" lon="2.46783">
        <ele>30.97</ele>
        <time>2024-11-24T10:52:14.000Z</time>
      </trkpt>
      <trkpt lat="48.80221" lon="2.46781">
        <ele>30.28</ele>
        <time>2024-11-24T10:52:19.000Z</time>
      </trkpt>
      <trkpt lat="48.80216" lon="2.46778">
        <ele>33.02</ele>
        <time>2024-11-24T10:52:22.000Z</time>
      </trkpt>
      <trkpt lat="48.80211" lon="2.46776">
        <ele>32.36</ele>
        <time>2024-11-24T10:52:26.000Z</time>
      </trkpt>
      <trkpt lat="48.80206" lon="2.46774">
        <ele>31.02</ele>
        <time>2024-11-24T10:52:33.000Z</time>
      </trkpt>
      <trkpt lat="48.80202" lon="2.46772">
        <ele>29.85</ele>
        <time>2024-11-24T10:52:38.000Z</time>
      </trkpt>
      <trkpt lat="48.80197" lon="2.4677">
        <ele>29.17</ele>
        <time>2024-11-24T10:52:43.000Z</time>
      </trkpt>
      <trkpt lat="48.80192" lon="2.46768">
        <ele>29.45</ele>
        <time>2024-11-24T10:52:48.000Z</time>
      </trkpt>
      <trkpt lat="48.80187" lon="2.46765">
        <ele>29</ele>
        <time>2024-11-24T10:52:53.000Z</time>
      </trkpt>
      <trkpt lat="48.80182" lon="2.46763">
        <ele>27.84</ele>
        <time>2024-11-24T10:52:59.000Z</time>
      </trkpt>
      <trkpt lat="48.80177" lon="2.4676">
        <ele>27.48</ele>
        <time>2024-11-24T10:53:04.000Z</time>
      </trkpt>
      <trkpt lat="48.80172" lon="2.46758">
        <ele>25.9</ele>
        <time>2024-11-24T10:53:09.000Z</time>
      </trkpt>
      <trkpt lat="48.80168" lon="2.46756">
        <ele>25.53</ele>
        <time>2024-11-24T10:53:13.000Z</time>
      </trkpt>
      <trkpt lat="48.80163" lon="2.46754">
        <ele>26.14</ele>
        <time>2024-11-24T10:53:17.000Z</time>
      </trkpt>
      <trkpt lat="48.80158" lon="2.46752">
        <ele>27.87</ele>
        <time>2024-11-24T10:53:22.000Z</time>
      </trkpt>
      <trkpt lat="48.80153" lon="2.46749">
        <ele>28.47</ele>
        <time>2024-11-24T10:53:28.000Z</time>
      </trkpt>
      <trkpt lat="48.80149" lon="2.46747">
        <ele>29.04</ele>
        <time>2024-11-24T10:53:33.000Z</time>
      </trkpt>
      <trkpt lat="48.80144" lon="2.46745">
        <ele>29.04</ele>
        <time>2024-11-24T10:53:39.000Z</time>
      </trkpt>
      <trkpt lat="48.80139" lon="2.46743">
        <ele>29.2</ele>
        <time>2024-11-24T10:53:44.000Z</time>
      </trkpt>
      <trkpt lat="48.80134" lon="2.46741">
        <ele>28.11</ele>
        <time>2024-11-24T10:53:50.000Z</time>
      </trkpt>
      <trkpt lat="48.8013" lon="2.46739">
        <ele>27.54</ele>
        <time>2024-11-24T10:53:54.000Z</time>
      </trkpt>
      <trkpt lat="48.80125" lon="2.46736">
        <ele>28.18</ele>
        <time>2024-11-24T10:53:58.000Z</time>
      </trkpt>
      <trkpt lat="48.8012" lon="2.46734">
        <ele>28.42</ele>
        <time>2024-11-24T10:54:02.000Z</time>
      </trkpt>
      <trkpt lat="48.80115" lon="2.46732">
        <ele>29.3</ele>
        <time>2024-11-24T10:54:09.000Z</time>
      </trkpt>
      <trkpt lat="48.8011" lon="2.46729">
        <ele>29.69</ele>
        <time>2024-11-24T10:54:14.000Z</time>
      </trkpt>
      <trkpt lat="48.80108" lon="2.46737">
        <ele>30.21</ele>
        <time>2024-11-24T10:54:22.000Z</time>
      </trkpt>
      <trkpt lat="48.80108" lon="2.46744">
        <ele>29.26</ele>
        <time>2024-11-24T10:54:26.000Z</time>
      </trkpt>
      <trkpt lat="48.80108" lon="2.46752">
        <ele>28.5</ele>
        <time>2024-11-24T10:54:30.000Z</time>
      </trkpt>
      <trkpt lat="48.80106" lon="2.46759">
        <ele>26.91</ele>
        <time>2024-11-24T10:54:35.000Z</time>
      </trkpt>
      <trkpt lat="48.80103" lon="2.46764">
        <ele>25.46</ele>
        <time>2024-11-24T10:54:40.000Z</time>
      </trkpt>
      <trkpt lat="48.80105" lon="2.46771">
        <ele>23.67</ele>
        <time>2024-11-24T10:54:46.000Z</time>
      </trkpt>
      <trkpt lat="48.8011" lon="2.46772">
        <ele>24.61</ele>
        <time>2024-11-24T10:54:51.000Z</time>
      </trkpt>
      <trkpt lat="48.80115" lon="2.46772">
        <ele>27.18</ele>
        <time>2024-11-24T10:55:12.000Z</time>
      </trkpt>
      <trkpt lat="48.80119" lon="2.46776">
        <ele>25.03</ele>
        <time>2024-11-24T10:55:20.000Z</time>
      </trkpt>
      <trkpt lat="48.80123" lon="2.46781">
        <ele>22.9</ele>
        <time>2024-11-24T10:55:25.000Z</time>
      </trkpt>
      <trkpt lat="48.80127" lon="2.46788">
        <ele>23.1</ele>
        <time>2024-11-24T10:55:33.000Z</time>
      </trkpt>
      <trkpt lat="48.80131" lon="2.46792">
        <ele>23.71</ele>
        <time>2024-11-24T10:55:37.000Z</time>
      </trkpt>
      <trkpt lat="48.80135" lon="2.46794">
        <ele>24.85</ele>
        <time>2024-11-24T10:55:42.000Z</time>
      </trkpt>
      <trkpt lat="48.8014" lon="2.46796">
        <ele>25.19</ele>
        <time>2024-11-24T10:55:47.000Z</time>
      </trkpt>
      <trkpt lat="48.80146" lon="2.46797">
        <ele>24.87</ele>
        <time>2024-11-24T10:55:51.000Z</time>
      </trkpt>
      <trkpt lat="48.8015" lon="2.46802">
        <ele>24.03</ele>
        <time>2024-11-24T10:55:57.000Z</time>
      </trkpt>
      <trkpt lat="48.80154" lon="2.46806">
        <ele>23.75</ele>
        <time>2024-11-24T10:56:02.000Z</time>
      </trkpt>
      <trkpt lat="48.8016" lon="2.46808">
        <ele>22.38</ele>
        <time>2024-11-24T10:56:09.000Z</time>
      </trkpt>
      <trkpt lat="48.80164" lon="2.46809">
        <ele>20.7</ele>
        <time>2024-11-24T10:56:14.000Z</time>
      </trkpt>
      <trkpt lat="48.80169" lon="2.46811">
        <ele>20.87</ele>
        <time>2024-11-24T10:56:20.000Z</time>
      </trkpt>
      <trkpt lat="48.80174" lon="2.46813">
        <ele>22.41</ele>
        <time>2024-11-24T10:56:25.000Z</time>
      </trkpt>
      <trkpt lat="48.80173" lon="2.4682">
        <ele>23.26</ele>
        <time>2024-11-24T10:56:32.000Z</time>
      </trkpt>
      <trkpt lat="48.80171" lon="2.4683">
        <ele>23.83</ele>
        <time>2024-11-24T10:58:46.000Z</time>
      </trkpt>
      <trkpt lat="48.80168" lon="2.46836">
        <ele>24.35</ele>
        <time>2024-11-24T10:58:51.000Z</time>
      </trkpt>
      <trkpt lat="48.80163" lon="2.46842">
        <ele>24.14</ele>
        <time>2024-11-24T10:58:56.000Z</time>
      </trkpt>
      <trkpt lat="48.80161" lon="2.46848">
        <ele>23.2</ele>
        <time>2024-11-24T10:59:01.000Z</time>
      </trkpt>
      <trkpt lat="48.80157" lon="2.46853">
        <ele>23.26</ele>
        <time>2024-11-24T10:59:14.000Z</time>
      </trkpt>
      <trkpt lat="48.80152" lon="2.46856">
        <ele>23.74</ele>
        <time>2024-11-24T10:59:19.000Z</time>
      </trkpt>
      <trkpt lat="48.80147" lon="2.46856">
        <ele>24.12</ele>
        <time>2024-11-24T10:59:25.000Z</time>
      </trkpt>
      <trkpt lat="48.80143" lon="2.46858">
        <ele>24.61</ele>
        <time>2024-11-24T10:59:32.000Z</time>
      </trkpt>
      <trkpt lat="48.80138" lon="2.46859">
        <ele>25.36</ele>
        <time>2024-11-24T10:59:37.000Z</time>
      </trkpt>
      <trkpt lat="48.80134" lon="2.4686">
        <ele>25.36</ele>
        <time>2024-11-24T10:59:42.000Z</time>
      </trkpt>
      <trkpt lat="48.80129" lon="2.46861">
        <ele>26</ele>
        <time>2024-11-24T10:59:48.000Z</time>
      </trkpt>
      <trkpt lat="48.80124" lon="2.46864">
        <ele>22.82</ele>
        <time>2024-11-24T10:59:57.000Z</time>
      </trkpt>
      <trkpt lat="48.8012" lon="2.46867">
        <ele>22.93</ele>
        <time>2024-11-24T11:00:00.000Z</time>
      </trkpt>
      <trkpt lat="48.80116" lon="2.46871">
        <ele>23.08</ele>
        <time>2024-11-24T11:00:03.000Z</time>
      </trkpt>
      <trkpt lat="48.80111" lon="2.46873">
        <ele>23.84</ele>
        <time>2024-11-24T11:00:08.000Z</time>
      </trkpt>
      <trkpt lat="48.80106" lon="2.46873">
        <ele>24.24</ele>
        <time>2024-11-24T11:00:13.000Z</time>
      </trkpt>
      <trkpt lat="48.80101" lon="2.46875">
        <ele>25.25</ele>
        <time>2024-11-24T11:00:19.000Z</time>
      </trkpt>
      <trkpt lat="48.80096" lon="2.46877">
        <ele>26.28</ele>
        <time>2024-11-24T11:00:24.000Z</time>
      </trkpt>
      <trkpt lat="48.80091" lon="2.46882">
        <ele>25.27</ele>
        <time>2024-11-24T11:00:29.000Z</time>
      </trkpt>
      <trkpt lat="48.80086" lon="2.46884">
        <ele>25.44</ele>
        <time>2024-11-24T11:00:35.000Z</time>
      </trkpt>
      <trkpt lat="48.80082" lon="2.46886">
        <ele>24.65</ele>
        <time>2024-11-24T11:00:40.000Z</time>
      </trkpt>
      <trkpt lat="48.80078" lon="2.4689">
        <ele>25.29</ele>
        <time>2024-11-24T11:00:44.000Z</time>
      </trkpt>
      <trkpt lat="48.80073" lon="2.46893">
        <ele>24.77</ele>
        <time>2024-11-24T11:00:48.000Z</time>
      </trkpt>
      <trkpt lat="48.80068" lon="2.46894">
        <ele>24.48</ele>
        <time>2024-11-24T11:00:54.000Z</time>
      </trkpt>
      <trkpt lat="48.80063" lon="2.46896">
        <ele>24.59</ele>
        <time>2024-11-24T11:00:58.000Z</time>
      </trkpt>
      <trkpt lat="48.80057" lon="2.46897">
        <ele>26</ele>
        <time>2024-11-24T11:01:02.000Z</time>
      </trkpt>
      <trkpt lat="48.80053" lon="2.469">
        <ele>26.25</ele>
        <time>2024-11-24T11:01:07.000Z</time>
      </trkpt>
      <trkpt lat="48.80048" lon="2.46904">
        <ele>26.58</ele>
        <time>2024-11-24T11:01:13.000Z</time>
      </trkpt>
      <trkpt lat="48.80043" lon="2.46905">
        <ele>27.24</ele>
        <time>2024-11-24T11:01:18.000Z</time>
      </trkpt>
      <trkpt lat="48.80038" lon="2.46907">
        <ele>25.81</ele>
        <time>2024-11-24T11:01:23.000Z</time>
      </trkpt>
      <trkpt lat="48.80034" lon="2.46909">
        <ele>25.43</ele>
        <time>2024-11-24T11:01:28.000Z</time>
      </trkpt>
      <trkpt lat="48.80029" lon="2.46911">
        <ele>24.53</ele>
        <time>2024-11-24T11:01:36.000Z</time>
      </trkpt>
      <trkpt lat="48.80024" lon="2.46913">
        <ele>23.53</ele>
        <time>2024-11-24T11:01:41.000Z</time>
      </trkpt>
      <trkpt lat="48.80019" lon="2.46917">
        <ele>23.1</ele>
        <time>2024-11-24T11:01:46.000Z</time>
      </trkpt>
      <trkpt lat="48.80014" lon="2.46921">
        <ele>22.87</ele>
        <time>2024-11-24T11:01:52.000Z</time>
      </trkpt>
      <trkpt lat="48.8001" lon="2.46923">
        <ele>21.42</ele>
        <time>2024-11-24T11:01:56.000Z</time>
      </trkpt>
      <trkpt lat="48.80004" lon="2.46924">
        <ele>21.52</ele>
        <time>2024-11-24T11:02:02.000Z</time>
      </trkpt>
      <trkpt lat="48.8" lon="2.4692">
        <ele>20.92</ele>
        <time>2024-11-24T11:02:09.000Z</time>
      </trkpt>
      <trkpt lat="48.79998" lon="2.46913">
        <ele>22.62</ele>
        <time>2024-11-24T11:02:14.000Z</time>
      </trkpt>
      <trkpt lat="48.79996" lon="2.46906">
        <ele>24.75</ele>
        <time>2024-11-24T11:02:19.000Z</time>
      </trkpt>
      <trkpt lat="48.79991" lon="2.46903">
        <ele>25.55</ele>
        <time>2024-11-24T11:02:24.000Z</time>
      </trkpt>
      <trkpt lat="48.79987" lon="2.469">
        <ele>26.49</ele>
        <time>2024-11-24T11:02:28.000Z</time>
      </trkpt>
      <trkpt lat="48.79986" lon="2.46893">
        <ele>24.65</ele>
        <time>2024-11-24T11:02:39.000Z</time>
      </trkpt>
      <trkpt lat="48.79982" lon="2.46888">
        <ele>24.76</ele>
        <time>2024-11-24T11:02:44.000Z</time>
      </trkpt>
      <trkpt lat="48.7998" lon="2.46881">
        <ele>26.06</ele>
        <time>2024-11-24T11:02:48.000Z</time>
      </trkpt>
      <trkpt lat="48.79978" lon="2.46874">
        <ele>27.88</ele>
        <time>2024-11-24T11:02:54.000Z</time>
      </trkpt>
      <trkpt lat="48.79976" lon="2.46867">
        <ele>29.3</ele>
        <time>2024-11-24T11:02:58.000Z</time>
      </trkpt>
      <trkpt lat="48.79975" lon="2.4686">
        <ele>30.01</ele>
        <time>2024-11-24T11:03:03.000Z</time>
      </trkpt>
      <trkpt lat="48.79974" lon="2.46852">
        <ele>29.34</ele>
        <time>2024-11-24T11:03:08.000Z</time>
      </trkpt>
      <trkpt lat="48.79973" lon="2.46843">
        <ele>29.35</ele>
        <time>2024-11-24T11:03:12.000Z</time>
      </trkpt>
      <trkpt lat="48.79972" lon="2.46836">
        <ele>28.02</ele>
        <time>2024-11-24T11:03:16.000Z</time>
      </trkpt>
      <trkpt lat="48.79971" lon="2.46828">
        <ele>26.71</ele>
        <time>2024-11-24T11:03:22.000Z</time>
      </trkpt>
      <trkpt lat="48.79971" lon="2.4682">
        <ele>26.33</ele>
        <time>2024-11-24T11:03:29.000Z</time>
      </trkpt>
      <trkpt lat="48.79971" lon="2.46813">
        <ele>26.16</ele>
        <time>2024-11-24T11:03:33.000Z</time>
      </trkpt>
      <trkpt lat="48.7997" lon="2.46806">
        <ele>25.68</ele>
        <time>2024-11-24T11:03:38.000Z</time>
      </trkpt>
      <trkpt lat="48.79968" lon="2.46799">
        <ele>27.4</ele>
        <time>2024-11-24T11:03:43.000Z</time>
      </trkpt>
      <trkpt lat="48.79968" lon="2.46791">
        <ele>28.61</ele>
        <time>2024-11-24T11:03:47.000Z</time>
      </trkpt>
      <trkpt lat="48.79968" lon="2.46784">
        <ele>28.34</ele>
        <time>2024-11-24T11:03:52.000Z</time>
      </trkpt>
      <trkpt lat="48.79966" lon="2.46777">
        <ele>28.44</ele>
        <time>2024-11-24T11:03:57.000Z</time>
      </trkpt>
      <trkpt lat="48.79963" lon="2.4677">
        <ele>29.32</ele>
        <time>2024-11-24T11:04:01.000Z</time>
      </trkpt>
      <trkpt lat="48.79961" lon="2.46763">
        <ele>27.1</ele>
        <time>2024-11-24T11:04:05.000Z</time>
      </trkpt>
      <trkpt lat="48.7996" lon="2.46756">
        <ele>25.88</ele>
        <time>2024-11-24T11:04:10.000Z</time>
      </trkpt>
      <trkpt lat="48.7996" lon="2.46749">
        <ele>24.54</ele>
        <time>2024-11-24T11:04:15.000Z</time>
      </trkpt>
      <trkpt lat="48.79959" lon="2.46742">
        <ele>23.98</ele>
        <time>2024-11-24T11:04:19.000Z</time>
      </trkpt>
      <trkpt lat="48.79958" lon="2.46735">
        <ele>25.54</ele>
        <time>2024-11-24T11:04:23.000Z</time>
      </trkpt>
      <trkpt lat="48.79957" lon="2.46727">
        <ele>26.67</ele>
        <time>2024-11-24T11:04:29.000Z</time>
      </trkpt>
      <trkpt lat="48.79956" lon="2.4672">
        <ele>27.29</ele>
        <time>2024-11-24T11:04:34.000Z</time>
      </trkpt>
      <trkpt lat="48.79955" lon="2.46712">
        <ele>28.2</ele>
        <time>2024-11-24T11:04:39.000Z</time>
      </trkpt>
      <trkpt lat="48.79954" lon="2.46703">
        <ele>29.05</ele>
        <time>2024-11-24T11:04:44.000Z</time>
      </trkpt>
      <trkpt lat="48.79953" lon="2.46696">
        <ele>28.98</ele>
        <time>2024-11-24T11:04:48.000Z</time>
      </trkpt>
      <trkpt lat="48.79953" lon="2.46689">
        <ele>30.09</ele>
        <time>2024-11-24T11:04:54.000Z</time>
      </trkpt>
      <trkpt lat="48.79952" lon="2.4668">
        <ele>30.78</ele>
        <time>2024-11-24T11:04:59.000Z</time>
      </trkpt>
      <trkpt lat="48.79951" lon="2.46672">
        <ele>29.9</ele>
        <time>2024-11-24T11:05:04.000Z</time>
      </trkpt>
      <trkpt lat="48.7995" lon="2.46665">
        <ele>30.21</ele>
        <time>2024-11-24T11:05:08.000Z</time>
      </trkpt>
      <trkpt lat="48.79949" lon="2.46658">
        <ele>30.43</ele>
        <time>2024-11-24T11:05:13.000Z</time>
      </trkpt>
      <trkpt lat="48.79948" lon="2.46652">
        <ele>29.98</ele>
        <time>2024-11-24T11:05:20.000Z</time>
      </trkpt>
      <trkpt lat="48.79942" lon="2.46653">
        <ele>29.3</ele>
        <time>2024-11-24T11:05:41.000Z</time>
      </trkpt>
      <trkpt lat="48.79937" lon="2.46655">
        <ele>29.81</ele>
        <time>2024-11-24T11:05:45.000Z</time>
      </trkpt>
      <trkpt lat="48.79932" lon="2.46655">
        <ele>28.56</ele>
        <time>2024-11-24T11:05:49.000Z</time>
      </trkpt>
      <trkpt lat="48.79928" lon="2.46654">
        <ele>27.29</ele>
        <time>2024-11-24T11:05:53.000Z</time>
      </trkpt>
      <trkpt lat="48.79924" lon="2.46659">
        <ele>25.41</ele>
        <time>2024-11-24T11:05:57.000Z</time>
      </trkpt>
      <trkpt lat="48.79926" lon="2.46666">
        <ele>25.07</ele>
        <time>2024-11-24T11:06:02.000Z</time>
      </trkpt>
      <trkpt lat="48.79929" lon="2.46673">
        <ele>25.26</ele>
        <time>2024-11-24T11:06:07.000Z</time>
      </trkpt>
      <trkpt lat="48.79931" lon="2.4668">
        <ele>24.12</ele>
        <time>2024-11-24T11:06:11.000Z</time>
      </trkpt>
      <trkpt lat="48.79932" lon="2.46689">
        <ele>24.21</ele>
        <time>2024-11-24T11:06:15.000Z</time>
      </trkpt>
      <trkpt lat="48.79932" lon="2.46696">
        <ele>23.86</ele>
        <time>2024-11-24T11:06:19.000Z</time>
      </trkpt>
      <trkpt lat="48.79933" lon="2.46703">
        <ele>22.89</ele>
        <time>2024-11-24T11:06:24.000Z</time>
      </trkpt>
      <trkpt lat="48.79931" lon="2.46705">
        <ele>30.1</ele>
        <time>2024-11-24T11:07:01.000Z</time>
      </trkpt>
      <trkpt lat="48.79926" lon="2.46708">
        <ele>30.76</ele>
        <time>2024-11-24T11:07:06.000Z</time>
      </trkpt>
      <trkpt lat="48.79921" lon="2.46708">
        <ele>30.59</ele>
        <time>2024-11-24T11:07:14.000Z</time>
      </trkpt>
      <trkpt lat="48.79916" lon="2.46709">
        <ele>29.75</ele>
        <time>2024-11-24T11:07:20.000Z</time>
      </trkpt>
      <trkpt lat="48.79912" lon="2.46708">
        <ele>29.71</ele>
        <time>2024-11-24T11:07:26.000Z</time>
      </trkpt>
      <trkpt lat="48.79907" lon="2.46708">
        <ele>30.27</ele>
        <time>2024-11-24T11:07:32.000Z</time>
      </trkpt>
      <trkpt lat="48.79898" lon="2.46719">
        <ele>32.64</ele>
        <time>2024-11-24T11:07:41.000Z</time>
      </trkpt>
      <trkpt lat="48.79893" lon="2.4672">
        <ele>33.33</ele>
        <time>2024-11-24T11:07:47.000Z</time>
      </trkpt>
      <trkpt lat="48.79889" lon="2.46716">
        <ele>33.59</ele>
        <time>2024-11-24T11:08:00.000Z</time>
      </trkpt>
      <trkpt lat="48.79884" lon="2.46715">
        <ele>34.74</ele>
        <time>2024-11-24T11:08:03.000Z</time>
      </trkpt>
      <trkpt lat="48.79879" lon="2.46715">
        <ele>34.6</ele>
        <time>2024-11-24T11:08:06.000Z</time>
      </trkpt>
      <trkpt lat="48.79875" lon="2.46713">
        <ele>34.14</ele>
        <time>2024-11-24T11:08:20.000Z</time>
      </trkpt>
      <trkpt lat="48.7987" lon="2.46714">
        <ele>33.51</ele>
        <time>2024-11-24T11:08:25.000Z</time>
      </trkpt>
      <trkpt lat="48.79866" lon="2.46718">
        <ele>32.7</ele>
        <time>2024-11-24T11:08:30.000Z</time>
      </trkpt>
      <trkpt lat="48.79861" lon="2.46718">
        <ele>33.7</ele>
        <time>2024-11-24T11:08:36.000Z</time>
      </trkpt>
      <trkpt lat="48.79857" lon="2.46721">
        <ele>33.27</ele>
        <time>2024-11-24T11:08:40.000Z</time>
      </trkpt>
      <trkpt lat="48.79852" lon="2.46725">
        <ele>30.83</ele>
        <time>2024-11-24T11:08:53.000Z</time>
      </trkpt>
      <trkpt lat="48.79847" lon="2.46726">
        <ele>30.09</ele>
        <time>2024-11-24T11:08:58.000Z</time>
      </trkpt>
      <trkpt lat="48.79842" lon="2.46728">
        <ele>29.18</ele>
        <time>2024-11-24T11:09:10.000Z</time>
      </trkpt>
      <trkpt lat="48.79837" lon="2.4673">
        <ele>29.87</ele>
        <time>2024-11-24T11:09:16.000Z</time>
      </trkpt>
      <trkpt lat="48.79833" lon="2.46734">
        <ele>30.4</ele>
        <time>2024-11-24T11:09:25.000Z</time>
      </trkpt>
      <trkpt lat="48.79828" lon="2.46736">
        <ele>31.74</ele>
        <time>2024-11-24T11:09:30.000Z</time>
      </trkpt>
      <trkpt lat="48.79822" lon="2.46738">
        <ele>33.14</ele>
        <time>2024-11-24T11:09:35.000Z</time>
      </trkpt>
      <trkpt lat="48.79818" lon="2.46741">
        <ele>34.25</ele>
        <time>2024-11-24T11:09:40.000Z</time>
      </trkpt>
      <trkpt lat="48.79813" lon="2.46745">
        <ele>34.41</ele>
        <time>2024-11-24T11:09:45.000Z</time>
      </trkpt>
      <trkpt lat="48.7981" lon="2.46752">
        <ele>34.63</ele>
        <time>2024-11-24T11:09:52.000Z</time>
      </trkpt>
      <trkpt lat="48.79802" lon="2.46753">
        <ele>34.1</ele>
        <time>2024-11-24T11:10:09.000Z</time>
      </trkpt>
      <trkpt lat="48.79792" lon="2.46763">
        <ele>33.62</ele>
        <time>2024-11-24T11:10:22.000Z</time>
      </trkpt>
      <trkpt lat="48.79785" lon="2.46767">
        <ele>32.42</ele>
        <time>2024-11-24T11:10:30.000Z</time>
      </trkpt>
      <trkpt lat="48.7978" lon="2.46769">
        <ele>31.76</ele>
        <time>2024-11-24T11:10:35.000Z</time>
      </trkpt>
      <trkpt lat="48.79775" lon="2.46772">
        <ele>32.19</ele>
        <time>2024-11-24T11:10:41.000Z</time>
      </trkpt>
      <trkpt lat="48.79772" lon="2.46778">
        <ele>32.38</ele>
        <time>2024-11-24T11:10:44.000Z</time>
      </trkpt>
      <trkpt lat="48.79767" lon="2.46783">
        <ele>32.66</ele>
        <time>2024-11-24T11:10:48.000Z</time>
      </trkpt>
      <trkpt lat="48.79762" lon="2.46785">
        <ele>33.55</ele>
        <time>2024-11-24T11:10:54.000Z</time>
      </trkpt>
      <trkpt lat="48.79758" lon="2.4679">
        <ele>34.14</ele>
        <time>2024-11-24T11:10:57.000Z</time>
      </trkpt>
      <trkpt lat="48.79754" lon="2.46797">
        <ele>34.51</ele>
        <time>2024-11-24T11:11:01.000Z</time>
      </trkpt>
      <trkpt lat="48.79749" lon="2.468">
        <ele>35.38</ele>
        <time>2024-11-24T11:11:04.000Z</time>
      </trkpt>
      <trkpt lat="48.79745" lon="2.46803">
        <ele>35.82</ele>
        <time>2024-11-24T11:11:08.000Z</time>
      </trkpt>
      <trkpt lat="48.7974" lon="2.46806">
        <ele>37.19</ele>
        <time>2024-11-24T11:11:15.000Z</time>
      </trkpt>
      <trkpt lat="48.79735" lon="2.46808">
        <ele>36.1</ele>
        <time>2024-11-24T11:11:19.000Z</time>
      </trkpt>
      <trkpt lat="48.7973" lon="2.46811">
        <ele>36.4</ele>
        <time>2024-11-24T11:11:26.000Z</time>
      </trkpt>
      <trkpt lat="48.79726" lon="2.46814">
        <ele>35.77</ele>
        <time>2024-11-24T11:11:31.000Z</time>
      </trkpt>
      <trkpt lat="48.79722" lon="2.46818">
        <ele>34.54</ele>
        <time>2024-11-24T11:11:35.000Z</time>
      </trkpt>
      <trkpt lat="48.79717" lon="2.46822">
        <ele>33.33</ele>
        <time>2024-11-24T11:11:42.000Z</time>
      </trkpt>
      <trkpt lat="48.79711" lon="2.46827">
        <ele>29.87</ele>
        <time>2024-11-24T11:11:45.000Z</time>
      </trkpt>
      <trkpt lat="48.79707" lon="2.46828">
        <ele>28.72</ele>
        <time>2024-11-24T11:11:49.000Z</time>
      </trkpt>
      <trkpt lat="48.79702" lon="2.46827">
        <ele>27.23</ele>
        <time>2024-11-24T11:11:56.000Z</time>
      </trkpt>
      <trkpt lat="48.79697" lon="2.46827">
        <ele>26.76</ele>
        <time>2024-11-24T11:12:01.000Z</time>
      </trkpt>
      <trkpt lat="48.79692" lon="2.46829">
        <ele>27.4</ele>
        <time>2024-11-24T11:12:03.000Z</time>
      </trkpt>
      <trkpt lat="48.79688" lon="2.46827">
        <ele>26.74</ele>
        <time>2024-11-24T11:12:09.000Z</time>
      </trkpt>
      <trkpt lat="48.79683" lon="2.46825">
        <ele>27.51</ele>
        <time>2024-11-24T11:12:15.000Z</time>
      </trkpt>
      <trkpt lat="48.79679" lon="2.46823">
        <ele>28.53</ele>
        <time>2024-11-24T11:12:21.000Z</time>
      </trkpt>
      <trkpt lat="48.79674" lon="2.46826">
        <ele>26.13</ele>
        <time>2024-11-24T11:12:24.000Z</time>
      </trkpt>
      <trkpt lat="48.7967" lon="2.46821">
        <ele>26.22</ele>
        <time>2024-11-24T11:12:33.000Z</time>
      </trkpt>
      <trkpt lat="48.79666" lon="2.46824">
        <ele>25.81</ele>
        <time>2024-11-24T11:12:35.000Z</time>
      </trkpt>
      <trkpt lat="48.79661" lon="2.46825">
        <ele>25.4</ele>
        <time>2024-11-24T11:12:39.000Z</time>
      </trkpt>
      <trkpt lat="48.79654" lon="2.46828">
        <ele>24.49</ele>
        <time>2024-11-24T11:12:45.000Z</time>
      </trkpt>
      <trkpt lat="48.79649" lon="2.46826">
        <ele>24.15</ele>
        <time>2024-11-24T11:12:49.000Z</time>
      </trkpt>
      <trkpt lat="48.79644" lon="2.46824">
        <ele>24.44</ele>
        <time>2024-11-24T11:12:54.000Z</time>
      </trkpt>
      <trkpt lat="48.79639" lon="2.46823">
        <ele>25.58</ele>
        <time>2024-11-24T11:12:59.000Z</time>
      </trkpt>
      <trkpt lat="48.79635" lon="2.46821">
        <ele>28.47</ele>
        <time>2024-11-24T11:13:04.000Z</time>
      </trkpt>
      <trkpt lat="48.79629" lon="2.46819">
        <ele>30.53</ele>
        <time>2024-11-24T11:13:09.000Z</time>
      </trkpt>
      <trkpt lat="48.79626" lon="2.46814">
        <ele>32.84</ele>
        <time>2024-11-24T11:13:15.000Z</time>
      </trkpt>
      <trkpt lat="48.79621" lon="2.46815">
        <ele>33.92</ele>
        <time>2024-11-24T11:13:34.000Z</time>
      </trkpt>
      <trkpt lat="48.79616" lon="2.46814">
        <ele>33.27</ele>
        <time>2024-11-24T11:13:49.000Z</time>
      </trkpt>
      <trkpt lat="48.79611" lon="2.46815">
        <ele>35.89</ele>
        <time>2024-11-24T11:14:02.000Z</time>
      </trkpt>
      <trkpt lat="48.79606" lon="2.46818">
        <ele>36.35</ele>
        <time>2024-11-24T11:14:09.000Z</time>
      </trkpt>
      <trkpt lat="48.79602" lon="2.4682">
        <ele>34.24</ele>
        <time>2024-11-24T11:14:11.000Z</time>
      </trkpt>
      <trkpt lat="48.79597" lon="2.46822">
        <ele>32.07</ele>
        <time>2024-11-24T11:14:13.000Z</time>
      </trkpt>
      <trkpt lat="48.79592" lon="2.46825">
        <ele>30.92</ele>
        <time>2024-11-24T11:14:22.000Z</time>
      </trkpt>
      <trkpt lat="48.79586" lon="2.46828">
        <ele>31.04</ele>
        <time>2024-11-24T11:14:29.000Z</time>
      </trkpt>
      <trkpt lat="48.79582" lon="2.4683">
        <ele>31.94</ele>
        <time>2024-11-24T11:14:35.000Z</time>
      </trkpt>
      <trkpt lat="48.79577" lon="2.46833">
        <ele>30.63</ele>
        <time>2024-11-24T11:14:37.000Z</time>
      </trkpt>
      <trkpt lat="48.79577" lon="2.46842">
        <ele>28.53</ele>
        <time>2024-11-24T11:14:39.000Z</time>
      </trkpt>
      <trkpt lat="48.79575" lon="2.46849">
        <ele>28.4</ele>
        <time>2024-11-24T11:14:44.000Z</time>
      </trkpt>
      <trkpt lat="48.79575" lon="2.46857">
        <ele>28.76</ele>
        <time>2024-11-24T11:14:49.000Z</time>
      </trkpt>
      <trkpt lat="48.79578" lon="2.46862">
        <ele>29.86</ele>
        <time>2024-11-24T11:14:55.000Z</time>
      </trkpt>
      <trkpt lat="48.79577" lon="2.46869">
        <ele>30.36</ele>
        <time>2024-11-24T11:15:28.000Z</time>
      </trkpt>
      <trkpt lat="48.79577" lon="2.46877">
        <ele>32.41</ele>
        <time>2024-11-24T11:15:50.000Z</time>
      </trkpt>
      <trkpt lat="48.79574" lon="2.46883">
        <ele>32.77</ele>
        <time>2024-11-24T11:15:56.000Z</time>
      </trkpt>
      <trkpt lat="48.7957" lon="2.46887">
        <ele>33.32</ele>
        <time>2024-11-24T11:16:02.000Z</time>
      </trkpt>
      <trkpt lat="48.79566" lon="2.46891">
        <ele>33.57</ele>
        <time>2024-11-24T11:16:07.000Z</time>
      </trkpt>
      <trkpt lat="48.79566" lon="2.46899">
        <ele>34.1</ele>
        <time>2024-11-24T11:16:12.000Z</time>
      </trkpt>
      <trkpt lat="48.79566" lon="2.46906">
        <ele>36.27</ele>
        <time>2024-11-24T11:16:17.000Z</time>
      </trkpt>
      <trkpt lat="48.79567" lon="2.46913">
        <ele>36.65</ele>
        <time>2024-11-24T11:16:21.000Z</time>
      </trkpt>
      <trkpt lat="48.79567" lon="2.4692">
        <ele>37.52</ele>
        <time>2024-11-24T11:16:25.000Z</time>
      </trkpt>
      <trkpt lat="48.79568" lon="2.46927">
        <ele>37.18</ele>
        <time>2024-11-24T11:16:33.000Z</time>
      </trkpt>
      <trkpt lat="48.79568" lon="2.46935">
        <ele>37.18</ele>
        <time>2024-11-24T11:16:40.000Z</time>
      </trkpt>
      <trkpt lat="48.79569" lon="2.46942">
        <ele>37.69</ele>
        <time>2024-11-24T11:16:45.000Z</time>
      </trkpt>
      <trkpt lat="48.79569" lon="2.4695">
        <ele>37.78</ele>
        <time>2024-11-24T11:16:49.000Z</time>
      </trkpt>
      <trkpt lat="48.7957" lon="2.46958">
        <ele>36.49</ele>
        <time>2024-11-24T11:16:55.000Z</time>
      </trkpt>
      <trkpt lat="48.7957" lon="2.46966">
        <ele>35.3</ele>
        <time>2024-11-24T11:16:59.000Z</time>
      </trkpt>
      <trkpt lat="48.79571" lon="2.46973">
        <ele>34.99</ele>
        <time>2024-11-24T11:17:04.000Z</time>
      </trkpt>
      <trkpt lat="48.79571" lon="2.4698">
        <ele>35.93</ele>
        <time>2024-11-24T11:17:13.000Z</time>
      </trkpt>
      <trkpt lat="48.79575" lon="2.46985">
        <ele>35.47</ele>
        <time>2024-11-24T11:17:19.000Z</time>
      </trkpt>
      <trkpt lat="48.79575" lon="2.46993">
        <ele>35.32</ele>
        <time>2024-11-24T11:17:23.000Z</time>
      </trkpt>
      <trkpt lat="48.79571" lon="2.46998">
        <ele>35.49</ele>
        <time>2024-11-24T11:17:27.000Z</time>
      </trkpt>
      <trkpt lat="48.79567" lon="2.47001">
        <ele>36.85</ele>
        <time>2024-11-24T11:17:33.000Z</time>
      </trkpt>
      <trkpt lat="48.79563" lon="2.47003">
        <ele>36.86</ele>
        <time>2024-11-24T11:17:39.000Z</time>
      </trkpt>
      <trkpt lat="48.79557" lon="2.47005">
        <ele>37.26</ele>
        <time>2024-11-24T11:17:47.000Z</time>
      </trkpt>
      <trkpt lat="48.79553" lon="2.47007">
        <ele>38</ele>
        <time>2024-11-24T11:17:51.000Z</time>
      </trkpt>
      <trkpt lat="48.79548" lon="2.47009">
        <ele>39.15</ele>
        <time>2024-11-24T11:17:56.000Z</time>
      </trkpt>
      <trkpt lat="48.79544" lon="2.47011">
        <ele>40.35</ele>
        <time>2024-11-24T11:18:01.000Z</time>
      </trkpt>
      <trkpt lat="48.79539" lon="2.47013">
        <ele>39.87</ele>
        <time>2024-11-24T11:18:07.000Z</time>
      </trkpt>
      <trkpt lat="48.79534" lon="2.47015">
        <ele>40.01</ele>
        <time>2024-11-24T11:18:13.000Z</time>
      </trkpt>
      <trkpt lat="48.79529" lon="2.47016">
        <ele>40.84</ele>
        <time>2024-11-24T11:18:18.000Z</time>
      </trkpt>
      <trkpt lat="48.79525" lon="2.47019">
        <ele>39.57</ele>
        <time>2024-11-24T11:18:26.000Z</time>
      </trkpt>
      <trkpt lat="48.7952" lon="2.4702">
        <ele>40.13</ele>
        <time>2024-11-24T11:18:30.000Z</time>
      </trkpt>
      <trkpt lat="48.79515" lon="2.47023">
        <ele>40.43</ele>
        <time>2024-11-24T11:18:34.000Z</time>
      </trkpt>
      <trkpt lat="48.7951" lon="2.47029">
        <ele>41.6</ele>
        <time>2024-11-24T11:18:40.000Z</time>
      </trkpt>
      <trkpt lat="48.79508" lon="2.47036">
        <ele>41.37</ele>
        <time>2024-11-24T11:18:45.000Z</time>
      </trkpt>
      <trkpt lat="48.79505" lon="2.47041">
        <ele>39.51</ele>
        <time>2024-11-24T11:18:51.000Z</time>
      </trkpt>
      <trkpt lat="48.79503" lon="2.47047">
        <ele>39.3</ele>
        <time>2024-11-24T11:18:57.000Z</time>
      </trkpt>
      <trkpt lat="48.79502" lon="2.47052">
        <ele>32.48</ele>
        <time>2024-11-24T11:20:10.000Z</time>
      </trkpt>
      <trkpt lat="48.79497" lon="2.47056">
        <ele>33.49</ele>
        <time>2024-11-24T11:20:14.000Z</time>
      </trkpt>
      <trkpt lat="48.79491" lon="2.47059">
        <ele>34.34</ele>
        <time>2024-11-24T11:20:17.000Z</time>
      </trkpt>
      <trkpt lat="48.79486" lon="2.4706">
        <ele>35.64</ele>
        <time>2024-11-24T11:20:20.000Z</time>
      </trkpt>
      <trkpt lat="48.7948" lon="2.47062">
        <ele>37.65</ele>
        <time>2024-11-24T11:20:26.000Z</time>
      </trkpt>
      <trkpt lat="48.79476" lon="2.4706">
        <ele>39.12</ele>
        <time>2024-11-24T11:20:36.000Z</time>
      </trkpt>
      <trkpt lat="48.79471" lon="2.47061">
        <ele>39.3</ele>
        <time>2024-11-24T11:20:44.000Z</time>
      </trkpt>
      <trkpt lat="48.79467" lon="2.47064">
        <ele>39.34</ele>
        <time>2024-11-24T11:20:49.000Z</time>
      </trkpt>
      <trkpt lat="48.79462" lon="2.47065">
        <ele>39.63</ele>
        <time>2024-11-24T11:20:55.000Z</time>
      </trkpt>
      <trkpt lat="48.79457" lon="2.47066">
        <ele>38.72</ele>
        <time>2024-11-24T11:20:59.000Z</time>
      </trkpt>
      <trkpt lat="48.79451" lon="2.47066">
        <ele>37.86</ele>
        <time>2024-11-24T11:21:03.000Z</time>
      </trkpt>
      <trkpt lat="48.79447" lon="2.47061">
        <ele>34.45</ele>
        <time>2024-11-24T11:21:14.000Z</time>
      </trkpt>
      <trkpt lat="48.79442" lon="2.47058">
        <ele>33.32</ele>
        <time>2024-11-24T11:21:19.000Z</time>
      </trkpt>
      <trkpt lat="48.79438" lon="2.47058">
        <ele>32.17</ele>
        <time>2024-11-24T11:21:22.000Z</time>
      </trkpt>
      <trkpt lat="48.79433" lon="2.47056">
        <ele>29.22</ele>
        <time>2024-11-24T11:21:28.000Z</time>
      </trkpt>
      <trkpt lat="48.79428" lon="2.47056">
        <ele>27.94</ele>
        <time>2024-11-24T11:21:34.000Z</time>
      </trkpt>
      <trkpt lat="48.79425" lon="2.47061">
        <ele>26.1</ele>
        <time>2024-11-24T11:21:47.000Z</time>
      </trkpt>
      <trkpt lat="48.79421" lon="2.47059">
        <ele>25.79</ele>
        <time>2024-11-24T11:21:57.000Z</time>
      </trkpt>
      <trkpt lat="48.79416" lon="2.47053">
        <ele>25.38</ele>
        <time>2024-11-24T11:22:02.000Z</time>
      </trkpt>
      <trkpt lat="48.79413" lon="2.47047">
        <ele>24.63</ele>
        <time>2024-11-24T11:22:07.000Z</time>
      </trkpt>
      <trkpt lat="48.79409" lon="2.47042">
        <ele>25.31</ele>
        <time>2024-11-24T11:22:11.000Z</time>
      </trkpt>
      <trkpt lat="48.79404" lon="2.47039">
        <ele>25.96</ele>
        <time>2024-11-24T11:22:17.000Z</time>
      </trkpt>
      <trkpt lat="48.794" lon="2.47039">
        <ele>27.9</ele>
        <time>2024-11-24T11:22:26.000Z</time>
      </trkpt>
      <trkpt lat="48.79395" lon="2.47036">
        <ele>32.13</ele>
        <time>2024-11-24T11:22:53.000Z</time>
      </trkpt>
      <trkpt lat="48.79391" lon="2.47033">
        <ele>32.41</ele>
        <time>2024-11-24T11:23:03.000Z</time>
      </trkpt>
      <trkpt lat="48.79386" lon="2.47033">
        <ele>35.64</ele>
        <time>2024-11-24T11:23:17.000Z</time>
      </trkpt>
      <trkpt lat="48.79384" lon="2.47025">
        <ele>38</ele>
        <time>2024-11-24T11:23:51.000Z</time>
      </trkpt>
      <trkpt lat="48.79379" lon="2.47024">
        <ele>36.9</ele>
        <time>2024-11-24T11:23:59.000Z</time>
      </trkpt>
      <trkpt lat="48.79375" lon="2.47023">
        <ele>35.72</ele>
        <time>2024-11-24T11:24:03.000Z</time>
      </trkpt>
      <trkpt lat="48.7937" lon="2.47022">
        <ele>34.83</ele>
        <time>2024-11-24T11:24:07.000Z</time>
      </trkpt>
      <trkpt lat="48.79364" lon="2.47021">
        <ele>35.53</ele>
        <time>2024-11-24T11:24:11.000Z</time>
      </trkpt>
      <trkpt lat="48.79359" lon="2.4702">
        <ele>36.08</ele>
        <time>2024-11-24T11:24:16.000Z</time>
      </trkpt>
      <trkpt lat="48.79355" lon="2.47019">
        <ele>34.77</ele>
        <time>2024-11-24T11:24:21.000Z</time>
      </trkpt>
      <trkpt lat="48.7935" lon="2.47018">
        <ele>33.88</ele>
        <time>2024-11-24T11:24:25.000Z</time>
      </trkpt>
      <trkpt lat="48.79345" lon="2.47017">
        <ele>32.3</ele>
        <time>2024-11-24T11:24:29.000Z</time>
      </trkpt>
      <trkpt lat="48.79343" lon="2.4703">
        <ele>34.46</ele>
        <time>2024-11-24T11:24:45.000Z</time>
      </trkpt>
      <trkpt lat="48.79341" lon="2.47037">
        <ele>35.57</ele>
        <time>2024-11-24T11:24:51.000Z</time>
      </trkpt>
      <trkpt lat="48.79341" lon="2.47045">
        <ele>38.79</ele>
        <time>2024-11-24T11:25:00.000Z</time>
      </trkpt>
      <trkpt lat="48.79341" lon="2.47053">
        <ele>38.69</ele>
        <time>2024-11-24T11:25:05.000Z</time>
      </trkpt>
      <trkpt lat="48.79341" lon="2.4706">
        <ele>37.9</ele>
        <time>2024-11-24T11:25:11.000Z</time>
      </trkpt>
      <trkpt lat="48.79344" lon="2.47067">
        <ele>37.37</ele>
        <time>2024-11-24T11:25:18.000Z</time>
      </trkpt>
      <trkpt lat="48.79341" lon="2.47073">
        <ele>36.54</ele>
        <time>2024-11-24T11:25:28.000Z</time>
      </trkpt>
      <trkpt lat="48.79336" lon="2.47078">
        <ele>35.8</ele>
        <time>2024-11-24T11:25:33.000Z</time>
      </trkpt>
      <trkpt lat="48.79331" lon="2.47079">
        <ele>34.41</ele>
        <time>2024-11-24T11:25:39.000Z</time>
      </trkpt>
      <trkpt lat="48.79326" lon="2.47078">
        <ele>33.79</ele>
        <time>2024-11-24T11:25:44.000Z</time>
      </trkpt>
      <trkpt lat="48.79321" lon="2.47079">
        <ele>33.35</ele>
        <time>2024-11-24T11:25:49.000Z</time>
      </trkpt>
      <trkpt lat="48.79316" lon="2.47079">
        <ele>30.94</ele>
        <time>2024-11-24T11:25:55.000Z</time>
      </trkpt>
      <trkpt lat="48.79311" lon="2.47079">
        <ele>30.49</ele>
        <time>2024-11-24T11:26:04.000Z</time>
      </trkpt>
      <trkpt lat="48.79306" lon="2.47079">
        <ele>29.09</ele>
        <time>2024-11-24T11:26:10.000Z</time>
      </trkpt>
      <trkpt lat="48.79301" lon="2.4708">
        <ele>28.99</ele>
        <time>2024-11-24T11:26:14.000Z</time>
      </trkpt>
      <trkpt lat="48.79296" lon="2.4708">
        <ele>28.59</ele>
        <time>2024-11-24T11:26:19.000Z</time>
      </trkpt>
      <trkpt lat="48.79291" lon="2.4708">
        <ele>27.06</ele>
        <time>2024-11-24T11:26:25.000Z</time>
      </trkpt>
      <trkpt lat="48.79286" lon="2.4708">
        <ele>28.1</ele>
        <time>2024-11-24T11:26:30.000Z</time>
      </trkpt>
      <trkpt lat="48.79281" lon="2.47081">
        <ele>29.96</ele>
        <time>2024-11-24T11:26:34.000Z</time>
      </trkpt>
      <trkpt lat="48.79276" lon="2.47081">
        <ele>32.49</ele>
        <time>2024-11-24T11:26:37.000Z</time>
      </trkpt>
      <trkpt lat="48.79272" lon="2.47081">
        <ele>31.77</ele>
        <time>2024-11-24T11:26:42.000Z</time>
      </trkpt>
      <trkpt lat="48.79266" lon="2.47081">
        <ele>32.32</ele>
        <time>2024-11-24T11:26:46.000Z</time>
      </trkpt>
      <trkpt lat="48.79261" lon="2.47082">
        <ele>33.07</ele>
        <time>2024-11-24T11:26:52.000Z</time>
      </trkpt>
      <trkpt lat="48.79257" lon="2.47082">
        <ele>33.13</ele>
        <time>2024-11-24T11:26:56.000Z</time>
      </trkpt>
      <trkpt lat="48.79252" lon="2.47082">
        <ele>32.35</ele>
        <time>2024-11-24T11:27:00.000Z</time>
      </trkpt>
      <trkpt lat="48.79248" lon="2.47082">
        <ele>30.64</ele>
        <time>2024-11-24T11:27:05.000Z</time>
      </trkpt>
      <trkpt lat="48.79242" lon="2.47083">
        <ele>31.45</ele>
        <time>2024-11-24T11:27:10.000Z</time>
      </trkpt>
      <trkpt lat="48.79238" lon="2.47083">
        <ele>32.81</ele>
        <time>2024-11-24T11:27:14.000Z</time>
      </trkpt>
      <trkpt lat="48.79233" lon="2.47083">
        <ele>32.89</ele>
        <time>2024-11-24T11:27:18.000Z</time>
      </trkpt>
      <trkpt lat="48.79227" lon="2.47083">
        <ele>30.19</ele>
        <time>2024-11-24T11:27:25.000Z</time>
      </trkpt>
      <trkpt lat="48.79223" lon="2.47084">
        <ele>29.08</ele>
        <time>2024-11-24T11:27:30.000Z</time>
      </trkpt>
      <trkpt lat="48.79218" lon="2.47084">
        <ele>29.6</ele>
        <time>2024-11-24T11:27:36.000Z</time>
      </trkpt>
      <trkpt lat="48.79213" lon="2.47084">
        <ele>28.56</ele>
        <time>2024-11-24T11:27:40.000Z</time>
      </trkpt>
      <trkpt lat="48.79209" lon="2.47084">
        <ele>27.84</ele>
        <time>2024-11-24T11:27:46.000Z</time>
      </trkpt>
      <trkpt lat="48.79204" lon="2.47085">
        <ele>27.82</ele>
        <time>2024-11-24T11:27:50.000Z</time>
      </trkpt>
      <trkpt lat="48.79199" lon="2.47086">
        <ele>29.12</ele>
        <time>2024-11-24T11:27:57.000Z</time>
      </trkpt>
      <trkpt lat="48.79197" lon="2.4708">
        <ele>29.71</ele>
        <time>2024-11-24T11:28:07.000Z</time>
      </trkpt>
      <trkpt lat="48.79196" lon="2.47071">
        <ele>28.97</ele>
        <time>2024-11-24T11:28:11.000Z</time>
      </trkpt>
      <trkpt lat="48.79195" lon="2.47064">
        <ele>28.2</ele>
        <time>2024-11-24T11:28:15.000Z</time>
      </trkpt>
      <trkpt lat="48.79195" lon="2.47057">
        <ele>27.06</ele>
        <time>2024-11-24T11:28:19.000Z</time>
      </trkpt>
      <trkpt lat="48.79196" lon="2.47049">
        <ele>27.36</ele>
        <time>2024-11-24T11:28:23.000Z</time>
      </trkpt>
      <trkpt lat="48.79196" lon="2.47042">
        <ele>28.07</ele>
        <time>2024-11-24T11:28:28.000Z</time>
      </trkpt>
      <trkpt lat="48.79194" lon="2.47036">
        <ele>28.57</ele>
        <time>2024-11-24T11:28:33.000Z</time>
      </trkpt>
      <trkpt lat="48.79193" lon="2.47028">
        <ele>29.25</ele>
        <time>2024-11-24T11:28:39.000Z</time>
      </trkpt>
      <trkpt lat="48.79192" lon="2.4702">
        <ele>29.26</ele>
        <time>2024-11-24T11:28:44.000Z</time>
      </trkpt>
      <trkpt lat="48.7919" lon="2.47013">
        <ele>28.89</ele>
        <time>2024-11-24T11:28:50.000Z</time>
      </trkpt>
      <trkpt lat="48.7919" lon="2.47006">
        <ele>28.98</ele>
        <time>2024-11-24T11:28:56.000Z</time>
      </trkpt>
      <trkpt lat="48.79191" lon="2.46998">
        <ele>29.84</ele>
        <time>2024-11-24T11:29:01.000Z</time>
      </trkpt>
      <trkpt lat="48.79191" lon="2.4699">
        <ele>31.53</ele>
        <time>2024-11-24T11:29:07.000Z</time>
      </trkpt>
      <trkpt lat="48.7919" lon="2.46983">
        <ele>31.21</ele>
        <time>2024-11-24T11:29:12.000Z</time>
      </trkpt>
      <trkpt lat="48.7919" lon="2.46976">
        <ele>32.41</ele>
        <time>2024-11-24T11:29:16.000Z</time>
      </trkpt>
      <trkpt lat="48.79189" lon="2.46968">
        <ele>34.3</ele>
        <time>2024-11-24T11:29:22.000Z</time>
      </trkpt>
      <trkpt lat="48.79189" lon="2.46961">
        <ele>35.42</ele>
        <time>2024-11-24T11:29:28.000Z</time>
      </trkpt>
      <trkpt lat="48.79189" lon="2.46954">
        <ele>37.59</ele>
        <time>2024-11-24T11:29:36.000Z</time>
      </trkpt>
      <trkpt lat="48.79189" lon="2.46945">
        <ele>38.23</ele>
        <time>2024-11-24T11:29:42.000Z</time>
      </trkpt>
      <trkpt lat="48.79189" lon="2.46937">
        <ele>38.81</ele>
        <time>2024-11-24T11:29:47.000Z</time>
      </trkpt>
      <trkpt lat="48.7919" lon="2.4693">
        <ele>39.48</ele>
        <time>2024-11-24T11:29:52.000Z</time>
      </trkpt>
      <trkpt lat="48.79191" lon="2.46923">
        <ele>40.29</ele>
        <time>2024-11-24T11:29:57.000Z</time>
      </trkpt>
      <trkpt lat="48.79192" lon="2.46917">
        <ele>40.84</ele>
        <time>2024-11-24T11:30:03.000Z</time>
      </trkpt>
      <trkpt lat="48.79187" lon="2.46916">
        <ele>39.66</ele>
        <time>2024-11-24T11:30:07.000Z</time>
      </trkpt>
      <trkpt lat="48.79183" lon="2.46915">
        <ele>39.25</ele>
        <time>2024-11-24T11:30:13.000Z</time>
      </trkpt>
      <trkpt lat="48.79181" lon="2.46921">
        <ele>38.54</ele>
        <time>2024-11-24T11:30:23.000Z</time>
      </trkpt>
      <trkpt lat="48.79178" lon="2.46927">
        <ele>36.26</ele>
        <time>2024-11-24T11:30:30.000Z</time>
      </trkpt>
      <trkpt lat="48.79174" lon="2.46931">
        <ele>36.67</ele>
        <time>2024-11-24T11:30:35.000Z</time>
      </trkpt>
      <trkpt lat="48.79172" lon="2.46939">
        <ele>35.94</ele>
        <time>2024-11-24T11:30:43.000Z</time>
      </trkpt>
      <trkpt lat="48.7917" lon="2.46945">
        <ele>33.67</ele>
        <time>2024-11-24T11:30:48.000Z</time>
      </trkpt>
      <trkpt lat="48.79166" lon="2.4695">
        <ele>30.64</ele>
        <time>2024-11-24T11:30:58.000Z</time>
      </trkpt>
      <trkpt lat="48.79161" lon="2.46949">
        <ele>24.71</ele>
        <time>2024-11-24T11:31:34.000Z</time>
      </trkpt>
      <trkpt lat="48.79159" lon="2.46939">
        <ele>28.02</ele>
        <time>2024-11-24T11:31:36.000Z</time>
      </trkpt>
      <trkpt lat="48.79154" lon="2.4694">
        <ele>28.79</ele>
        <time>2024-11-24T11:31:42.000Z</time>
      </trkpt>
      <trkpt lat="48.79149" lon="2.46942">
        <ele>27.83</ele>
        <time>2024-11-24T11:31:46.000Z</time>
      </trkpt>
      <trkpt lat="48.79144" lon="2.46943">
        <ele>24.98</ele>
        <time>2024-11-24T11:31:58.000Z</time>
      </trkpt>
      <trkpt lat="48.79138" lon="2.46944">
        <ele>25.91</ele>
        <time>2024-11-24T11:32:06.000Z</time>
      </trkpt>
      <trkpt lat="48.79133" lon="2.46944">
        <ele>26.52</ele>
        <time>2024-11-24T11:32:11.000Z</time>
      </trkpt>
      <trkpt lat="48.79129" lon="2.46946">
        <ele>25.47</ele>
        <time>2024-11-24T11:32:17.000Z</time>
      </trkpt>
      <trkpt lat="48.79124" lon="2.46947">
        <ele>24.83</ele>
        <time>2024-11-24T11:32:21.000Z</time>
      </trkpt>
      <trkpt lat="48.79119" lon="2.4695">
        <ele>23.88</ele>
        <time>2024-11-24T11:32:25.000Z</time>
      </trkpt>
      <trkpt lat="48.79114" lon="2.46952">
        <ele>23.51</ele>
        <time>2024-11-24T11:32:30.000Z</time>
      </trkpt>
      <trkpt lat="48.7911" lon="2.46954">
        <ele>23.85</ele>
        <time>2024-11-24T11:32:35.000Z</time>
      </trkpt>
      <trkpt lat="48.79105" lon="2.46956">
        <ele>25.68</ele>
        <time>2024-11-24T11:32:40.000Z</time>
      </trkpt>
      <trkpt lat="48.791" lon="2.46958">
        <ele>26.54</ele>
        <time>2024-11-24T11:32:45.000Z</time>
      </trkpt>
      <trkpt lat="48.79096" lon="2.4696">
        <ele>29.16</ele>
        <time>2024-11-24T11:32:52.000Z</time>
      </trkpt>
      <trkpt lat="48.79091" lon="2.46962">
        <ele>29.32</ele>
        <time>2024-11-24T11:32:58.000Z</time>
      </trkpt>
      <trkpt lat="48.79086" lon="2.46964">
        <ele>29.06</ele>
        <time>2024-11-24T11:33:05.000Z</time>
      </trkpt>
      <trkpt lat="48.79082" lon="2.46966">
        <ele>29.07</ele>
        <time>2024-11-24T11:33:09.000Z</time>
      </trkpt>
      <trkpt lat="48.79076" lon="2.46968">
        <ele>29.96</ele>
        <time>2024-11-24T11:33:14.000Z</time>
      </trkpt>
      <trkpt lat="48.79072" lon="2.4697">
        <ele>31.06</ele>
        <time>2024-11-24T11:33:19.000Z</time>
      </trkpt>
      <trkpt lat="48.79067" lon="2.46972">
        <ele>33.65</ele>
        <time>2024-11-24T11:33:23.000Z</time>
      </trkpt>
      <trkpt lat="48.79063" lon="2.46975">
        <ele>34.04</ele>
        <time>2024-11-24T11:33:27.000Z</time>
      </trkpt>
      <trkpt lat="48.79058" lon="2.46978">
        <ele>34.24</ele>
        <time>2024-11-24T11:33:33.000Z</time>
      </trkpt>
      <trkpt lat="48.79053" lon="2.4698">
        <ele>36.21</ele>
        <time>2024-11-24T11:33:39.000Z</time>
      </trkpt>
      <trkpt lat="48.79048" lon="2.46983">
        <ele>38.37</ele>
        <time>2024-11-24T11:33:44.000Z</time>
      </trkpt>
      <trkpt lat="48.79043" lon="2.46987">
        <ele>37.88</ele>
        <time>2024-11-24T11:33:48.000Z</time>
      </trkpt>
      <trkpt lat="48.79038" lon="2.46989">
        <ele>35.99</ele>
        <time>2024-11-24T11:33:53.000Z</time>
      </trkpt>
      <trkpt lat="48.79033" lon="2.46992">
        <ele>34.86</ele>
        <time>2024-11-24T11:33:58.000Z</time>
      </trkpt>
      <trkpt lat="48.79028" lon="2.46995">
        <ele>34.27</ele>
        <time>2024-11-24T11:34:04.000Z</time>
      </trkpt>
      <trkpt lat="48.79024" lon="2.46997">
        <ele>32.33</ele>
        <time>2024-11-24T11:34:10.000Z</time>
      </trkpt>
      <trkpt lat="48.79019" lon="2.47">
        <ele>31.33</ele>
        <time>2024-11-24T11:34:16.000Z</time>
      </trkpt>
      <trkpt lat="48.79014" lon="2.47003">
        <ele>30.51</ele>
        <time>2024-11-24T11:34:21.000Z</time>
      </trkpt>
      <trkpt lat="48.79008" lon="2.47007">
        <ele>24.95</ele>
        <time>2024-11-24T11:34:25.000Z</time>
      </trkpt>
      <trkpt lat="48.79003" lon="2.4701">
        <ele>23.65</ele>
        <time>2024-11-24T11:34:31.000Z</time>
      </trkpt>
      <trkpt lat="48.78999" lon="2.47012">
        <ele>24.7</ele>
        <time>2024-11-24T11:34:36.000Z</time>
      </trkpt>
      <trkpt lat="48.78994" lon="2.47015">
        <ele>27.54</ele>
        <time>2024-11-24T11:34:41.000Z</time>
      </trkpt>
      <trkpt lat="48.78989" lon="2.47018">
        <ele>28.65</ele>
        <time>2024-11-24T11:34:45.000Z</time>
      </trkpt>
      <trkpt lat="48.78984" lon="2.47021">
        <ele>30.92</ele>
        <time>2024-11-24T11:34:54.000Z</time>
      </trkpt>
      <trkpt lat="48.78979" lon="2.47024">
        <ele>31.67</ele>
        <time>2024-11-24T11:35:03.000Z</time>
      </trkpt>
      <trkpt lat="48.78974" lon="2.47024">
        <ele>32.47</ele>
        <time>2024-11-24T11:35:08.000Z</time>
      </trkpt>
      <trkpt lat="48.78969" lon="2.47024">
        <ele>31.61</ele>
        <time>2024-11-24T11:35:14.000Z</time>
      </trkpt>
      <trkpt lat="48.78964" lon="2.47025">
        <ele>30.12</ele>
        <time>2024-11-24T11:35:20.000Z</time>
      </trkpt>
      <trkpt lat="48.78959" lon="2.47027">
        <ele>26.94</ele>
        <time>2024-11-24T11:35:27.000Z</time>
      </trkpt>
      <trkpt lat="48.78954" lon="2.47028">
        <ele>27.11</ele>
        <time>2024-11-24T11:35:32.000Z</time>
      </trkpt>
      <trkpt lat="48.78949" lon="2.47029">
        <ele>27.57</ele>
        <time>2024-11-24T11:35:38.000Z</time>
      </trkpt>
      <trkpt lat="48.78944" lon="2.47031">
        <ele>27.72</ele>
        <time>2024-11-24T11:35:43.000Z</time>
      </trkpt>
      <trkpt lat="48.78939" lon="2.47032">
        <ele>27.91</ele>
        <time>2024-11-24T11:35:48.000Z</time>
      </trkpt>
      <trkpt lat="48.78934" lon="2.47034">
        <ele>28.1</ele>
        <time>2024-11-24T11:35:52.000Z</time>
      </trkpt>
      <trkpt lat="48.78929" lon="2.47036">
        <ele>29.48</ele>
        <time>2024-11-24T11:35:56.000Z</time>
      </trkpt>
      <trkpt lat="48.78925" lon="2.47037">
        <ele>30.05</ele>
        <time>2024-11-24T11:36:05.000Z</time>
      </trkpt>
      <trkpt lat="48.7892" lon="2.47038">
        <ele>30.33</ele>
        <time>2024-11-24T11:36:09.000Z</time>
      </trkpt>
      <trkpt lat="48.78915" lon="2.4704">
        <ele>30.2</ele>
        <time>2024-11-24T11:36:14.000Z</time>
      </trkpt>
      <trkpt lat="48.7891" lon="2.47042">
        <ele>31.79</ele>
        <time>2024-11-24T11:36:19.000Z</time>
      </trkpt>
      <trkpt lat="48.78905" lon="2.47041">
        <ele>32.78</ele>
        <time>2024-11-24T11:36:27.000Z</time>
      </trkpt>
      <trkpt lat="48.78892" lon="2.47034">
        <ele>61.56</ele>
        <time>2024-11-24T11:37:06.000Z</time>
      </trkpt>
      <trkpt lat="48.78902" lon="2.47043">
        <ele>57.05</ele>
        <time>2024-11-24T11:37:24.000Z</time>
      </trkpt>
      <trkpt lat="48.78897" lon="2.47045">
        <ele>49.45</ele>
        <time>2024-11-24T11:37:52.000Z</time>
      </trkpt>
      <trkpt lat="48.78892" lon="2.47046">
        <ele>46.31</ele>
        <time>2024-11-24T11:37:58.000Z</time>
      </trkpt>
      <trkpt lat="48.78887" lon="2.47047">
        <ele>44.67</ele>
        <time>2024-11-24T11:38:03.000Z</time>
      </trkpt>
      <trkpt lat="48.78882" lon="2.47048">
        <ele>44.46</ele>
        <time>2024-11-24T11:38:09.000Z</time>
      </trkpt>
      <trkpt lat="48.78878" lon="2.47051">
        <ele>45</ele>
        <time>2024-11-24T11:38:19.000Z</time>
      </trkpt>
      <trkpt lat="48.78873" lon="2.47049">
        <ele>43.2</ele>
        <time>2024-11-24T11:38:27.000Z</time>
      </trkpt>
      <trkpt lat="48.78868" lon="2.4705">
        <ele>44.84</ele>
        <time>2024-11-24T11:38:32.000Z</time>
      </trkpt>
      <trkpt lat="48.78862" lon="2.47052">
        <ele>44.32</ele>
        <time>2024-11-24T11:38:38.000Z</time>
      </trkpt>
      <trkpt lat="48.78858" lon="2.47053">
        <ele>43.34</ele>
        <time>2024-11-24T11:38:43.000Z</time>
      </trkpt>
      <trkpt lat="48.78853" lon="2.47054">
        <ele>42.77</ele>
        <time>2024-11-24T11:38:49.000Z</time>
      </trkpt>
      <trkpt lat="48.78848" lon="2.47056">
        <ele>41.9</ele>
        <time>2024-11-24T11:38:56.000Z</time>
      </trkpt>
      <trkpt lat="48.78842" lon="2.47058">
        <ele>41.7</ele>
        <time>2024-11-24T11:39:02.000Z</time>
      </trkpt>
      <trkpt lat="48.78838" lon="2.47059">
        <ele>41.11</ele>
        <time>2024-11-24T11:39:06.000Z</time>
      </trkpt>
      <trkpt lat="48.78833" lon="2.47062">
        <ele>40.75</ele>
        <time>2024-11-24T11:39:10.000Z</time>
      </trkpt>
      <trkpt lat="48.78828" lon="2.47064">
        <ele>40.59</ele>
        <time>2024-11-24T11:39:13.000Z</time>
      </trkpt>
      <trkpt lat="48.78826" lon="2.4707">
        <ele>41.42</ele>
        <time>2024-11-24T11:39:17.000Z</time>
      </trkpt>
      <trkpt lat="48.78825" lon="2.47078">
        <ele>42.49</ele>
        <time>2024-11-24T11:39:23.000Z</time>
      </trkpt>
      <trkpt lat="48.78818" lon="2.47082">
        <ele>42.81</ele>
        <time>2024-11-24T11:39:28.000Z</time>
      </trkpt>
      <trkpt lat="48.78815" lon="2.47087">
        <ele>43.64</ele>
        <time>2024-11-24T11:39:31.000Z</time>
      </trkpt>
      <trkpt lat="48.78811" lon="2.47085">
        <ele>45.27</ele>
        <time>2024-11-24T11:39:38.000Z</time>
      </trkpt>
      <trkpt lat="48.78805" lon="2.47088">
        <ele>45.04</ele>
        <time>2024-11-24T11:39:42.000Z</time>
      </trkpt>
      <trkpt lat="48.78801" lon="2.47091">
        <ele>44.58</ele>
        <time>2024-11-24T11:39:48.000Z</time>
      </trkpt>
      <trkpt lat="48.78797" lon="2.47086">
        <ele>43.62</ele>
        <time>2024-11-24T11:39:53.000Z</time>
      </trkpt>
      <trkpt lat="48.78797" lon="2.47079">
        <ele>43.98</ele>
        <time>2024-11-24T11:39:57.000Z</time>
      </trkpt>
      <trkpt lat="48.78796" lon="2.47071">
        <ele>46.3</ele>
        <time>2024-11-24T11:40:02.000Z</time>
      </trkpt>
      <trkpt lat="48.78798" lon="2.47065">
        <ele>46.42</ele>
        <time>2024-11-24T11:40:06.000Z</time>
      </trkpt>
      <trkpt lat="48.78802" lon="2.4706">
        <ele>46.89</ele>
        <time>2024-11-24T11:40:17.000Z</time>
      </trkpt>
      <trkpt lat="48.78805" lon="2.47054">
        <ele>47.72</ele>
        <time>2024-11-24T11:40:24.000Z</time>
      </trkpt>
      <trkpt lat="48.78809" lon="2.47052">
        <ele>48.6</ele>
        <time>2024-11-24T11:40:31.000Z</time>
      </trkpt>
      <trkpt lat="48.78813" lon="2.47058">
        <ele>48.51</ele>
        <time>2024-11-24T11:40:36.000Z</time>
      </trkpt>
      <trkpt lat="48.78816" lon="2.47064">
        <ele>48.77</ele>
        <time>2024-11-24T11:40:40.000Z</time>
      </trkpt>
      <trkpt lat="48.78818" lon="2.47072">
        <ele>49.41</ele>
        <time>2024-11-24T11:40:45.000Z</time>
      </trkpt>
      <trkpt lat="48.7882" lon="2.47078">
        <ele>48.2</ele>
        <time>2024-11-24T11:40:51.000Z</time>
      </trkpt>
      <trkpt lat="48.78821" lon="2.47086">
        <ele>45.75</ele>
        <time>2024-11-24T11:40:57.000Z</time>
      </trkpt>
      <trkpt lat="48.78822" lon="2.47093">
        <ele>42.59</ele>
        <time>2024-11-24T11:41:10.000Z</time>
      </trkpt>
      <trkpt lat="48.78825" lon="2.47099">
        <ele>41.78</ele>
        <time>2024-11-24T11:41:15.000Z</time>
      </trkpt>
      <trkpt lat="48.78828" lon="2.47106">
        <ele>42.02</ele>
        <time>2024-11-24T11:41:21.000Z</time>
      </trkpt>
      <trkpt lat="48.78831" lon="2.47112">
        <ele>41.36</ele>
        <time>2024-11-24T11:41:28.000Z</time>
      </trkpt>
      <trkpt lat="48.78833" lon="2.47119">
        <ele>40.87</ele>
        <time>2024-11-24T11:41:35.000Z</time>
      </trkpt>
      <trkpt lat="48.78835" lon="2.47126">
        <ele>40.41</ele>
        <time>2024-11-24T11:41:41.000Z</time>
      </trkpt>
      <trkpt lat="48.78836" lon="2.47132">
        <ele>40.04</ele>
        <time>2024-11-24T11:41:49.000Z</time>
      </trkpt>
      <trkpt lat="48.78839" lon="2.4714">
        <ele>41.2</ele>
        <time>2024-11-24T11:41:54.000Z</time>
      </trkpt>
      <trkpt lat="48.78843" lon="2.47156">
        <ele>41.06</ele>
        <time>2024-11-24T11:41:57.000Z</time>
      </trkpt>
      <trkpt lat="48.78845" lon="2.47163">
        <ele>41.39</ele>
        <time>2024-11-24T11:42:04.000Z</time>
      </trkpt>
      <trkpt lat="48.78846" lon="2.47171">
        <ele>41.83</ele>
        <time>2024-11-24T11:42:11.000Z</time>
      </trkpt>
      <trkpt lat="48.78848" lon="2.47178">
        <ele>39.87</ele>
        <time>2024-11-24T11:42:17.000Z</time>
      </trkpt>
      <trkpt lat="48.78846" lon="2.47185">
        <ele>37.7</ele>
        <time>2024-11-24T11:42:23.000Z</time>
      </trkpt>
      <trkpt lat="48.78842" lon="2.47189">
        <ele>37.11</ele>
        <time>2024-11-24T11:42:26.000Z</time>
      </trkpt>
      <trkpt lat="48.78839" lon="2.47194">
        <ele>35.95</ele>
        <time>2024-11-24T11:42:28.000Z</time>
      </trkpt>
      <trkpt lat="48.7884" lon="2.47201">
        <ele>34.47</ele>
        <time>2024-11-24T11:42:35.000Z</time>
      </trkpt>
      <trkpt lat="48.78844" lon="2.47207">
        <ele>33.67</ele>
        <time>2024-11-24T11:42:41.000Z</time>
      </trkpt>
      <trkpt lat="48.78846" lon="2.47213">
        <ele>33.88</ele>
        <time>2024-11-24T11:42:45.000Z</time>
      </trkpt>
      <trkpt lat="48.7885" lon="2.4722">
        <ele>35.75</ele>
        <time>2024-11-24T11:42:49.000Z</time>
      </trkpt>
      <trkpt lat="48.78853" lon="2.47225">
        <ele>37.53</ele>
        <time>2024-11-24T11:42:51.000Z</time>
      </trkpt>
      <trkpt lat="48.78856" lon="2.47231">
        <ele>39.71</ele>
        <time>2024-11-24T11:42:57.000Z</time>
      </trkpt>
      <trkpt lat="48.78858" lon="2.47237">
        <ele>41.34</ele>
        <time>2024-11-24T11:43:00.000Z</time>
      </trkpt>
      <trkpt lat="48.78861" lon="2.47245">
        <ele>42.04</ele>
        <time>2024-11-24T11:43:07.000Z</time>
      </trkpt>
      <trkpt lat="48.78863" lon="2.47252">
        <ele>41.51</ele>
        <time>2024-11-24T11:43:15.000Z</time>
      </trkpt>
      <trkpt lat="48.78866" lon="2.47258">
        <ele>40.54</ele>
        <time>2024-11-24T11:43:22.000Z</time>
      </trkpt>
      <trkpt lat="48.78866" lon="2.47266">
        <ele>39.03</ele>
        <time>2024-11-24T11:43:26.000Z</time>
      </trkpt>
      <trkpt lat="48.78864" lon="2.47271">
        <ele>38.23</ele>
        <time>2024-11-24T11:43:30.000Z</time>
      </trkpt>
      <trkpt lat="48.78861" lon="2.47277">
        <ele>37.56</ele>
        <time>2024-11-24T11:43:34.000Z</time>
      </trkpt>
      <trkpt lat="48.7886" lon="2.47284">
        <ele>36.91</ele>
        <time>2024-11-24T11:43:38.000Z</time>
      </trkpt>
      <trkpt lat="48.78858" lon="2.47291">
        <ele>37.42</ele>
        <time>2024-11-24T11:43:43.000Z</time>
      </trkpt>
      <trkpt lat="48.78856" lon="2.47298">
        <ele>40.05</ele>
        <time>2024-11-24T11:43:49.000Z</time>
      </trkpt>
      <trkpt lat="48.78854" lon="2.47291">
        <ele>28.99</ele>
        <time>2024-11-24T12:33:02.000Z</time>
      </trkpt>
      <trkpt lat="48.78853" lon="2.47285">
        <ele>31.36</ele>
        <time>2024-11-24T12:36:02.000Z</time>
      </trkpt>
      <trkpt lat="48.78856" lon="2.47274">
        <ele>30.05</ele>
        <time>2024-11-24T12:36:12.000Z</time>
      </trkpt>
      <trkpt lat="48.7886" lon="2.47268">
        <ele>30.34</ele>
        <time>2024-11-24T12:36:20.000Z</time>
      </trkpt>
      <trkpt lat="48.78867" lon="2.47271">
        <ele>31.53</ele>
        <time>2024-11-24T12:36:29.000Z</time>
      </trkpt>
      <trkpt lat="48.78871" lon="2.47267">
        <ele>31.6</ele>
        <time>2024-11-24T12:36:34.000Z</time>
      </trkpt>
      <trkpt lat="48.78868" lon="2.47261">
        <ele>32.78</ele>
        <time>2024-11-24T12:36:46.000Z</time>
      </trkpt>
      <trkpt lat="48.78863" lon="2.47253">
        <ele>31.36</ele>
        <time>2024-11-24T12:37:08.000Z</time>
      </trkpt>
      <trkpt lat="48.7886" lon="2.47247">
        <ele>31.03</ele>
        <time>2024-11-24T12:37:17.000Z</time>
      </trkpt>
      <trkpt lat="48.78856" lon="2.4724">
        <ele>30.71</ele>
        <time>2024-11-24T12:37:20.000Z</time>
      </trkpt>
      <trkpt lat="48.78853" lon="2.47235">
        <ele>30.02</ele>
        <time>2024-11-24T12:37:23.000Z</time>
      </trkpt>
      <trkpt lat="48.78848" lon="2.4723">
        <ele>28.05</ele>
        <time>2024-11-24T12:37:28.000Z</time>
      </trkpt>
      <trkpt lat="48.78845" lon="2.47223">
        <ele>27.48</ele>
        <time>2024-11-24T12:37:31.000Z</time>
      </trkpt>
      <trkpt lat="48.78843" lon="2.47215">
        <ele>29.54</ele>
        <time>2024-11-24T12:37:36.000Z</time>
      </trkpt>
      <trkpt lat="48.78841" lon="2.47208">
        <ele>29.17</ele>
        <time>2024-11-24T12:37:41.000Z</time>
      </trkpt>
      <trkpt lat="48.78839" lon="2.47202">
        <ele>30.28</ele>
        <time>2024-11-24T12:37:49.000Z</time>
      </trkpt>
      <trkpt lat="48.78838" lon="2.47194">
        <ele>30.62</ele>
        <time>2024-11-24T12:37:55.000Z</time>
      </trkpt>
      <trkpt lat="48.78841" lon="2.47188">
        <ele>30.66</ele>
        <time>2024-11-24T12:38:06.000Z</time>
      </trkpt>
      <trkpt lat="48.78846" lon="2.47186">
        <ele>29.36</ele>
        <time>2024-11-24T12:38:12.000Z</time>
      </trkpt>
      <trkpt lat="48.7885" lon="2.47182">
        <ele>29.94</ele>
        <time>2024-11-24T12:38:18.000Z</time>
      </trkpt>
      <trkpt lat="48.78854" lon="2.47184">
        <ele>32.19</ele>
        <time>2024-11-24T12:38:27.000Z</time>
      </trkpt>
      <trkpt lat="48.78857" lon="2.4719">
        <ele>33.44</ele>
        <time>2024-11-24T12:38:35.000Z</time>
      </trkpt>
      <trkpt lat="48.7886" lon="2.47196">
        <ele>33.63</ele>
        <time>2024-11-24T12:38:40.000Z</time>
      </trkpt>
      <trkpt lat="48.78861" lon="2.47203">
        <ele>33.78</ele>
        <time>2024-11-24T12:38:45.000Z</time>
      </trkpt>
      <trkpt lat="48.78863" lon="2.4721">
        <ele>32.02</ele>
        <time>2024-11-24T12:38:58.000Z</time>
      </trkpt>
      <trkpt lat="48.78866" lon="2.47216">
        <ele>31.99</ele>
        <time>2024-11-24T12:39:04.000Z</time>
      </trkpt>
      <trkpt lat="48.78869" lon="2.47221">
        <ele>31.72</ele>
        <time>2024-11-24T12:39:11.000Z</time>
      </trkpt>
      <trkpt lat="48.78872" lon="2.47227">
        <ele>31.53</ele>
        <time>2024-11-24T12:39:18.000Z</time>
      </trkpt>
      <trkpt lat="48.78874" lon="2.47233">
        <ele>30.87</ele>
        <time>2024-11-24T12:39:47.000Z</time>
      </trkpt>
      <trkpt lat="48.78878" lon="2.4724">
        <ele>31.66</ele>
        <time>2024-11-24T12:40:06.000Z</time>
      </trkpt>
      <trkpt lat="48.78881" lon="2.47248">
        <ele>35.44</ele>
        <time>2024-11-24T12:40:32.000Z</time>
      </trkpt>
      <trkpt lat="48.78883" lon="2.47254">
        <ele>36.29</ele>
        <time>2024-11-24T12:40:36.000Z</time>
      </trkpt>
      <trkpt lat="48.78885" lon="2.47262">
        <ele>37.33</ele>
        <time>2024-11-24T12:40:41.000Z</time>
      </trkpt>
      <trkpt lat="48.78887" lon="2.47269">
        <ele>35.65</ele>
        <time>2024-11-24T12:40:56.000Z</time>
      </trkpt>
      <trkpt lat="48.7889" lon="2.47276">
        <ele>35.15</ele>
        <time>2024-11-24T12:41:01.000Z</time>
      </trkpt>
      <trkpt lat="48.78893" lon="2.47282">
        <ele>35.89</ele>
        <time>2024-11-24T12:41:06.000Z</time>
      </trkpt>
      <trkpt lat="48.78896" lon="2.47288">
        <ele>36.33</ele>
        <time>2024-11-24T12:41:11.000Z</time>
      </trkpt>
      <trkpt lat="48.78898" lon="2.47294">
        <ele>34.54</ele>
        <time>2024-11-24T12:41:18.000Z</time>
      </trkpt>
      <trkpt lat="48.78897" lon="2.47302">
        <ele>35.42</ele>
        <time>2024-11-24T12:41:38.000Z</time>
      </trkpt>
      <trkpt lat="48.789" lon="2.47309">
        <ele>36.75</ele>
        <time>2024-11-24T12:41:56.000Z</time>
      </trkpt>
      <trkpt lat="48.78906" lon="2.47309">
        <ele>34.3</ele>
        <time>2024-11-24T12:42:15.000Z</time>
      </trkpt>
      <trkpt lat="48.7891" lon="2.47314">
        <ele>33.93</ele>
        <time>2024-11-24T12:42:21.000Z</time>
      </trkpt>
      <trkpt lat="48.78914" lon="2.47321">
        <ele>36.73</ele>
        <time>2024-11-24T12:43:22.000Z</time>
      </trkpt>
      <trkpt lat="48.78916" lon="2.47327">
        <ele>32.02</ele>
        <time>2024-11-24T12:43:31.000Z</time>
      </trkpt>
      <trkpt lat="48.7892" lon="2.47332">
        <ele>29.97</ele>
        <time>2024-11-24T12:43:40.000Z</time>
      </trkpt>
      <trkpt lat="48.78923" lon="2.47337">
        <ele>31.73</ele>
        <time>2024-11-24T12:43:46.000Z</time>
      </trkpt>
      <trkpt lat="48.78926" lon="2.47343">
        <ele>35.32</ele>
        <time>2024-11-24T12:44:00.000Z</time>
      </trkpt>
      <trkpt lat="48.78929" lon="2.47349">
        <ele>35.13</ele>
        <time>2024-11-24T12:44:05.000Z</time>
      </trkpt>
      <trkpt lat="48.78931" lon="2.47355">
        <ele>34.87</ele>
        <time>2024-11-24T12:44:19.000Z</time>
      </trkpt>
      <trkpt lat="48.78933" lon="2.47361">
        <ele>34.9</ele>
        <time>2024-11-24T12:44:25.000Z</time>
      </trkpt>
      <trkpt lat="48.78936" lon="2.47366">
        <ele>33.68</ele>
        <time>2024-11-24T12:44:30.000Z</time>
      </trkpt>
      <trkpt lat="48.78939" lon="2.47374">
        <ele>31.36</ele>
        <time>2024-11-24T12:44:37.000Z</time>
      </trkpt>
      <trkpt lat="48.78943" lon="2.47379">
        <ele>31.16</ele>
        <time>2024-11-24T12:44:42.000Z</time>
      </trkpt>
      <trkpt lat="48.78944" lon="2.47385">
        <ele>31.37</ele>
        <time>2024-11-24T12:44:46.000Z</time>
      </trkpt>
      <trkpt lat="48.78945" lon="2.47394">
        <ele>32.79</ele>
        <time>2024-11-24T12:44:50.000Z</time>
      </trkpt>
      <trkpt lat="48.78941" lon="2.47399">
        <ele>36.08</ele>
        <time>2024-11-24T12:45:00.000Z</time>
      </trkpt>
      <trkpt lat="48.78937" lon="2.47402">
        <ele>37.07</ele>
        <time>2024-11-24T12:45:06.000Z</time>
      </trkpt>
      <trkpt lat="48.78932" lon="2.47404">
        <ele>36.91</ele>
        <time>2024-11-24T12:45:17.000Z</time>
      </trkpt>
      <trkpt lat="48.78927" lon="2.47405">
        <ele>35.68</ele>
        <time>2024-11-24T12:45:26.000Z</time>
      </trkpt>
      <trkpt lat="48.78924" lon="2.47409">
        <ele>34.21</ele>
        <time>2024-11-24T12:45:31.000Z</time>
      </trkpt>
      <trkpt lat="48.78919" lon="2.47413">
        <ele>32.21</ele>
        <time>2024-11-24T12:45:36.000Z</time>
      </trkpt>
      <trkpt lat="48.78915" lon="2.47417">
        <ele>30.57</ele>
        <time>2024-11-24T12:45:42.000Z</time>
      </trkpt>
      <trkpt lat="48.7891" lon="2.4742">
        <ele>29.51</ele>
        <time>2024-11-24T12:45:46.000Z</time>
      </trkpt>
      <trkpt lat="48.78906" lon="2.47424">
        <ele>28.53</ele>
        <time>2024-11-24T12:45:50.000Z</time>
      </trkpt>
      <trkpt lat="48.78903" lon="2.47429">
        <ele>25.69</ele>
        <time>2024-11-24T12:45:57.000Z</time>
      </trkpt>
      <trkpt lat="48.78899" lon="2.47433">
        <ele>25.51</ele>
        <time>2024-11-24T12:46:04.000Z</time>
      </trkpt>
      <trkpt lat="48.78894" lon="2.47436">
        <ele>25.74</ele>
        <time>2024-11-24T12:46:08.000Z</time>
      </trkpt>
      <trkpt lat="48.7889" lon="2.47441">
        <ele>25.48</ele>
        <time>2024-11-24T12:46:13.000Z</time>
      </trkpt>
      <trkpt lat="48.78886" lon="2.47445">
        <ele>25.01</ele>
        <time>2024-11-24T12:46:17.000Z</time>
      </trkpt>
      <trkpt lat="48.78881" lon="2.4745">
        <ele>25.56</ele>
        <time>2024-11-24T12:46:21.000Z</time>
      </trkpt>
      <trkpt lat="48.78877" lon="2.47454">
        <ele>24.89</ele>
        <time>2024-11-24T12:46:26.000Z</time>
      </trkpt>
      <trkpt lat="48.78873" lon="2.47459">
        <ele>23.88</ele>
        <time>2024-11-24T12:46:31.000Z</time>
      </trkpt>
      <trkpt lat="48.78868" lon="2.47463">
        <ele>23.57</ele>
        <time>2024-11-24T12:46:38.000Z</time>
      </trkpt>
      <trkpt lat="48.78864" lon="2.47468">
        <ele>23.53</ele>
        <time>2024-11-24T12:46:45.000Z</time>
      </trkpt>
      <trkpt lat="48.78859" lon="2.47473">
        <ele>24.36</ele>
        <time>2024-11-24T12:46:51.000Z</time>
      </trkpt>
      <trkpt lat="48.78855" lon="2.47477">
        <ele>25.38</ele>
        <time>2024-11-24T12:46:55.000Z</time>
      </trkpt>
      <trkpt lat="48.7885" lon="2.47482">
        <ele>26.43</ele>
        <time>2024-11-24T12:47:00.000Z</time>
      </trkpt>
      <trkpt lat="48.78846" lon="2.47488">
        <ele>26.18</ele>
        <time>2024-11-24T12:47:06.000Z</time>
      </trkpt>
      <trkpt lat="48.78841" lon="2.47493">
        <ele>25.58</ele>
        <time>2024-11-24T12:47:11.000Z</time>
      </trkpt>
      <trkpt lat="48.78836" lon="2.47498">
        <ele>25.55</ele>
        <time>2024-11-24T12:47:16.000Z</time>
      </trkpt>
      <trkpt lat="48.78832" lon="2.47503">
        <ele>26.82</ele>
        <time>2024-11-24T12:47:24.000Z</time>
      </trkpt>
      <trkpt lat="48.78828" lon="2.47508">
        <ele>26.23</ele>
        <time>2024-11-24T12:47:29.000Z</time>
      </trkpt>
      <trkpt lat="48.78823" lon="2.47513">
        <ele>24.59</ele>
        <time>2024-11-24T12:47:35.000Z</time>
      </trkpt>
      <trkpt lat="48.78819" lon="2.47518">
        <ele>25.01</ele>
        <time>2024-11-24T12:47:40.000Z</time>
      </trkpt>
      <trkpt lat="48.78815" lon="2.47522">
        <ele>24.49</ele>
        <time>2024-11-24T12:47:43.000Z</time>
      </trkpt>
      <trkpt lat="48.78809" lon="2.4752">
        <ele>22.46</ele>
        <time>2024-11-24T12:47:50.000Z</time>
      </trkpt>
      <trkpt lat="48.78804" lon="2.47519">
        <ele>23.04</ele>
        <time>2024-11-24T12:47:55.000Z</time>
      </trkpt>
      <trkpt lat="48.788" lon="2.47523">
        <ele>23.29</ele>
        <time>2024-11-24T12:48:00.000Z</time>
      </trkpt>
      <trkpt lat="48.78796" lon="2.47526">
        <ele>23.82</ele>
        <time>2024-11-24T12:48:04.000Z</time>
      </trkpt>
      <trkpt lat="48.78791" lon="2.47531">
        <ele>24.89</ele>
        <time>2024-11-24T12:48:09.000Z</time>
      </trkpt>
      <trkpt lat="48.78787" lon="2.47534">
        <ele>26.71</ele>
        <time>2024-11-24T12:48:15.000Z</time>
      </trkpt>
      <trkpt lat="48.78783" lon="2.47538">
        <ele>27.42</ele>
        <time>2024-11-24T12:48:19.000Z</time>
      </trkpt>
      <trkpt lat="48.78778" lon="2.47544">
        <ele>27.11</ele>
        <time>2024-11-24T12:48:25.000Z</time>
      </trkpt>
      <trkpt lat="48.78775" lon="2.47548">
        <ele>26.28</ele>
        <time>2024-11-24T12:48:29.000Z</time>
      </trkpt>
      <trkpt lat="48.78772" lon="2.47553">
        <ele>27.43</ele>
        <time>2024-11-24T12:48:34.000Z</time>
      </trkpt>
      <trkpt lat="48.78769" lon="2.4756">
        <ele>29.17</ele>
        <time>2024-11-24T12:48:39.000Z</time>
      </trkpt>
      <trkpt lat="48.78765" lon="2.47566">
        <ele>30.48</ele>
        <time>2024-11-24T12:48:44.000Z</time>
      </trkpt>
      <trkpt lat="48.7876" lon="2.4757">
        <ele>31.3</ele>
        <time>2024-11-24T12:48:48.000Z</time>
      </trkpt>
      <trkpt lat="48.78757" lon="2.47576">
        <ele>31.59</ele>
        <time>2024-11-24T12:48:52.000Z</time>
      </trkpt>
      <trkpt lat="48.78754" lon="2.47581">
        <ele>32.29</ele>
        <time>2024-11-24T12:48:56.000Z</time>
      </trkpt>
      <trkpt lat="48.78751" lon="2.47586">
        <ele>32.72</ele>
        <time>2024-11-24T12:49:01.000Z</time>
      </trkpt>
      <trkpt lat="48.78748" lon="2.47592">
        <ele>32.72</ele>
        <time>2024-11-24T12:49:06.000Z</time>
      </trkpt>
      <trkpt lat="48.78746" lon="2.47598">
        <ele>36.54</ele>
        <time>2024-11-24T12:49:49.000Z</time>
      </trkpt>
      <trkpt lat="48.78742" lon="2.47603">
        <ele>30.31</ele>
        <time>2024-11-24T12:51:54.000Z</time>
      </trkpt>
      <trkpt lat="48.78738" lon="2.47609">
        <ele>30.24</ele>
        <time>2024-11-24T12:51:59.000Z</time>
      </trkpt>
      <trkpt lat="48.78736" lon="2.47615">
        <ele>28.24</ele>
        <time>2024-11-24T12:52:07.000Z</time>
      </trkpt>
      <trkpt lat="48.78734" lon="2.47622">
        <ele>28.3</ele>
        <time>2024-11-24T12:52:12.000Z</time>
      </trkpt>
      <trkpt lat="48.78731" lon="2.47628">
        <ele>29.22</ele>
        <time>2024-11-24T12:52:17.000Z</time>
      </trkpt>
      <trkpt lat="48.7873" lon="2.47635">
        <ele>28.24</ele>
        <time>2024-11-24T12:52:23.000Z</time>
      </trkpt>
      <trkpt lat="48.78728" lon="2.47641">
        <ele>27.64</ele>
        <time>2024-11-24T12:52:28.000Z</time>
      </trkpt>
      <trkpt lat="48.78725" lon="2.47648">
        <ele>28.35</ele>
        <time>2024-11-24T12:52:34.000Z</time>
      </trkpt>
      <trkpt lat="48.78722" lon="2.47654">
        <ele>28.34</ele>
        <time>2024-11-24T12:52:38.000Z</time>
      </trkpt>
      <trkpt lat="48.7872" lon="2.47661">
        <ele>28.45</ele>
        <time>2024-11-24T12:52:45.000Z</time>
      </trkpt>
      <trkpt lat="48.78718" lon="2.47668">
        <ele>28.89</ele>
        <time>2024-11-24T12:52:57.000Z</time>
      </trkpt>
      <trkpt lat="48.78716" lon="2.47674">
        <ele>27.08</ele>
        <time>2024-11-24T12:53:02.000Z</time>
      </trkpt>
      <trkpt lat="48.78713" lon="2.47681">
        <ele>26.48</ele>
        <time>2024-11-24T12:53:06.000Z</time>
      </trkpt>
      <trkpt lat="48.7871" lon="2.47686">
        <ele>27.48</ele>
        <time>2024-11-24T12:53:11.000Z</time>
      </trkpt>
      <trkpt lat="48.78707" lon="2.47692">
        <ele>30.29</ele>
        <time>2024-11-24T12:53:21.000Z</time>
      </trkpt>
      <trkpt lat="48.78705" lon="2.477">
        <ele>30.88</ele>
        <time>2024-11-24T12:53:30.000Z</time>
      </trkpt>
      <trkpt lat="48.78703" lon="2.47706">
        <ele>30.67</ele>
        <time>2024-11-24T12:53:34.000Z</time>
      </trkpt>
      <trkpt lat="48.787" lon="2.47712">
        <ele>30.27</ele>
        <time>2024-11-24T12:53:39.000Z</time>
      </trkpt>
      <trkpt lat="48.78698" lon="2.47719">
        <ele>29.14</ele>
        <time>2024-11-24T12:53:45.000Z</time>
      </trkpt>
      <trkpt lat="48.78695" lon="2.47725">
        <ele>28.61</ele>
        <time>2024-11-24T12:53:50.000Z</time>
      </trkpt>
      <trkpt lat="48.78693" lon="2.47731">
        <ele>28.28</ele>
        <time>2024-11-24T12:53:54.000Z</time>
      </trkpt>
      <trkpt lat="48.78691" lon="2.47738">
        <ele>27.95</ele>
        <time>2024-11-24T12:53:59.000Z</time>
      </trkpt>
      <trkpt lat="48.78688" lon="2.47744">
        <ele>26.9</ele>
        <time>2024-11-24T12:54:04.000Z</time>
      </trkpt>
      <trkpt lat="48.78685" lon="2.47751">
        <ele>27.08</ele>
        <time>2024-11-24T12:54:10.000Z</time>
      </trkpt>
      <trkpt lat="48.78683" lon="2.47757">
        <ele>27.09</ele>
        <time>2024-11-24T12:54:15.000Z</time>
      </trkpt>
      <trkpt lat="48.78679" lon="2.47763">
        <ele>29.57</ele>
        <time>2024-11-24T12:54:29.000Z</time>
      </trkpt>
      <trkpt lat="48.78677" lon="2.47769">
        <ele>29.99</ele>
        <time>2024-11-24T12:54:33.000Z</time>
      </trkpt>
      <trkpt lat="48.78676" lon="2.47776">
        <ele>29.68</ele>
        <time>2024-11-24T12:54:37.000Z</time>
      </trkpt>
      <trkpt lat="48.78673" lon="2.47783">
        <ele>27.65</ele>
        <time>2024-11-24T12:54:43.000Z</time>
      </trkpt>
      <trkpt lat="48.7867" lon="2.4779">
        <ele>27.47</ele>
        <time>2024-11-24T12:54:47.000Z</time>
      </trkpt>
      <trkpt lat="48.78668" lon="2.47796">
        <ele>28.59</ele>
        <time>2024-11-24T12:54:52.000Z</time>
      </trkpt>
      <trkpt lat="48.78665" lon="2.47802">
        <ele>29.61</ele>
        <time>2024-11-24T12:54:57.000Z</time>
      </trkpt>
      <trkpt lat="48.78662" lon="2.47808">
        <ele>29.7</ele>
        <time>2024-11-24T12:55:01.000Z</time>
      </trkpt>
      <trkpt lat="48.78659" lon="2.47815">
        <ele>30.25</ele>
        <time>2024-11-24T12:55:06.000Z</time>
      </trkpt>
      <trkpt lat="48.78657" lon="2.47822">
        <ele>30.78</ele>
        <time>2024-11-24T12:55:11.000Z</time>
      </trkpt>
      <trkpt lat="48.78655" lon="2.47829">
        <ele>31.39</ele>
        <time>2024-11-24T12:55:16.000Z</time>
      </trkpt>
      <trkpt lat="48.7865" lon="2.47832">
        <ele>34.85</ele>
        <time>2024-11-24T12:57:49.000Z</time>
      </trkpt>
      <trkpt lat="48.78648" lon="2.47838">
        <ele>33.67</ele>
        <time>2024-11-24T12:57:55.000Z</time>
      </trkpt>
      <trkpt lat="48.78646" lon="2.47846">
        <ele>32.44</ele>
        <time>2024-11-24T12:58:03.000Z</time>
      </trkpt>
      <trkpt lat="48.78643" lon="2.47851">
        <ele>33.57</ele>
        <time>2024-11-24T12:58:08.000Z</time>
      </trkpt>
      <trkpt lat="48.78642" lon="2.47859">
        <ele>29.95</ele>
        <time>2024-11-24T12:58:14.000Z</time>
      </trkpt>
      <trkpt lat="48.7864" lon="2.47866">
        <ele>28.52</ele>
        <time>2024-11-24T12:58:20.000Z</time>
      </trkpt>
      <trkpt lat="48.78639" lon="2.47873">
        <ele>28.3</ele>
        <time>2024-11-24T12:58:25.000Z</time>
      </trkpt>
      <trkpt lat="48.78637" lon="2.47879">
        <ele>27.97</ele>
        <time>2024-11-24T12:58:30.000Z</time>
      </trkpt>
      <trkpt lat="48.78641" lon="2.4788">
        <ele>30.08</ele>
        <time>2024-11-24T12:58:41.000Z</time>
      </trkpt>
      <trkpt lat="48.78642" lon="2.47887">
        <ele>30.87</ele>
        <time>2024-11-24T12:58:49.000Z</time>
      </trkpt>
      <trkpt lat="48.7864" lon="2.47894">
        <ele>30.94</ele>
        <time>2024-11-24T12:58:55.000Z</time>
      </trkpt>
      <trkpt lat="48.78638" lon="2.47901">
        <ele>30.86</ele>
        <time>2024-11-24T12:59:00.000Z</time>
      </trkpt>
      <trkpt lat="48.78636" lon="2.47909">
        <ele>30.84</ele>
        <time>2024-11-24T12:59:05.000Z</time>
      </trkpt>
      <trkpt lat="48.78634" lon="2.47916">
        <ele>32.11</ele>
        <time>2024-11-24T12:59:11.000Z</time>
      </trkpt>
      <trkpt lat="48.78632" lon="2.47923">
        <ele>32.68</ele>
        <time>2024-11-24T12:59:17.000Z</time>
      </trkpt>
      <trkpt lat="48.7863" lon="2.4793">
        <ele>33.17</ele>
        <time>2024-11-24T12:59:23.000Z</time>
      </trkpt>
      <trkpt lat="48.78628" lon="2.47937">
        <ele>33.44</ele>
        <time>2024-11-24T12:59:28.000Z</time>
      </trkpt>
      <trkpt lat="48.78626" lon="2.47944">
        <ele>33.79</ele>
        <time>2024-11-24T12:59:33.000Z</time>
      </trkpt>
      <trkpt lat="48.78624" lon="2.47951">
        <ele>33.89</ele>
        <time>2024-11-24T12:59:37.000Z</time>
      </trkpt>
      <trkpt lat="48.78622" lon="2.47959">
        <ele>33.8</ele>
        <time>2024-11-24T12:59:42.000Z</time>
      </trkpt>
      <trkpt lat="48.7862" lon="2.47967">
        <ele>33.2</ele>
        <time>2024-11-24T12:59:47.000Z</time>
      </trkpt>
      <trkpt lat="48.78618" lon="2.47975">
        <ele>32.57</ele>
        <time>2024-11-24T12:59:51.000Z</time>
      </trkpt>
      <trkpt lat="48.78615" lon="2.47981">
        <ele>32.01</ele>
        <time>2024-11-24T12:59:55.000Z</time>
      </trkpt>
      <trkpt lat="48.78613" lon="2.47988">
        <ele>31.9</ele>
        <time>2024-11-24T13:00:00.000Z</time>
      </trkpt>
      <trkpt lat="48.78611" lon="2.47995">
        <ele>32.25</ele>
        <time>2024-11-24T13:00:04.000Z</time>
      </trkpt>
      <trkpt lat="48.78609" lon="2.48003">
        <ele>32.37</ele>
        <time>2024-11-24T13:00:09.000Z</time>
      </trkpt>
      <trkpt lat="48.78606" lon="2.4801">
        <ele>33.89</ele>
        <time>2024-11-24T13:00:14.000Z</time>
      </trkpt>
      <trkpt lat="48.78604" lon="2.48017">
        <ele>34.39</ele>
        <time>2024-11-24T13:00:19.000Z</time>
      </trkpt>
      <trkpt lat="48.78602" lon="2.48024">
        <ele>34.05</ele>
        <time>2024-11-24T13:00:24.000Z</time>
      </trkpt>
      <trkpt lat="48.786" lon="2.48032">
        <ele>33.3</ele>
        <time>2024-11-24T13:00:29.000Z</time>
      </trkpt>
      <trkpt lat="48.78599" lon="2.48039">
        <ele>31.8</ele>
        <time>2024-11-24T13:00:33.000Z</time>
      </trkpt>
      <trkpt lat="48.78597" lon="2.48046">
        <ele>31.89</ele>
        <time>2024-11-24T13:00:37.000Z</time>
      </trkpt>
      <trkpt lat="48.78595" lon="2.48053">
        <ele>31.39</ele>
        <time>2024-11-24T13:00:42.000Z</time>
      </trkpt>
      <trkpt lat="48.78593" lon="2.4806">
        <ele>30.35</ele>
        <time>2024-11-24T13:00:47.000Z</time>
      </trkpt>
      <trkpt lat="48.7859" lon="2.48067">
        <ele>30.22</ele>
        <time>2024-11-24T13:00:52.000Z</time>
      </trkpt>
      <trkpt lat="48.78588" lon="2.48074">
        <ele>29.96</ele>
        <time>2024-11-24T13:00:57.000Z</time>
      </trkpt>
      <trkpt lat="48.78587" lon="2.48081">
        <ele>29.19</ele>
        <time>2024-11-24T13:01:02.000Z</time>
      </trkpt>
      <trkpt lat="48.78585" lon="2.48088">
        <ele>30.03</ele>
        <time>2024-11-24T13:01:07.000Z</time>
      </trkpt>
      <trkpt lat="48.78583" lon="2.48095">
        <ele>30.91</ele>
        <time>2024-11-24T13:01:12.000Z</time>
      </trkpt>
      <trkpt lat="48.78582" lon="2.48102">
        <ele>31.13</ele>
        <time>2024-11-24T13:01:17.000Z</time>
      </trkpt>
      <trkpt lat="48.78581" lon="2.4811">
        <ele>31.04</ele>
        <time>2024-11-24T13:01:21.000Z</time>
      </trkpt>
      <trkpt lat="48.78579" lon="2.48116">
        <ele>30.16</ele>
        <time>2024-11-24T13:01:25.000Z</time>
      </trkpt>
      <trkpt lat="48.78577" lon="2.48124">
        <ele>29.2</ele>
        <time>2024-11-24T13:01:29.000Z</time>
      </trkpt>
      <trkpt lat="48.78575" lon="2.48131">
        <ele>29.18</ele>
        <time>2024-11-24T13:01:34.000Z</time>
      </trkpt>
      <trkpt lat="48.78574" lon="2.48139">
        <ele>28.48</ele>
        <time>2024-11-24T13:01:39.000Z</time>
      </trkpt>
      <trkpt lat="48.78573" lon="2.48146">
        <ele>28.44</ele>
        <time>2024-11-24T13:01:44.000Z</time>
      </trkpt>
      <trkpt lat="48.78571" lon="2.48153">
        <ele>27.95</ele>
        <time>2024-11-24T13:01:50.000Z</time>
      </trkpt>
      <trkpt lat="48.78569" lon="2.48161">
        <ele>26.96</ele>
        <time>2024-11-24T13:01:55.000Z</time>
      </trkpt>
      <trkpt lat="48.78568" lon="2.48168">
        <ele>27.06</ele>
        <time>2024-11-24T13:01:59.000Z</time>
      </trkpt>
      <trkpt lat="48.78567" lon="2.48175">
        <ele>27.25</ele>
        <time>2024-11-24T13:02:03.000Z</time>
      </trkpt>
      <trkpt lat="48.78566" lon="2.48182">
        <ele>28.1</ele>
        <time>2024-11-24T13:02:06.000Z</time>
      </trkpt>
      <trkpt lat="48.78565" lon="2.48188">
        <ele>28.61</ele>
        <time>2024-11-24T13:02:09.000Z</time>
      </trkpt>
      <trkpt lat="48.78563" lon="2.48196">
        <ele>30.05</ele>
        <time>2024-11-24T13:02:14.000Z</time>
      </trkpt>
      <trkpt lat="48.78561" lon="2.48203">
        <ele>30.28</ele>
        <time>2024-11-24T13:02:18.000Z</time>
      </trkpt>
      <trkpt lat="48.78559" lon="2.4821">
        <ele>31.41</ele>
        <time>2024-11-24T13:02:22.000Z</time>
      </trkpt>
      <trkpt lat="48.78558" lon="2.48218">
        <ele>31.94</ele>
        <time>2024-11-24T13:02:26.000Z</time>
      </trkpt>
      <trkpt lat="48.78556" lon="2.48224">
        <ele>32.23</ele>
        <time>2024-11-24T13:02:30.000Z</time>
      </trkpt>
      <trkpt lat="48.78555" lon="2.48232">
        <ele>32.1</ele>
        <time>2024-11-24T13:02:34.000Z</time>
      </trkpt>
      <trkpt lat="48.78554" lon="2.48239">
        <ele>31.41</ele>
        <time>2024-11-24T13:02:38.000Z</time>
      </trkpt>
      <trkpt lat="48.78553" lon="2.48248">
        <ele>31.03</ele>
        <time>2024-11-24T13:02:42.000Z</time>
      </trkpt>
      <trkpt lat="48.78552" lon="2.48255">
        <ele>30.63</ele>
        <time>2024-11-24T13:02:47.000Z</time>
      </trkpt>
      <trkpt lat="48.78551" lon="2.48264">
        <ele>30.46</ele>
        <time>2024-11-24T13:02:52.000Z</time>
      </trkpt>
      <trkpt lat="48.78549" lon="2.48271">
        <ele>30.5</ele>
        <time>2024-11-24T13:02:55.000Z</time>
      </trkpt>
      <trkpt lat="48.78548" lon="2.48279">
        <ele>30.46</ele>
        <time>2024-11-24T13:03:00.000Z</time>
      </trkpt>
      <trkpt lat="48.78548" lon="2.48286">
        <ele>29.6</ele>
        <time>2024-11-24T13:03:04.000Z</time>
      </trkpt>
      <trkpt lat="48.78546" lon="2.48293">
        <ele>29.41</ele>
        <time>2024-11-24T13:03:08.000Z</time>
      </trkpt>
      <trkpt lat="48.78543" lon="2.48301">
        <ele>30.85</ele>
        <time>2024-11-24T13:03:12.000Z</time>
      </trkpt>
      <trkpt lat="48.78541" lon="2.48308">
        <ele>31.41</ele>
        <time>2024-11-24T13:03:16.000Z</time>
      </trkpt>
      <trkpt lat="48.78543" lon="2.48315">
        <ele>32.68</ele>
        <time>2024-11-24T13:03:22.000Z</time>
      </trkpt>
      <trkpt lat="48.78541" lon="2.48323">
        <ele>32.65</ele>
        <time>2024-11-24T13:03:27.000Z</time>
      </trkpt>
      <trkpt lat="48.78539" lon="2.4833">
        <ele>31.31</ele>
        <time>2024-11-24T13:03:31.000Z</time>
      </trkpt>
      <trkpt lat="48.78538" lon="2.48336">
        <ele>30.84</ele>
        <time>2024-11-24T13:03:35.000Z</time>
      </trkpt>
      <trkpt lat="48.78536" lon="2.48345">
        <ele>30.02</ele>
        <time>2024-11-24T13:03:39.000Z</time>
      </trkpt>
      <trkpt lat="48.78533" lon="2.48351">
        <ele>29.68</ele>
        <time>2024-11-24T13:03:43.000Z</time>
      </trkpt>
      <trkpt lat="48.78531" lon="2.48358">
        <ele>30.73</ele>
        <time>2024-11-24T13:03:48.000Z</time>
      </trkpt>
      <trkpt lat="48.7853" lon="2.48365">
        <ele>31.74</ele>
        <time>2024-11-24T13:03:53.000Z</time>
      </trkpt>
      <trkpt lat="48.78528" lon="2.48372">
        <ele>32.02</ele>
        <time>2024-11-24T13:03:57.000Z</time>
      </trkpt>
      <trkpt lat="48.78526" lon="2.48379">
        <ele>32.16</ele>
        <time>2024-11-24T13:04:02.000Z</time>
      </trkpt>
      <trkpt lat="48.78523" lon="2.48389">
        <ele>30.5</ele>
        <time>2024-11-24T13:05:47.000Z</time>
      </trkpt>
      <trkpt lat="48.78521" lon="2.48396">
        <ele>30.9</ele>
        <time>2024-11-24T13:05:51.000Z</time>
      </trkpt>
      <trkpt lat="48.78519" lon="2.48404">
        <ele>31.35</ele>
        <time>2024-11-24T13:05:55.000Z</time>
      </trkpt>
      <trkpt lat="48.78517" lon="2.48412">
        <ele>31.52</ele>
        <time>2024-11-24T13:05:59.000Z</time>
      </trkpt>
      <trkpt lat="48.78515" lon="2.48418">
        <ele>32.03</ele>
        <time>2024-11-24T13:06:03.000Z</time>
      </trkpt>
      <trkpt lat="48.78513" lon="2.48425">
        <ele>32.69</ele>
        <time>2024-11-24T13:06:07.000Z</time>
      </trkpt>
      <trkpt lat="48.78512" lon="2.48432">
        <ele>31.37</ele>
        <time>2024-11-24T13:06:11.000Z</time>
      </trkpt>
      <trkpt lat="48.7851" lon="2.4844">
        <ele>30.94</ele>
        <time>2024-11-24T13:06:14.000Z</time>
      </trkpt>
      <trkpt lat="48.78508" lon="2.48447">
        <ele>31.35</ele>
        <time>2024-11-24T13:06:17.000Z</time>
      </trkpt>
      <trkpt lat="48.78505" lon="2.48452">
        <ele>31.32</ele>
        <time>2024-11-24T13:06:24.000Z</time>
      </trkpt>
      <trkpt lat="48.785" lon="2.48455">
        <ele>30.14</ele>
        <time>2024-11-24T13:06:33.000Z</time>
      </trkpt>
      <trkpt lat="48.78495" lon="2.48456">
        <ele>30.24</ele>
        <time>2024-11-24T13:06:37.000Z</time>
      </trkpt>
      <trkpt lat="48.78491" lon="2.4846">
        <ele>30.32</ele>
        <time>2024-11-24T13:06:42.000Z</time>
      </trkpt>
      <trkpt lat="48.78487" lon="2.48466">
        <ele>29.96</ele>
        <time>2024-11-24T13:06:48.000Z</time>
      </trkpt>
      <trkpt lat="48.78487" lon="2.48473">
        <ele>28.99</ele>
        <time>2024-11-24T13:06:53.000Z</time>
      </trkpt>
      <trkpt lat="48.78485" lon="2.48481">
        <ele>28.57</ele>
        <time>2024-11-24T13:06:59.000Z</time>
      </trkpt>
      <trkpt lat="48.78483" lon="2.48488">
        <ele>28.86</ele>
        <time>2024-11-24T13:07:04.000Z</time>
      </trkpt>
      <trkpt lat="48.78482" lon="2.48495">
        <ele>28.71</ele>
        <time>2024-11-24T13:07:09.000Z</time>
      </trkpt>
      <trkpt lat="48.78482" lon="2.48503">
        <ele>29.97</ele>
        <time>2024-11-24T13:07:14.000Z</time>
      </trkpt>
      <trkpt lat="48.78481" lon="2.48511">
        <ele>30.74</ele>
        <time>2024-11-24T13:07:19.000Z</time>
      </trkpt>
      <trkpt lat="48.78477" lon="2.48517">
        <ele>30.48</ele>
        <time>2024-11-24T13:07:23.000Z</time>
      </trkpt>
      <trkpt lat="48.78474" lon="2.48523">
        <ele>28.84</ele>
        <time>2024-11-24T13:07:28.000Z</time>
      </trkpt>
      <trkpt lat="48.78472" lon="2.48529">
        <ele>28.15</ele>
        <time>2024-11-24T13:07:34.000Z</time>
      </trkpt>
      <trkpt lat="48.7847" lon="2.48537">
        <ele>29.74</ele>
        <time>2024-11-24T13:07:39.000Z</time>
      </trkpt>
      <trkpt lat="48.7847" lon="2.48545">
        <ele>30.05</ele>
        <time>2024-11-24T13:07:45.000Z</time>
      </trkpt>
      <trkpt lat="48.78468" lon="2.48551">
        <ele>29.69</ele>
        <time>2024-11-24T13:07:50.000Z</time>
      </trkpt>
      <trkpt lat="48.78465" lon="2.48559">
        <ele>29.4</ele>
        <time>2024-11-24T13:07:57.000Z</time>
      </trkpt>
      <trkpt lat="48.78464" lon="2.48566">
        <ele>29.29</ele>
        <time>2024-11-24T13:08:02.000Z</time>
      </trkpt>
      <trkpt lat="48.78464" lon="2.48573">
        <ele>29.24</ele>
        <time>2024-11-24T13:08:07.000Z</time>
      </trkpt>
      <trkpt lat="48.78465" lon="2.48581">
        <ele>29.4</ele>
        <time>2024-11-24T13:08:12.000Z</time>
      </trkpt>
      <trkpt lat="48.78465" lon="2.48588">
        <ele>29.2</ele>
        <time>2024-11-24T13:08:19.000Z</time>
      </trkpt>
      <trkpt lat="48.78464" lon="2.48596">
        <ele>28.93</ele>
        <time>2024-11-24T13:08:25.000Z</time>
      </trkpt>
      <trkpt lat="48.78462" lon="2.48605">
        <ele>29.69</ele>
        <time>2024-11-24T13:08:31.000Z</time>
      </trkpt>
      <trkpt lat="48.78461" lon="2.48612">
        <ele>30.5</ele>
        <time>2024-11-24T13:08:36.000Z</time>
      </trkpt>
      <trkpt lat="48.78459" lon="2.48619">
        <ele>30.59</ele>
        <time>2024-11-24T13:08:40.000Z</time>
      </trkpt>
      <trkpt lat="48.78458" lon="2.48627">
        <ele>31.5</ele>
        <time>2024-11-24T13:08:44.000Z</time>
      </trkpt>
      <trkpt lat="48.78457" lon="2.48634">
        <ele>31.34</ele>
        <time>2024-11-24T13:08:51.000Z</time>
      </trkpt>
      <trkpt lat="48.78455" lon="2.48641">
        <ele>30.45</ele>
        <time>2024-11-24T13:08:57.000Z</time>
      </trkpt>
      <trkpt lat="48.78454" lon="2.48648">
        <ele>29.77</ele>
        <time>2024-11-24T13:09:03.000Z</time>
      </trkpt>
      <trkpt lat="48.78452" lon="2.48655">
        <ele>27.68</ele>
        <time>2024-11-24T13:09:08.000Z</time>
      </trkpt>
      <trkpt lat="48.78451" lon="2.48664">
        <ele>26.62</ele>
        <time>2024-11-24T13:09:13.000Z</time>
      </trkpt>
      <trkpt lat="48.7845" lon="2.48672">
        <ele>26.32</ele>
        <time>2024-11-24T13:09:18.000Z</time>
      </trkpt>
      <trkpt lat="48.78448" lon="2.48678">
        <ele>27.54</ele>
        <time>2024-11-24T13:09:24.000Z</time>
      </trkpt>
      <trkpt lat="48.78447" lon="2.48686">
        <ele>27.72</ele>
        <time>2024-11-24T13:09:30.000Z</time>
      </trkpt>
      <trkpt lat="48.78447" lon="2.48693">
        <ele>26.87</ele>
        <time>2024-11-24T13:09:35.000Z</time>
      </trkpt>
      <trkpt lat="48.78447" lon="2.48701">
        <ele>27.38</ele>
        <time>2024-11-24T13:09:41.000Z</time>
      </trkpt>
      <trkpt lat="48.78448" lon="2.48708">
        <ele>27.21</ele>
        <time>2024-11-24T13:09:48.000Z</time>
      </trkpt>
      <trkpt lat="48.78448" lon="2.48716">
        <ele>28.14</ele>
        <time>2024-11-24T13:09:53.000Z</time>
      </trkpt>
      <trkpt lat="48.78448" lon="2.48724">
        <ele>28.37</ele>
        <time>2024-11-24T13:09:57.000Z</time>
      </trkpt>
      <trkpt lat="48.78448" lon="2.48732">
        <ele>28.91</ele>
        <time>2024-11-24T13:10:03.000Z</time>
      </trkpt>
      <trkpt lat="48.78448" lon="2.48739">
        <ele>27.75</ele>
        <time>2024-11-24T13:10:09.000Z</time>
      </trkpt>
      <trkpt lat="48.78447" lon="2.48746">
        <ele>27.32</ele>
        <time>2024-11-24T13:10:14.000Z</time>
      </trkpt>
      <trkpt lat="48.78447" lon="2.48754">
        <ele>27.95</ele>
        <time>2024-11-24T13:10:20.000Z</time>
      </trkpt>
      <trkpt lat="48.78446" lon="2.48762">
        <ele>28.12</ele>
        <time>2024-11-24T13:10:25.000Z</time>
      </trkpt>
      <trkpt lat="48.78446" lon="2.48769">
        <ele>27.55</ele>
        <time>2024-11-24T13:10:30.000Z</time>
      </trkpt>
      <trkpt lat="48.78446" lon="2.48776">
        <ele>26.8</ele>
        <time>2024-11-24T13:10:34.000Z</time>
      </trkpt>
      <trkpt lat="48.78445" lon="2.48783">
        <ele>27.66</ele>
        <time>2024-11-24T13:10:39.000Z</time>
      </trkpt>
      <trkpt lat="48.78445" lon="2.48791">
        <ele>28.64</ele>
        <time>2024-11-24T13:10:44.000Z</time>
      </trkpt>
      <trkpt lat="48.78444" lon="2.48799">
        <ele>29.28</ele>
        <time>2024-11-24T13:10:49.000Z</time>
      </trkpt>
      <trkpt lat="48.78444" lon="2.48806">
        <ele>29.98</ele>
        <time>2024-11-24T13:10:54.000Z</time>
      </trkpt>
      <trkpt lat="48.78443" lon="2.48814">
        <ele>30.69</ele>
        <time>2024-11-24T13:11:01.000Z</time>
      </trkpt>
      <trkpt lat="48.78442" lon="2.48821">
        <ele>32.17</ele>
        <time>2024-11-24T13:11:07.000Z</time>
      </trkpt>
      <trkpt lat="48.78446" lon="2.48825">
        <ele>31.93</ele>
        <time>2024-11-24T13:11:32.000Z</time>
      </trkpt>
      <trkpt lat="48.7845" lon="2.4883">
        <ele>30.75</ele>
        <time>2024-11-24T13:11:38.000Z</time>
      </trkpt>
      <trkpt lat="48.7845" lon="2.48838">
        <ele>32.82</ele>
        <time>2024-11-24T13:11:43.000Z</time>
      </trkpt>
      <trkpt lat="48.78451" lon="2.48845">
        <ele>33.89</ele>
        <time>2024-11-24T13:11:48.000Z</time>
      </trkpt>
      <trkpt lat="48.78452" lon="2.48852">
        <ele>34.34</ele>
        <time>2024-11-24T13:11:53.000Z</time>
      </trkpt>
      <trkpt lat="48.78452" lon="2.48859">
        <ele>34.8</ele>
        <time>2024-11-24T13:11:56.000Z</time>
      </trkpt>
      <trkpt lat="48.78451" lon="2.48866">
        <ele>36.12</ele>
        <time>2024-11-24T13:12:00.000Z</time>
      </trkpt>
      <trkpt lat="48.78449" lon="2.48873">
        <ele>35.3</ele>
        <time>2024-11-24T13:12:06.000Z</time>
      </trkpt>
      <trkpt lat="48.78449" lon="2.4888">
        <ele>34.87</ele>
        <time>2024-11-24T13:12:11.000Z</time>
      </trkpt>
      <trkpt lat="48.78449" lon="2.48888">
        <ele>34.99</ele>
        <time>2024-11-24T13:12:16.000Z</time>
      </trkpt>
      <trkpt lat="48.78449" lon="2.48897">
        <ele>37</ele>
        <time>2024-11-24T13:12:22.000Z</time>
      </trkpt>
      <trkpt lat="48.78449" lon="2.48904">
        <ele>38.26</ele>
        <time>2024-11-24T13:12:26.000Z</time>
      </trkpt>
      <trkpt lat="48.78449" lon="2.48912">
        <ele>40.42</ele>
        <time>2024-11-24T13:12:31.000Z</time>
      </trkpt>
      <trkpt lat="48.78449" lon="2.48919">
        <ele>39.55</ele>
        <time>2024-11-24T13:12:37.000Z</time>
      </trkpt>
      <trkpt lat="48.78449" lon="2.48926">
        <ele>38.54</ele>
        <time>2024-11-24T13:12:46.000Z</time>
      </trkpt>
      <trkpt lat="48.78449" lon="2.48933">
        <ele>37.73</ele>
        <time>2024-11-24T13:12:54.000Z</time>
      </trkpt>
      <trkpt lat="48.78448" lon="2.4894">
        <ele>37.55</ele>
        <time>2024-11-24T13:13:02.000Z</time>
      </trkpt>
      <trkpt lat="48.78445" lon="2.48947">
        <ele>35.33</ele>
        <time>2024-11-24T13:13:10.000Z</time>
      </trkpt>
      <trkpt lat="48.78442" lon="2.48953">
        <ele>36.27</ele>
        <time>2024-11-24T13:13:15.000Z</time>
      </trkpt>
      <trkpt lat="48.78441" lon="2.48961">
        <ele>34.66</ele>
        <time>2024-11-24T13:13:19.000Z</time>
      </trkpt>
      <trkpt lat="48.78441" lon="2.48968">
        <ele>32.52</ele>
        <time>2024-11-24T13:13:25.000Z</time>
      </trkpt>
      <trkpt lat="48.7844" lon="2.48975">
        <ele>31</ele>
        <time>2024-11-24T13:13:41.000Z</time>
      </trkpt>
      <trkpt lat="48.7844" lon="2.48982">
        <ele>31.84</ele>
        <time>2024-11-24T13:13:47.000Z</time>
      </trkpt>
      <trkpt lat="48.7844" lon="2.4899">
        <ele>31.37</ele>
        <time>2024-11-24T13:13:52.000Z</time>
      </trkpt>
      <trkpt lat="48.7844" lon="2.48997">
        <ele>33.92</ele>
        <time>2024-11-24T13:14:11.000Z</time>
      </trkpt>
      <trkpt lat="48.78441" lon="2.49004">
        <ele>35.65</ele>
        <time>2024-11-24T13:14:17.000Z</time>
      </trkpt>
      <trkpt lat="48.78441" lon="2.49011">
        <ele>36.15</ele>
        <time>2024-11-24T13:14:23.000Z</time>
      </trkpt>
      <trkpt lat="48.78439" lon="2.49019">
        <ele>36.62</ele>
        <time>2024-11-24T13:14:43.000Z</time>
      </trkpt>
      <trkpt lat="48.78439" lon="2.49027">
        <ele>36.51</ele>
        <time>2024-11-24T13:14:52.000Z</time>
      </trkpt>
      <trkpt lat="48.78439" lon="2.49034">
        <ele>36.11</ele>
        <time>2024-11-24T13:14:58.000Z</time>
      </trkpt>
      <trkpt lat="48.7844" lon="2.49042">
        <ele>33.52</ele>
        <time>2024-11-24T13:15:05.000Z</time>
      </trkpt>
      <trkpt lat="48.78439" lon="2.49049">
        <ele>33.83</ele>
        <time>2024-11-24T13:15:11.000Z</time>
      </trkpt>
      <trkpt lat="48.78438" lon="2.49056">
        <ele>33.19</ele>
        <time>2024-11-24T13:15:16.000Z</time>
      </trkpt>
      <trkpt lat="48.78439" lon="2.49063">
        <ele>32.91</ele>
        <time>2024-11-24T13:15:23.000Z</time>
      </trkpt>
      <trkpt lat="48.78439" lon="2.49071">
        <ele>31.63</ele>
        <time>2024-11-24T13:15:29.000Z</time>
      </trkpt>
      <trkpt lat="48.78438" lon="2.49078">
        <ele>34.02</ele>
        <time>2024-11-24T13:15:44.000Z</time>
      </trkpt>
      <trkpt lat="48.78438" lon="2.49086">
        <ele>34.4</ele>
        <time>2024-11-24T13:15:50.000Z</time>
      </trkpt>
      <trkpt lat="48.78438" lon="2.49093">
        <ele>35.46</ele>
        <time>2024-11-24T13:15:56.000Z</time>
      </trkpt>
      <trkpt lat="48.78438" lon="2.491">
        <ele>34.24</ele>
        <time>2024-11-24T13:16:01.000Z</time>
      </trkpt>
      <trkpt lat="48.78438" lon="2.49107">
        <ele>33.63</ele>
        <time>2024-11-24T13:16:05.000Z</time>
      </trkpt>
      <trkpt lat="48.78438" lon="2.49115">
        <ele>34.94</ele>
        <time>2024-11-24T13:16:11.000Z</time>
      </trkpt>
      <trkpt lat="48.78438" lon="2.49122">
        <ele>35.98</ele>
        <time>2024-11-24T13:16:16.000Z</time>
      </trkpt>
      <trkpt lat="48.78438" lon="2.49129">
        <ele>36.2</ele>
        <time>2024-11-24T13:16:20.000Z</time>
      </trkpt>
      <trkpt lat="48.78438" lon="2.49137">
        <ele>34.86</ele>
        <time>2024-11-24T13:16:25.000Z</time>
      </trkpt>
      <trkpt lat="48.78439" lon="2.49145">
        <ele>34.6</ele>
        <time>2024-11-24T13:16:30.000Z</time>
      </trkpt>
      <trkpt lat="48.78439" lon="2.49153">
        <ele>34.7</ele>
        <time>2024-11-24T13:16:36.000Z</time>
      </trkpt>
      <trkpt lat="48.78439" lon="2.49161">
        <ele>34.89</ele>
        <time>2024-11-24T13:16:40.000Z</time>
      </trkpt>
      <trkpt lat="48.7844" lon="2.49168">
        <ele>33.9</ele>
        <time>2024-11-24T13:16:44.000Z</time>
      </trkpt>
      <trkpt lat="48.7844" lon="2.49176">
        <ele>33.82</ele>
        <time>2024-11-24T13:16:48.000Z</time>
      </trkpt>
      <trkpt lat="48.7844" lon="2.49184">
        <ele>32.88</ele>
        <time>2024-11-24T13:16:51.000Z</time>
      </trkpt>
      <trkpt lat="48.7844" lon="2.49192">
        <ele>32.28</ele>
        <time>2024-11-24T13:16:56.000Z</time>
      </trkpt>
      <trkpt lat="48.78441" lon="2.49199">
        <ele>31.04</ele>
        <time>2024-11-24T13:17:07.000Z</time>
      </trkpt>
      <trkpt lat="48.78441" lon="2.49208">
        <ele>31.15</ele>
        <time>2024-11-24T13:17:11.000Z</time>
      </trkpt>
      <trkpt lat="48.78441" lon="2.49216">
        <ele>30.15</ele>
        <time>2024-11-24T13:17:15.000Z</time>
      </trkpt>
      <trkpt lat="48.78441" lon="2.49223">
        <ele>27.27</ele>
        <time>2024-11-24T13:17:20.000Z</time>
      </trkpt>
      <trkpt lat="48.78442" lon="2.4923">
        <ele>26.98</ele>
        <time>2024-11-24T13:17:23.000Z</time>
      </trkpt>
      <trkpt lat="48.78442" lon="2.49237">
        <ele>28</ele>
        <time>2024-11-24T13:17:30.000Z</time>
      </trkpt>
      <trkpt lat="48.78442" lon="2.49245">
        <ele>29.3</ele>
        <time>2024-11-24T13:17:34.000Z</time>
      </trkpt>
      <trkpt lat="48.78443" lon="2.49253">
        <ele>29.26</ele>
        <time>2024-11-24T13:17:38.000Z</time>
      </trkpt>
      <trkpt lat="48.78443" lon="2.49261">
        <ele>26.91</ele>
        <time>2024-11-24T13:17:44.000Z</time>
      </trkpt>
      <trkpt lat="48.78444" lon="2.49268">
        <ele>26.62</ele>
        <time>2024-11-24T13:17:47.000Z</time>
      </trkpt>
      <trkpt lat="48.78444" lon="2.49277">
        <ele>26.62</ele>
        <time>2024-11-24T13:17:54.000Z</time>
      </trkpt>
      <trkpt lat="48.78444" lon="2.49284">
        <ele>25.39</ele>
        <time>2024-11-24T13:17:58.000Z</time>
      </trkpt>
      <trkpt lat="48.78445" lon="2.49291">
        <ele>26.44</ele>
        <time>2024-11-24T13:18:01.000Z</time>
      </trkpt>
      <trkpt lat="48.78445" lon="2.49299">
        <ele>28.51</ele>
        <time>2024-11-24T13:18:04.000Z</time>
      </trkpt>
      <trkpt lat="48.78445" lon="2.49308">
        <ele>29.38</ele>
        <time>2024-11-24T13:18:11.000Z</time>
      </trkpt>
      <trkpt lat="48.78446" lon="2.49318">
        <ele>27.8</ele>
        <time>2024-11-24T13:18:17.000Z</time>
      </trkpt>
      <trkpt lat="48.78446" lon="2.49326">
        <ele>27.79</ele>
        <time>2024-11-24T13:18:21.000Z</time>
      </trkpt>
      <trkpt lat="48.78447" lon="2.49336">
        <ele>28.44</ele>
        <time>2024-11-24T13:18:26.000Z</time>
      </trkpt>
      <trkpt lat="48.78447" lon="2.49344">
        <ele>28.11</ele>
        <time>2024-11-24T13:18:34.000Z</time>
      </trkpt>
      <trkpt lat="48.78448" lon="2.49352">
        <ele>27.23</ele>
        <time>2024-11-24T13:18:43.000Z</time>
      </trkpt>
      <trkpt lat="48.78449" lon="2.49359">
        <ele>26.64</ele>
        <time>2024-11-24T13:18:47.000Z</time>
      </trkpt>
      <trkpt lat="48.78449" lon="2.49367">
        <ele>25.97</ele>
        <time>2024-11-24T13:18:50.000Z</time>
      </trkpt>
      <trkpt lat="48.7845" lon="2.49376">
        <ele>25.87</ele>
        <time>2024-11-24T13:18:57.000Z</time>
      </trkpt>
      <trkpt lat="48.78451" lon="2.49383">
        <ele>26.31</ele>
        <time>2024-11-24T13:19:01.000Z</time>
      </trkpt>
      <trkpt lat="48.78451" lon="2.49392">
        <ele>27.34</ele>
        <time>2024-11-24T13:19:07.000Z</time>
      </trkpt>
      <trkpt lat="48.78452" lon="2.494">
        <ele>28.1</ele>
        <time>2024-11-24T13:19:13.000Z</time>
      </trkpt>
      <trkpt lat="48.78453" lon="2.49407">
        <ele>27.7</ele>
        <time>2024-11-24T13:19:19.000Z</time>
      </trkpt>
      <trkpt lat="48.78454" lon="2.49416">
        <ele>27.15</ele>
        <time>2024-11-24T13:19:22.000Z</time>
      </trkpt>
      <trkpt lat="48.78455" lon="2.49423">
        <ele>26.89</ele>
        <time>2024-11-24T13:19:27.000Z</time>
      </trkpt>
      <trkpt lat="48.78455" lon="2.4943">
        <ele>28.48</ele>
        <time>2024-11-24T13:19:35.000Z</time>
      </trkpt>
      <trkpt lat="48.78456" lon="2.49437">
        <ele>29.22</ele>
        <time>2024-11-24T13:19:41.000Z</time>
      </trkpt>
      <trkpt lat="48.78457" lon="2.49445">
        <ele>31.39</ele>
        <time>2024-11-24T13:19:47.000Z</time>
      </trkpt>
      <trkpt lat="48.78461" lon="2.49448">
        <ele>34.02</ele>
        <time>2024-11-24T13:19:53.000Z</time>
      </trkpt>
      <trkpt lat="48.78464" lon="2.49454">
        <ele>36.82</ele>
        <time>2024-11-24T13:20:17.000Z</time>
      </trkpt>
      <trkpt lat="48.78465" lon="2.49461">
        <ele>35.18</ele>
        <time>2024-11-24T13:20:26.000Z</time>
      </trkpt>
      <trkpt lat="48.78465" lon="2.49469">
        <ele>33.31</ele>
        <time>2024-11-24T13:20:33.000Z</time>
      </trkpt>
      <trkpt lat="48.78466" lon="2.49476">
        <ele>33.69</ele>
        <time>2024-11-24T13:20:38.000Z</time>
      </trkpt>
      <trkpt lat="48.78467" lon="2.49483">
        <ele>32.27</ele>
        <time>2024-11-24T13:20:43.000Z</time>
      </trkpt>
      <trkpt lat="48.78468" lon="2.4949">
        <ele>32.97</ele>
        <time>2024-11-24T13:20:48.000Z</time>
      </trkpt>
      <trkpt lat="48.78469" lon="2.49499">
        <ele>31.63</ele>
        <time>2024-11-24T13:20:53.000Z</time>
      </trkpt>
      <trkpt lat="48.7847" lon="2.49506">
        <ele>30.14</ele>
        <time>2024-11-24T13:20:55.000Z</time>
      </trkpt>
      <trkpt lat="48.78464" lon="2.49504">
        <ele>30.98</ele>
        <time>2024-11-24T13:21:13.000Z</time>
      </trkpt>
      <trkpt lat="48.78465" lon="2.49512">
        <ele>29.79</ele>
        <time>2024-11-24T13:21:17.000Z</time>
      </trkpt>
      <trkpt lat="48.78466" lon="2.4952">
        <ele>29.55</ele>
        <time>2024-11-24T13:21:21.000Z</time>
      </trkpt>
      <trkpt lat="48.78467" lon="2.49527">
        <ele>29.48</ele>
        <time>2024-11-24T13:21:25.000Z</time>
      </trkpt>
      <trkpt lat="48.7847" lon="2.49533">
        <ele>29.6</ele>
        <time>2024-11-24T13:21:30.000Z</time>
      </trkpt>
      <trkpt lat="48.78471" lon="2.49541">
        <ele>28.09</ele>
        <time>2024-11-24T13:21:35.000Z</time>
      </trkpt>
      <trkpt lat="48.78473" lon="2.49547">
        <ele>26.79</ele>
        <time>2024-11-24T13:21:38.000Z</time>
      </trkpt>
      <trkpt lat="48.78475" lon="2.49554">
        <ele>26.36</ele>
        <time>2024-11-24T13:21:41.000Z</time>
      </trkpt>
      <trkpt lat="48.78475" lon="2.49563">
        <ele>27.01</ele>
        <time>2024-11-24T13:21:44.000Z</time>
      </trkpt>
      <trkpt lat="48.78476" lon="2.4957">
        <ele>30.6</ele>
        <time>2024-11-24T13:21:48.000Z</time>
      </trkpt>
      <trkpt lat="48.78476" lon="2.49577">
        <ele>34.88</ele>
        <time>2024-11-24T13:21:54.000Z</time>
      </trkpt>
      <trkpt lat="48.78476" lon="2.49585">
        <ele>37.87</ele>
        <time>2024-11-24T13:22:00.000Z</time>
      </trkpt>
      <trkpt lat="48.78476" lon="2.49593">
        <ele>38.83</ele>
        <time>2024-11-24T13:22:05.000Z</time>
      </trkpt>
      <trkpt lat="48.78476" lon="2.49602">
        <ele>37.28</ele>
        <time>2024-11-24T13:22:11.000Z</time>
      </trkpt>
      <trkpt lat="48.78476" lon="2.4961">
        <ele>36.46</ele>
        <time>2024-11-24T13:22:17.000Z</time>
      </trkpt>
      <trkpt lat="48.78477" lon="2.49617">
        <ele>34.8</ele>
        <time>2024-11-24T13:22:23.000Z</time>
      </trkpt>
      <trkpt lat="48.78477" lon="2.49625">
        <ele>33.74</ele>
        <time>2024-11-24T13:22:26.000Z</time>
      </trkpt>
      <trkpt lat="48.78478" lon="2.49633">
        <ele>29.79</ele>
        <time>2024-11-24T13:22:32.000Z</time>
      </trkpt>
      <trkpt lat="48.78478" lon="2.49641">
        <ele>29.06</ele>
        <time>2024-11-24T13:22:39.000Z</time>
      </trkpt>
      <trkpt lat="48.78479" lon="2.49648">
        <ele>28.82</ele>
        <time>2024-11-24T13:22:45.000Z</time>
      </trkpt>
      <trkpt lat="48.7848" lon="2.49656">
        <ele>27.6</ele>
        <time>2024-11-24T13:22:50.000Z</time>
      </trkpt>
      <trkpt lat="48.78481" lon="2.49664">
        <ele>26.9</ele>
        <time>2024-11-24T13:22:55.000Z</time>
      </trkpt>
      <trkpt lat="48.78481" lon="2.49671">
        <ele>25.75</ele>
        <time>2024-11-24T13:23:01.000Z</time>
      </trkpt>
      <trkpt lat="48.78482" lon="2.49678">
        <ele>24.27</ele>
        <time>2024-11-24T13:23:06.000Z</time>
      </trkpt>
      <trkpt lat="48.78483" lon="2.49685">
        <ele>22.13</ele>
        <time>2024-11-24T13:23:12.000Z</time>
      </trkpt>
      <trkpt lat="48.78484" lon="2.49692">
        <ele>21.77</ele>
        <time>2024-11-24T13:23:17.000Z</time>
      </trkpt>
      <trkpt lat="48.78485" lon="2.49699">
        <ele>22.13</ele>
        <time>2024-11-24T13:23:21.000Z</time>
      </trkpt>
      <trkpt lat="48.78486" lon="2.49708">
        <ele>21.68</ele>
        <time>2024-11-24T13:23:26.000Z</time>
      </trkpt>
      <trkpt lat="48.78487" lon="2.49715">
        <ele>21.3</ele>
        <time>2024-11-24T13:23:31.000Z</time>
      </trkpt>
      <trkpt lat="48.78487" lon="2.49723">
        <ele>21.28</ele>
        <time>2024-11-24T13:23:37.000Z</time>
      </trkpt>
      <trkpt lat="48.78488" lon="2.4973">
        <ele>20.37</ele>
        <time>2024-11-24T13:23:41.000Z</time>
      </trkpt>
      <trkpt lat="48.78489" lon="2.49737">
        <ele>19.41</ele>
        <time>2024-11-24T13:23:46.000Z</time>
      </trkpt>
      <trkpt lat="48.78489" lon="2.49747">
        <ele>19.02</ele>
        <time>2024-11-24T13:23:51.000Z</time>
      </trkpt>
      <trkpt lat="48.7849" lon="2.49754">
        <ele>18.83</ele>
        <time>2024-11-24T13:23:57.000Z</time>
      </trkpt>
      <trkpt lat="48.78491" lon="2.49762">
        <ele>18.82</ele>
        <time>2024-11-24T13:24:02.000Z</time>
      </trkpt>
      <trkpt lat="48.78491" lon="2.4977">
        <ele>18.67</ele>
        <time>2024-11-24T13:24:06.000Z</time>
      </trkpt>
      <trkpt lat="48.78492" lon="2.49777">
        <ele>19.66</ele>
        <time>2024-11-24T13:24:10.000Z</time>
      </trkpt>
      <trkpt lat="48.78492" lon="2.49784">
        <ele>19.33</ele>
        <time>2024-11-24T13:24:13.000Z</time>
      </trkpt>
      <trkpt lat="48.78493" lon="2.49792">
        <ele>18.99</ele>
        <time>2024-11-24T13:24:19.000Z</time>
      </trkpt>
      <trkpt lat="48.78493" lon="2.49798">
        <ele>19.72</ele>
        <time>2024-11-24T13:24:23.000Z</time>
      </trkpt>
      <trkpt lat="48.78494" lon="2.49807">
        <ele>20.03</ele>
        <time>2024-11-24T13:24:28.000Z</time>
      </trkpt>
      <trkpt lat="48.78494" lon="2.49814">
        <ele>19.32</ele>
        <time>2024-11-24T13:24:32.000Z</time>
      </trkpt>
      <trkpt lat="48.78493" lon="2.49821">
        <ele>20.13</ele>
        <time>2024-11-24T13:24:41.000Z</time>
      </trkpt>
      <trkpt lat="48.78494" lon="2.49828">
        <ele>20.05</ele>
        <time>2024-11-24T13:24:46.000Z</time>
      </trkpt>
      <trkpt lat="48.78494" lon="2.49835">
        <ele>20.26</ele>
        <time>2024-11-24T13:24:52.000Z</time>
      </trkpt>
      <trkpt lat="48.78495" lon="2.49842">
        <ele>19.31</ele>
        <time>2024-11-24T13:24:57.000Z</time>
      </trkpt>
      <trkpt lat="48.78495" lon="2.4985">
        <ele>18.62</ele>
        <time>2024-11-24T13:25:02.000Z</time>
      </trkpt>
      <trkpt lat="48.78495" lon="2.49857">
        <ele>17.94</ele>
        <time>2024-11-24T13:25:06.000Z</time>
      </trkpt>
      <trkpt lat="48.78495" lon="2.49865">
        <ele>18</ele>
        <time>2024-11-24T13:25:11.000Z</time>
      </trkpt>
      <trkpt lat="48.78496" lon="2.49872">
        <ele>19.56</ele>
        <time>2024-11-24T13:25:16.000Z</time>
      </trkpt>
      <trkpt lat="48.78496" lon="2.49879">
        <ele>20.09</ele>
        <time>2024-11-24T13:25:20.000Z</time>
      </trkpt>
      <trkpt lat="48.78496" lon="2.49886">
        <ele>20.01</ele>
        <time>2024-11-24T13:25:24.000Z</time>
      </trkpt>
      <trkpt lat="48.78496" lon="2.49894">
        <ele>20</ele>
        <time>2024-11-24T13:25:28.000Z</time>
      </trkpt>
      <trkpt lat="48.78498" lon="2.49901">
        <ele>20.84</ele>
        <time>2024-11-24T13:25:33.000Z</time>
      </trkpt>
      <trkpt lat="48.78498" lon="2.49909">
        <ele>20.3</ele>
        <time>2024-11-24T13:25:39.000Z</time>
      </trkpt>
      <trkpt lat="48.78498" lon="2.49916">
        <ele>21.79</ele>
        <time>2024-11-24T13:25:45.000Z</time>
      </trkpt>
      <trkpt lat="48.78498" lon="2.49923">
        <ele>23.72</ele>
        <time>2024-11-24T13:25:52.000Z</time>
      </trkpt>
      <trkpt lat="48.78497" lon="2.49931">
        <ele>25.16</ele>
        <time>2024-11-24T13:25:59.000Z</time>
      </trkpt>
      <trkpt lat="48.78496" lon="2.49938">
        <ele>24.98</ele>
        <time>2024-11-24T13:26:04.000Z</time>
      </trkpt>
      <trkpt lat="48.78496" lon="2.49944">
        <ele>26.26</ele>
        <time>2024-11-24T13:26:12.000Z</time>
      </trkpt>
      <trkpt lat="48.78496" lon="2.49953">
        <ele>27.16</ele>
        <time>2024-11-24T13:26:17.000Z</time>
      </trkpt>
      <trkpt lat="48.78496" lon="2.4996">
        <ele>27.13</ele>
        <time>2024-11-24T13:26:22.000Z</time>
      </trkpt>
      <trkpt lat="48.78496" lon="2.49967">
        <ele>28.31</ele>
        <time>2024-11-24T13:26:28.000Z</time>
      </trkpt>
      <trkpt lat="48.78496" lon="2.49974">
        <ele>28.71</ele>
        <time>2024-11-24T13:26:33.000Z</time>
      </trkpt>
      <trkpt lat="48.78496" lon="2.49982">
        <ele>27.51</ele>
        <time>2024-11-24T13:26:37.000Z</time>
      </trkpt>
      <trkpt lat="48.78495" lon="2.4999">
        <ele>27.2</ele>
        <time>2024-11-24T13:26:42.000Z</time>
      </trkpt>
      <trkpt lat="48.78495" lon="2.49998">
        <ele>29.21</ele>
        <time>2024-11-24T13:26:48.000Z</time>
      </trkpt>
      <trkpt lat="48.78495" lon="2.50005">
        <ele>29.25</ele>
        <time>2024-11-24T13:26:52.000Z</time>
      </trkpt>
      <trkpt lat="48.78495" lon="2.50012">
        <ele>30.38</ele>
        <time>2024-11-24T13:26:57.000Z</time>
      </trkpt>
      <trkpt lat="48.78495" lon="2.5002">
        <ele>29.05</ele>
        <time>2024-11-24T13:27:03.000Z</time>
      </trkpt>
      <trkpt lat="48.78495" lon="2.50027">
        <ele>29.21</ele>
        <time>2024-11-24T13:27:08.000Z</time>
      </trkpt>
      <trkpt lat="48.78494" lon="2.50036">
        <ele>29.99</ele>
        <time>2024-11-24T13:27:13.000Z</time>
      </trkpt>
      <trkpt lat="48.78494" lon="2.50043">
        <ele>29.78</ele>
        <time>2024-11-24T13:27:20.000Z</time>
      </trkpt>
      <trkpt lat="48.78495" lon="2.5005">
        <ele>30.71</ele>
        <time>2024-11-24T13:27:28.000Z</time>
      </trkpt>
      <trkpt lat="48.78495" lon="2.50057">
        <ele>31.48</ele>
        <time>2024-11-24T13:27:36.000Z</time>
      </trkpt>
      <trkpt lat="48.78495" lon="2.50065">
        <ele>30.71</ele>
        <time>2024-11-24T13:27:41.000Z</time>
      </trkpt>
      <trkpt lat="48.78495" lon="2.50074">
        <ele>30.94</ele>
        <time>2024-11-24T13:27:45.000Z</time>
      </trkpt>
      <trkpt lat="48.78495" lon="2.50081">
        <ele>32.6</ele>
        <time>2024-11-24T13:27:49.000Z</time>
      </trkpt>
      <trkpt lat="48.78495" lon="2.50089">
        <ele>30.24</ele>
        <time>2024-11-24T13:28:00.000Z</time>
      </trkpt>
      <trkpt lat="48.78494" lon="2.50096">
        <ele>28.68</ele>
        <time>2024-11-24T13:28:05.000Z</time>
      </trkpt>
      <trkpt lat="48.78494" lon="2.50105">
        <ele>27.37</ele>
        <time>2024-11-24T13:28:09.000Z</time>
      </trkpt>
      <trkpt lat="48.78493" lon="2.50111">
        <ele>26.16</ele>
        <time>2024-11-24T13:28:12.000Z</time>
      </trkpt>
      <trkpt lat="48.78493" lon="2.5012">
        <ele>25.36</ele>
        <time>2024-11-24T13:28:18.000Z</time>
      </trkpt>
      <trkpt lat="48.78492" lon="2.50128">
        <ele>25.69</ele>
        <time>2024-11-24T13:28:22.000Z</time>
      </trkpt>
      <trkpt lat="48.78491" lon="2.50136">
        <ele>19.87</ele>
        <time>2024-11-24T13:28:29.000Z</time>
      </trkpt>
      <trkpt lat="48.78491" lon="2.50143">
        <ele>20.62</ele>
        <time>2024-11-24T13:28:34.000Z</time>
      </trkpt>
      <trkpt lat="48.7849" lon="2.5015">
        <ele>24.1</ele>
        <time>2024-11-24T13:28:40.000Z</time>
      </trkpt>
      <trkpt lat="48.78489" lon="2.50158">
        <ele>25.1</ele>
        <time>2024-11-24T13:28:44.000Z</time>
      </trkpt>
      <trkpt lat="48.78489" lon="2.50165">
        <ele>24.34</ele>
        <time>2024-11-24T13:28:48.000Z</time>
      </trkpt>
      <trkpt lat="48.78488" lon="2.50172">
        <ele>23.85</ele>
        <time>2024-11-24T13:28:54.000Z</time>
      </trkpt>
      <trkpt lat="48.78488" lon="2.5018">
        <ele>25.2</ele>
        <time>2024-11-24T13:29:02.000Z</time>
      </trkpt>
      <trkpt lat="48.78487" lon="2.50187">
        <ele>26.43</ele>
        <time>2024-11-24T13:29:06.000Z</time>
      </trkpt>
      <trkpt lat="48.78486" lon="2.50194">
        <ele>26.41</ele>
        <time>2024-11-24T13:29:09.000Z</time>
      </trkpt>
      <trkpt lat="48.78486" lon="2.50203">
        <ele>28.57</ele>
        <time>2024-11-24T13:29:13.000Z</time>
      </trkpt>
      <trkpt lat="48.78485" lon="2.50211">
        <ele>28.57</ele>
        <time>2024-11-24T13:29:18.000Z</time>
      </trkpt>
      <trkpt lat="48.78485" lon="2.50218">
        <ele>28.2</ele>
        <time>2024-11-24T13:29:25.000Z</time>
      </trkpt>
      <trkpt lat="48.78484" lon="2.50226">
        <ele>26.65</ele>
        <time>2024-11-24T13:29:32.000Z</time>
      </trkpt>
      <trkpt lat="48.78484" lon="2.50233">
        <ele>23.59</ele>
        <time>2024-11-24T13:29:35.000Z</time>
      </trkpt>
      <trkpt lat="48.78483" lon="2.50243">
        <ele>23.74</ele>
        <time>2024-11-24T13:29:39.000Z</time>
      </trkpt>
      <trkpt lat="48.78483" lon="2.5025">
        <ele>19.06</ele>
        <time>2024-11-24T13:29:47.000Z</time>
      </trkpt>
      <trkpt lat="48.78482" lon="2.50259">
        <ele>17.92</ele>
        <time>2024-11-24T13:29:52.000Z</time>
      </trkpt>
      <trkpt lat="48.78481" lon="2.50266">
        <ele>21.99</ele>
        <time>2024-11-24T13:29:55.000Z</time>
      </trkpt>
      <trkpt lat="48.78481" lon="2.50274">
        <ele>23.21</ele>
        <time>2024-11-24T13:29:59.000Z</time>
      </trkpt>
      <trkpt lat="48.7848" lon="2.50281">
        <ele>22.41</ele>
        <time>2024-11-24T13:30:03.000Z</time>
      </trkpt>
      <trkpt lat="48.7848" lon="2.50292">
        <ele>24.77</ele>
        <time>2024-11-24T13:30:08.000Z</time>
      </trkpt>
      <trkpt lat="48.78479" lon="2.503">
        <ele>28.3</ele>
        <time>2024-11-24T13:30:11.000Z</time>
      </trkpt>
      <trkpt lat="48.78479" lon="2.50307">
        <ele>27.89</ele>
        <time>2024-11-24T13:30:21.000Z</time>
      </trkpt>
      <trkpt lat="48.78478" lon="2.50315">
        <ele>26.15</ele>
        <time>2024-11-24T13:30:27.000Z</time>
      </trkpt>
      <trkpt lat="48.78478" lon="2.50323">
        <ele>26.06</ele>
        <time>2024-11-24T13:30:31.000Z</time>
      </trkpt>
      <trkpt lat="48.78477" lon="2.5033">
        <ele>24.29</ele>
        <time>2024-11-24T13:30:37.000Z</time>
      </trkpt>
      <trkpt lat="48.78477" lon="2.50337">
        <ele>22.53</ele>
        <time>2024-11-24T13:30:42.000Z</time>
      </trkpt>
      <trkpt lat="48.78476" lon="2.50344">
        <ele>22.51</ele>
        <time>2024-11-24T13:30:47.000Z</time>
      </trkpt>
      <trkpt lat="48.78475" lon="2.50352">
        <ele>21.89</ele>
        <time>2024-11-24T13:30:53.000Z</time>
      </trkpt>
      <trkpt lat="48.78475" lon="2.50359">
        <ele>21.37</ele>
        <time>2024-11-24T13:30:58.000Z</time>
      </trkpt>
      <trkpt lat="48.78475" lon="2.50366">
        <ele>22.05</ele>
        <time>2024-11-24T13:31:13.000Z</time>
      </trkpt>
      <trkpt lat="48.78473" lon="2.50375">
        <ele>22.33</ele>
        <time>2024-11-24T13:31:18.000Z</time>
      </trkpt>
      <trkpt lat="48.78473" lon="2.50382">
        <ele>23.23</ele>
        <time>2024-11-24T13:31:23.000Z</time>
      </trkpt>
      <trkpt lat="48.78472" lon="2.50389">
        <ele>24.4</ele>
        <time>2024-11-24T13:31:29.000Z</time>
      </trkpt>
      <trkpt lat="48.78472" lon="2.50397">
        <ele>23.8</ele>
        <time>2024-11-24T13:31:33.000Z</time>
      </trkpt>
      <trkpt lat="48.78471" lon="2.50405">
        <ele>22.27</ele>
        <time>2024-11-24T13:31:37.000Z</time>
      </trkpt>
      <trkpt lat="48.78471" lon="2.50413">
        <ele>21.5</ele>
        <time>2024-11-24T13:31:42.000Z</time>
      </trkpt>
      <trkpt lat="48.7847" lon="2.5042">
        <ele>24.51</ele>
        <time>2024-11-24T13:31:43.000Z</time>
      </trkpt>
      <trkpt lat="48.7847" lon="2.50429">
        <ele>27.65</ele>
        <time>2024-11-24T13:31:54.000Z</time>
      </trkpt>
      <trkpt lat="48.78469" lon="2.50444">
        <ele>24.29</ele>
        <time>2024-11-24T13:32:01.000Z</time>
      </trkpt>
      <trkpt lat="48.78467" lon="2.50456">
        <ele>20.91</ele>
        <time>2024-11-24T13:32:09.000Z</time>
      </trkpt>
      <trkpt lat="48.78466" lon="2.50464">
        <ele>19.12</ele>
        <time>2024-11-24T13:32:18.000Z</time>
      </trkpt>
      <trkpt lat="48.78465" lon="2.50471">
        <ele>19.56</ele>
        <time>2024-11-24T13:32:25.000Z</time>
      </trkpt>
      <trkpt lat="48.78465" lon="2.50478">
        <ele>19.64</ele>
        <time>2024-11-24T13:32:34.000Z</time>
      </trkpt>
      <trkpt lat="48.78464" lon="2.50488">
        <ele>19.38</ele>
        <time>2024-11-24T13:32:38.000Z</time>
      </trkpt>
      <trkpt lat="48.78464" lon="2.50497">
        <ele>18.97</ele>
        <time>2024-11-24T13:32:41.000Z</time>
      </trkpt>
      <trkpt lat="48.78463" lon="2.5051">
        <ele>21.71</ele>
        <time>2024-11-24T13:32:46.000Z</time>
      </trkpt>
      <trkpt lat="48.78462" lon="2.5052">
        <ele>24.36</ele>
        <time>2024-11-24T13:32:52.000Z</time>
      </trkpt>
      <trkpt lat="48.78461" lon="2.50532">
        <ele>21.71</ele>
        <time>2024-11-24T13:33:00.000Z</time>
      </trkpt>
      <trkpt lat="48.78461" lon="2.50539">
        <ele>20.84</ele>
        <time>2024-11-24T13:33:08.000Z</time>
      </trkpt>
      <trkpt lat="48.78455" lon="2.50542">
        <ele>22.43</ele>
        <time>2024-11-24T13:33:09.000Z</time>
      </trkpt>
      <trkpt lat="48.78452" lon="2.50549">
        <ele>22.54</ele>
        <time>2024-11-24T13:33:17.000Z</time>
      </trkpt>
      <trkpt lat="48.78451" lon="2.50556">
        <ele>21.09</ele>
        <time>2024-11-24T13:33:23.000Z</time>
      </trkpt>
      <trkpt lat="48.78451" lon="2.50564">
        <ele>20.72</ele>
        <time>2024-11-24T13:33:28.000Z</time>
      </trkpt>
      <trkpt lat="48.78451" lon="2.50571">
        <ele>20.34</ele>
        <time>2024-11-24T13:33:33.000Z</time>
      </trkpt>
      <trkpt lat="48.78452" lon="2.50578">
        <ele>21.25</ele>
        <time>2024-11-24T13:33:37.000Z</time>
      </trkpt>
      <trkpt lat="48.78454" lon="2.50585">
        <ele>20.76</ele>
        <time>2024-11-24T13:33:42.000Z</time>
      </trkpt>
      <trkpt lat="48.78454" lon="2.50593">
        <ele>20.7</ele>
        <time>2024-11-24T13:33:47.000Z</time>
      </trkpt>
      <trkpt lat="48.78454" lon="2.506">
        <ele>20.86</ele>
        <time>2024-11-24T13:33:51.000Z</time>
      </trkpt>
      <trkpt lat="48.78454" lon="2.50608">
        <ele>20.6</ele>
        <time>2024-11-24T13:33:57.000Z</time>
      </trkpt>
      <trkpt lat="48.78453" lon="2.50616">
        <ele>20.24</ele>
        <time>2024-11-24T13:34:02.000Z</time>
      </trkpt>
      <trkpt lat="48.78453" lon="2.50624">
        <ele>20.36</ele>
        <time>2024-11-24T13:34:07.000Z</time>
      </trkpt>
      <trkpt lat="48.78452" lon="2.50631">
        <ele>20.44</ele>
        <time>2024-11-24T13:34:11.000Z</time>
      </trkpt>
      <trkpt lat="48.78452" lon="2.50638">
        <ele>20.25</ele>
        <time>2024-11-24T13:34:16.000Z</time>
      </trkpt>
      <trkpt lat="48.78452" lon="2.50645">
        <ele>20.59</ele>
        <time>2024-11-24T13:34:20.000Z</time>
      </trkpt>
      <trkpt lat="48.78453" lon="2.50654">
        <ele>21.47</ele>
        <time>2024-11-24T13:34:25.000Z</time>
      </trkpt>
      <trkpt lat="48.78453" lon="2.50661">
        <ele>23.17</ele>
        <time>2024-11-24T13:34:29.000Z</time>
      </trkpt>
      <trkpt lat="48.78455" lon="2.50668">
        <ele>24.67</ele>
        <time>2024-11-24T13:34:39.000Z</time>
      </trkpt>
      <trkpt lat="48.78454" lon="2.50683">
        <ele>29.01</ele>
        <time>2024-11-24T13:34:51.000Z</time>
      </trkpt>
      <trkpt lat="48.78454" lon="2.50692">
        <ele>32.87</ele>
        <time>2024-11-24T13:34:57.000Z</time>
      </trkpt>
      <trkpt lat="48.78456" lon="2.50698">
        <ele>29.31</ele>
        <time>2024-11-24T13:35:07.000Z</time>
      </trkpt>
      <trkpt lat="48.78455" lon="2.50706">
        <ele>28.66</ele>
        <time>2024-11-24T13:35:11.000Z</time>
      </trkpt>
      <trkpt lat="48.78456" lon="2.50715">
        <ele>22.25</ele>
        <time>2024-11-24T13:35:12.000Z</time>
      </trkpt>
      <trkpt lat="48.78457" lon="2.50737">
        <ele>41.61</ele>
        <time>2024-11-24T13:35:13.000Z</time>
      </trkpt>
      <trkpt lat="48.78455" lon="2.50744">
        <ele>42.53</ele>
        <time>2024-11-24T13:35:24.000Z</time>
      </trkpt>
      <trkpt lat="48.78451" lon="2.5075">
        <ele>39.68</ele>
        <time>2024-11-24T13:35:35.000Z</time>
      </trkpt>
      <trkpt lat="48.78448" lon="2.50758">
        <ele>37.64</ele>
        <time>2024-11-24T13:35:40.000Z</time>
      </trkpt>
      <trkpt lat="48.78447" lon="2.50766">
        <ele>34.02</ele>
        <time>2024-11-24T13:35:46.000Z</time>
      </trkpt>
      <trkpt lat="48.78447" lon="2.50773">
        <ele>33.49</ele>
        <time>2024-11-24T13:35:50.000Z</time>
      </trkpt>
      <trkpt lat="48.78446" lon="2.5078">
        <ele>32.06</ele>
        <time>2024-11-24T13:35:54.000Z</time>
      </trkpt>
      <trkpt lat="48.78446" lon="2.50788">
        <ele>30.98</ele>
        <time>2024-11-24T13:35:58.000Z</time>
      </trkpt>
      <trkpt lat="48.78446" lon="2.50796">
        <ele>30.44</ele>
        <time>2024-11-24T13:36:03.000Z</time>
      </trkpt>
      <trkpt lat="48.78447" lon="2.50803">
        <ele>29.64</ele>
        <time>2024-11-24T13:36:07.000Z</time>
      </trkpt>
      <trkpt lat="48.78447" lon="2.50811">
        <ele>29.84</ele>
        <time>2024-11-24T13:36:12.000Z</time>
      </trkpt>
      <trkpt lat="48.78448" lon="2.50819">
        <ele>29.87</ele>
        <time>2024-11-24T13:36:17.000Z</time>
      </trkpt>
      <trkpt lat="48.78448" lon="2.50827">
        <ele>29.88</ele>
        <time>2024-11-24T13:36:22.000Z</time>
      </trkpt>
      <trkpt lat="48.78448" lon="2.50834">
        <ele>29.65</ele>
        <time>2024-11-24T13:36:26.000Z</time>
      </trkpt>
      <trkpt lat="48.78449" lon="2.50841">
        <ele>28.07</ele>
        <time>2024-11-24T13:36:35.000Z</time>
      </trkpt>
      <trkpt lat="48.78449" lon="2.50849">
        <ele>27.11</ele>
        <time>2024-11-24T13:36:40.000Z</time>
      </trkpt>
      <trkpt lat="48.78451" lon="2.50856">
        <ele>26.43</ele>
        <time>2024-11-24T13:36:46.000Z</time>
      </trkpt>
      <trkpt lat="48.78452" lon="2.50863">
        <ele>27.07</ele>
        <time>2024-11-24T13:36:52.000Z</time>
      </trkpt>
      <trkpt lat="48.78452" lon="2.5087">
        <ele>25.74</ele>
        <time>2024-11-24T13:37:01.000Z</time>
      </trkpt>
      <trkpt lat="48.78452" lon="2.50878">
        <ele>26.01</ele>
        <time>2024-11-24T13:37:07.000Z</time>
      </trkpt>
      <trkpt lat="48.78453" lon="2.50885">
        <ele>26.38</ele>
        <time>2024-11-24T13:37:11.000Z</time>
      </trkpt>
      <trkpt lat="48.7845" lon="2.50892">
        <ele>26.93</ele>
        <time>2024-11-24T13:37:17.000Z</time>
      </trkpt>
      <trkpt lat="48.78448" lon="2.50899">
        <ele>26.98</ele>
        <time>2024-11-24T13:37:22.000Z</time>
      </trkpt>
      <trkpt lat="48.78446" lon="2.50908">
        <ele>26.49</ele>
        <time>2024-11-24T13:37:27.000Z</time>
      </trkpt>
      <trkpt lat="48.78444" lon="2.50915">
        <ele>26.21</ele>
        <time>2024-11-24T13:37:31.000Z</time>
      </trkpt>
      <trkpt lat="48.78444" lon="2.50923">
        <ele>25.75</ele>
        <time>2024-11-24T13:37:36.000Z</time>
      </trkpt>
      <trkpt lat="48.78444" lon="2.5093">
        <ele>25.34</ele>
        <time>2024-11-24T13:37:41.000Z</time>
      </trkpt>
      <trkpt lat="48.78445" lon="2.50937">
        <ele>24.14</ele>
        <time>2024-11-24T13:37:48.000Z</time>
      </trkpt>
      <trkpt lat="48.78443" lon="2.50945">
        <ele>21.85</ele>
        <time>2024-11-24T13:37:54.000Z</time>
      </trkpt>
      <trkpt lat="48.78442" lon="2.50952">
        <ele>20.97</ele>
        <time>2024-11-24T13:37:59.000Z</time>
      </trkpt>
      <trkpt lat="48.78441" lon="2.50959">
        <ele>20.73</ele>
        <time>2024-11-24T13:38:04.000Z</time>
      </trkpt>
      <trkpt lat="48.7844" lon="2.50967">
        <ele>21.14</ele>
        <time>2024-11-24T13:38:08.000Z</time>
      </trkpt>
      <trkpt lat="48.78441" lon="2.50973">
        <ele>21.7</ele>
        <time>2024-11-24T13:38:11.000Z</time>
      </trkpt>
      <trkpt lat="48.78443" lon="2.5098">
        <ele>22.92</ele>
        <time>2024-11-24T13:38:16.000Z</time>
      </trkpt>
      <trkpt lat="48.78444" lon="2.50987">
        <ele>24.81</ele>
        <time>2024-11-24T13:38:21.000Z</time>
      </trkpt>
      <trkpt lat="48.78443" lon="2.50995">
        <ele>24.18</ele>
        <time>2024-11-24T13:38:27.000Z</time>
      </trkpt>
      <trkpt lat="48.78445" lon="2.51002">
        <ele>23.52</ele>
        <time>2024-11-24T13:38:32.000Z</time>
      </trkpt>
      <trkpt lat="48.78446" lon="2.51009">
        <ele>22.35</ele>
        <time>2024-11-24T13:38:38.000Z</time>
      </trkpt>
      <trkpt lat="48.78446" lon="2.51017">
        <ele>23.88</ele>
        <time>2024-11-24T13:39:03.000Z</time>
      </trkpt>
      <trkpt lat="48.78449" lon="2.51023">
        <ele>23.66</ele>
        <time>2024-11-24T13:39:07.000Z</time>
      </trkpt>
      <trkpt lat="48.7845" lon="2.5103">
        <ele>23.24</ele>
        <time>2024-11-24T13:39:13.000Z</time>
      </trkpt>
      <trkpt lat="48.78452" lon="2.51037">
        <ele>23.01</ele>
        <time>2024-11-24T13:39:18.000Z</time>
      </trkpt>
      <trkpt lat="48.78455" lon="2.51042">
        <ele>24.21</ele>
        <time>2024-11-24T13:39:26.000Z</time>
      </trkpt>
      <trkpt lat="48.78455" lon="2.51049">
        <ele>25.57</ele>
        <time>2024-11-24T13:39:40.000Z</time>
      </trkpt>
      <trkpt lat="48.78456" lon="2.51057">
        <ele>25.61</ele>
        <time>2024-11-24T13:39:45.000Z</time>
      </trkpt>
      <trkpt lat="48.78457" lon="2.51064">
        <ele>24.86</ele>
        <time>2024-11-24T13:39:50.000Z</time>
      </trkpt>
      <trkpt lat="48.78459" lon="2.51071">
        <ele>24.29</ele>
        <time>2024-11-24T13:39:56.000Z</time>
      </trkpt>
      <trkpt lat="48.7846" lon="2.51079">
        <ele>24.44</ele>
        <time>2024-11-24T13:40:02.000Z</time>
      </trkpt>
      <trkpt lat="48.78461" lon="2.51086">
        <ele>25.07</ele>
        <time>2024-11-24T13:40:07.000Z</time>
      </trkpt>
      <trkpt lat="48.78464" lon="2.51092">
        <ele>25.07</ele>
        <time>2024-11-24T13:40:12.000Z</time>
      </trkpt>
      <trkpt lat="48.78465" lon="2.511">
        <ele>24.34</ele>
        <time>2024-11-24T13:40:17.000Z</time>
      </trkpt>
      <trkpt lat="48.78467" lon="2.51106">
        <ele>23.99</ele>
        <time>2024-11-24T13:40:22.000Z</time>
      </trkpt>
      <trkpt lat="48.7847" lon="2.51112">
        <ele>23.4</ele>
        <time>2024-11-24T13:40:26.000Z</time>
      </trkpt>
      <trkpt lat="48.78474" lon="2.51116">
        <ele>20.66</ele>
        <time>2024-11-24T13:40:31.000Z</time>
      </trkpt>
      <trkpt lat="48.78477" lon="2.51122">
        <ele>20.21</ele>
        <time>2024-11-24T13:40:36.000Z</time>
      </trkpt>
      <trkpt lat="48.7848" lon="2.51128">
        <ele>21.59</ele>
        <time>2024-11-24T13:40:41.000Z</time>
      </trkpt>
      <trkpt lat="48.78485" lon="2.51134">
        <ele>22.65</ele>
        <time>2024-11-24T13:40:46.000Z</time>
      </trkpt>
      <trkpt lat="48.78489" lon="2.51138">
        <ele>23.9</ele>
        <time>2024-11-24T13:40:52.000Z</time>
      </trkpt>
      <trkpt lat="48.78492" lon="2.51145">
        <ele>23.33</ele>
        <time>2024-11-24T13:40:58.000Z</time>
      </trkpt>
      <trkpt lat="48.78495" lon="2.51151">
        <ele>23.09</ele>
        <time>2024-11-24T13:41:03.000Z</time>
      </trkpt>
      <trkpt lat="48.78498" lon="2.51157">
        <ele>22.15</ele>
        <time>2024-11-24T13:41:08.000Z</time>
      </trkpt>
      <trkpt lat="48.78502" lon="2.51162">
        <ele>21.83</ele>
        <time>2024-11-24T13:41:14.000Z</time>
      </trkpt>
      <trkpt lat="48.78505" lon="2.51168">
        <ele>21.21</ele>
        <time>2024-11-24T13:41:20.000Z</time>
      </trkpt>
      <trkpt lat="48.7851" lon="2.5117">
        <ele>21.79</ele>
        <time>2024-11-24T13:41:25.000Z</time>
      </trkpt>
      <trkpt lat="48.78514" lon="2.51171">
        <ele>22.1</ele>
        <time>2024-11-24T13:41:30.000Z</time>
      </trkpt>
      <trkpt lat="48.78518" lon="2.51175">
        <ele>23.52</ele>
        <time>2024-11-24T13:41:38.000Z</time>
      </trkpt>
      <trkpt lat="48.78523" lon="2.51178">
        <ele>24.36</ele>
        <time>2024-11-24T13:44:12.000Z</time>
      </trkpt>
      <trkpt lat="48.78527" lon="2.51182">
        <ele>24.14</ele>
        <time>2024-11-24T13:44:17.000Z</time>
      </trkpt>
      <trkpt lat="48.78534" lon="2.51191">
        <ele>29.03</ele>
        <time>2024-11-24T13:44:24.000Z</time>
      </trkpt>
      <trkpt lat="48.78539" lon="2.51196">
        <ele>33.94</ele>
        <time>2024-11-24T13:44:26.000Z</time>
      </trkpt>
      <trkpt lat="48.78542" lon="2.51201">
        <ele>34.61</ele>
        <time>2024-11-24T13:44:39.000Z</time>
      </trkpt>
      <trkpt lat="48.78545" lon="2.51206">
        <ele>32.93</ele>
        <time>2024-11-24T13:44:45.000Z</time>
      </trkpt>
      <trkpt lat="48.78548" lon="2.51212">
        <ele>31.3</ele>
        <time>2024-11-24T13:44:51.000Z</time>
      </trkpt>
      <trkpt lat="48.78549" lon="2.51221">
        <ele>27.31</ele>
        <time>2024-11-24T13:44:57.000Z</time>
      </trkpt>
      <trkpt lat="48.78552" lon="2.51227">
        <ele>24.57</ele>
        <time>2024-11-24T13:45:02.000Z</time>
      </trkpt>
      <trkpt lat="48.78554" lon="2.51234">
        <ele>22.33</ele>
        <time>2024-11-24T13:45:09.000Z</time>
      </trkpt>
      <trkpt lat="48.78555" lon="2.51241">
        <ele>21.63</ele>
        <time>2024-11-24T13:45:15.000Z</time>
      </trkpt>
      <trkpt lat="48.78559" lon="2.51246">
        <ele>21.44</ele>
        <time>2024-11-24T13:45:21.000Z</time>
      </trkpt>
      <trkpt lat="48.7856" lon="2.51253">
        <ele>26.77</ele>
        <time>2024-11-24T13:45:26.000Z</time>
      </trkpt>
      <trkpt lat="48.78564" lon="2.51258">
        <ele>24.22</ele>
        <time>2024-11-24T13:45:31.000Z</time>
      </trkpt>
      <trkpt lat="48.78566" lon="2.51265">
        <ele>22.91</ele>
        <time>2024-11-24T13:45:36.000Z</time>
      </trkpt>
      <trkpt lat="48.78569" lon="2.51271">
        <ele>22.98</ele>
        <time>2024-11-24T13:45:41.000Z</time>
      </trkpt>
      <trkpt lat="48.78572" lon="2.51275">
        <ele>22.21</ele>
        <time>2024-11-24T13:45:46.000Z</time>
      </trkpt>
      <trkpt lat="48.78576" lon="2.51281">
        <ele>21.6</ele>
        <time>2024-11-24T13:45:53.000Z</time>
      </trkpt>
      <trkpt lat="48.7858" lon="2.51286">
        <ele>21.08</ele>
        <time>2024-11-24T13:45:58.000Z</time>
      </trkpt>
      <trkpt lat="48.78584" lon="2.5129">
        <ele>21.38</ele>
        <time>2024-11-24T13:46:02.000Z</time>
      </trkpt>
      <trkpt lat="48.78587" lon="2.51295">
        <ele>21.49</ele>
        <time>2024-11-24T13:46:07.000Z</time>
      </trkpt>
      <trkpt lat="48.78589" lon="2.51302">
        <ele>21.38</ele>
        <time>2024-11-24T13:46:11.000Z</time>
      </trkpt>
      <trkpt lat="48.78592" lon="2.51309">
        <ele>22.3</ele>
        <time>2024-11-24T13:46:16.000Z</time>
      </trkpt>
      <trkpt lat="48.78595" lon="2.51315">
        <ele>22.44</ele>
        <time>2024-11-24T13:46:22.000Z</time>
      </trkpt>
      <trkpt lat="48.78599" lon="2.51318">
        <ele>19.39</ele>
        <time>2024-11-24T13:46:30.000Z</time>
      </trkpt>
      <trkpt lat="48.78604" lon="2.51328">
        <ele>17.37</ele>
        <time>2024-11-24T13:46:35.000Z</time>
      </trkpt>
      <trkpt lat="48.78607" lon="2.51334">
        <ele>16.53</ele>
        <time>2024-11-24T13:46:41.000Z</time>
      </trkpt>
      <trkpt lat="48.78611" lon="2.51342">
        <ele>18.56</ele>
        <time>2024-11-24T13:46:46.000Z</time>
      </trkpt>
      <trkpt lat="48.78614" lon="2.51348">
        <ele>18.95</ele>
        <time>2024-11-24T13:46:51.000Z</time>
      </trkpt>
      <trkpt lat="48.78618" lon="2.51352">
        <ele>18.48</ele>
        <time>2024-11-24T13:46:56.000Z</time>
      </trkpt>
      <trkpt lat="48.7862" lon="2.51359">
        <ele>19.08</ele>
        <time>2024-11-24T13:47:00.000Z</time>
      </trkpt>
      <trkpt lat="48.78621" lon="2.51367">
        <ele>20.79</ele>
        <time>2024-11-24T13:47:04.000Z</time>
      </trkpt>
      <trkpt lat="48.78623" lon="2.51375">
        <ele>20.95</ele>
        <time>2024-11-24T13:47:08.000Z</time>
      </trkpt>
      <trkpt lat="48.78624" lon="2.51381">
        <ele>20.61</ele>
        <time>2024-11-24T13:47:12.000Z</time>
      </trkpt>
      <trkpt lat="48.78626" lon="2.51388">
        <ele>20.89</ele>
        <time>2024-11-24T13:47:17.000Z</time>
      </trkpt>
      <trkpt lat="48.78626" lon="2.51396">
        <ele>20.18</ele>
        <time>2024-11-24T13:47:21.000Z</time>
      </trkpt>
      <trkpt lat="48.78628" lon="2.51403">
        <ele>19.47</ele>
        <time>2024-11-24T13:47:25.000Z</time>
      </trkpt>
      <trkpt lat="48.7863" lon="2.5141">
        <ele>19.1</ele>
        <time>2024-11-24T13:47:30.000Z</time>
      </trkpt>
      <trkpt lat="48.78631" lon="2.51419">
        <ele>17.64</ele>
        <time>2024-11-24T13:47:36.000Z</time>
      </trkpt>
      <trkpt lat="48.78632" lon="2.51426">
        <ele>17.33</ele>
        <time>2024-11-24T13:47:40.000Z</time>
      </trkpt>
      <trkpt lat="48.78633" lon="2.51433">
        <ele>15.56</ele>
        <time>2024-11-24T13:47:45.000Z</time>
      </trkpt>
      <trkpt lat="48.78635" lon="2.5144">
        <ele>14.42</ele>
        <time>2024-11-24T13:47:51.000Z</time>
      </trkpt>
      <trkpt lat="48.78638" lon="2.51447">
        <ele>22.74</ele>
        <time>2024-11-24T13:47:56.000Z</time>
      </trkpt>
      <trkpt lat="48.78641" lon="2.51454">
        <ele>23.6</ele>
        <time>2024-11-24T13:48:01.000Z</time>
      </trkpt>
      <trkpt lat="48.78643" lon="2.51462">
        <ele>22.73</ele>
        <time>2024-11-24T13:48:06.000Z</time>
      </trkpt>
      <trkpt lat="48.78642" lon="2.51469">
        <ele>20.77</ele>
        <time>2024-11-24T13:48:08.000Z</time>
      </trkpt>
      <trkpt lat="48.78644" lon="2.51476">
        <ele>19.31</ele>
        <time>2024-11-24T13:48:14.000Z</time>
      </trkpt>
      <trkpt lat="48.78645" lon="2.51484">
        <ele>18.36</ele>
        <time>2024-11-24T13:48:20.000Z</time>
      </trkpt>
      <trkpt lat="48.78645" lon="2.51491">
        <ele>21.73</ele>
        <time>2024-11-24T13:48:26.000Z</time>
      </trkpt>
      <trkpt lat="48.78647" lon="2.51499">
        <ele>19.7</ele>
        <time>2024-11-24T13:48:32.000Z</time>
      </trkpt>
      <trkpt lat="48.78647" lon="2.51506">
        <ele>18.94</ele>
        <time>2024-11-24T13:48:37.000Z</time>
      </trkpt>
      <trkpt lat="48.78646" lon="2.51513">
        <ele>19.53</ele>
        <time>2024-11-24T13:48:40.000Z</time>
      </trkpt>
      <trkpt lat="48.78647" lon="2.5152">
        <ele>17.78</ele>
        <time>2024-11-24T13:48:45.000Z</time>
      </trkpt>
      <trkpt lat="48.7865" lon="2.51526">
        <ele>18.5</ele>
        <time>2024-11-24T13:48:50.000Z</time>
      </trkpt>
      <trkpt lat="48.78654" lon="2.51528">
        <ele>21.95</ele>
        <time>2024-11-24T13:48:54.000Z</time>
      </trkpt>
      <trkpt lat="48.78657" lon="2.51535">
        <ele>24.02</ele>
        <time>2024-11-24T13:49:05.000Z</time>
      </trkpt>
      <trkpt lat="48.78654" lon="2.51541">
        <ele>25.63</ele>
        <time>2024-11-24T13:49:08.000Z</time>
      </trkpt>
      <trkpt lat="48.78653" lon="2.5155">
        <ele>25.65</ele>
        <time>2024-11-24T13:49:13.000Z</time>
      </trkpt>
      <trkpt lat="48.78653" lon="2.51557">
        <ele>25.42</ele>
        <time>2024-11-24T13:49:19.000Z</time>
      </trkpt>
      <trkpt lat="48.78654" lon="2.51564">
        <ele>23.71</ele>
        <time>2024-11-24T13:49:24.000Z</time>
      </trkpt>
      <trkpt lat="48.78655" lon="2.51571">
        <ele>21.8</ele>
        <time>2024-11-24T13:49:30.000Z</time>
      </trkpt>
      <trkpt lat="48.78655" lon="2.51578">
        <ele>20.91</ele>
        <time>2024-11-24T13:49:35.000Z</time>
      </trkpt>
      <trkpt lat="48.78655" lon="2.51585">
        <ele>20.36</ele>
        <time>2024-11-24T13:49:39.000Z</time>
      </trkpt>
      <trkpt lat="48.78654" lon="2.51592">
        <ele>22.03</ele>
        <time>2024-11-24T13:49:43.000Z</time>
      </trkpt>
      <trkpt lat="48.78654" lon="2.51599">
        <ele>22.57</ele>
        <time>2024-11-24T13:49:50.000Z</time>
      </trkpt>
      <trkpt lat="48.78657" lon="2.51605">
        <ele>22.33</ele>
        <time>2024-11-24T13:50:00.000Z</time>
      </trkpt>
      <trkpt lat="48.78661" lon="2.5161">
        <ele>20.89</ele>
        <time>2024-11-24T13:50:07.000Z</time>
      </trkpt>
      <trkpt lat="48.78665" lon="2.51617">
        <ele>21.03</ele>
        <time>2024-11-24T13:50:12.000Z</time>
      </trkpt>
      <trkpt lat="48.78668" lon="2.51623">
        <ele>21.97</ele>
        <time>2024-11-24T13:50:17.000Z</time>
      </trkpt>
      <trkpt lat="48.78671" lon="2.51629">
        <ele>23.3</ele>
        <time>2024-11-24T13:50:23.000Z</time>
      </trkpt>
      <trkpt lat="48.78674" lon="2.51634">
        <ele>27.63</ele>
        <time>2024-11-24T13:50:28.000Z</time>
      </trkpt>
      <trkpt lat="48.78678" lon="2.51638">
        <ele>28.9</ele>
        <time>2024-11-24T13:50:35.000Z</time>
      </trkpt>
      <trkpt lat="48.7868" lon="2.51644">
        <ele>27.29</ele>
        <time>2024-11-24T13:50:43.000Z</time>
      </trkpt>
      <trkpt lat="48.78679" lon="2.51653">
        <ele>24.04</ele>
        <time>2024-11-24T13:50:51.000Z</time>
      </trkpt>
      <trkpt lat="48.78683" lon="2.51658">
        <ele>22.29</ele>
        <time>2024-11-24T13:50:59.000Z</time>
      </trkpt>
      <trkpt lat="48.78688" lon="2.51665">
        <ele>22.52</ele>
        <time>2024-11-24T13:51:05.000Z</time>
      </trkpt>
      <trkpt lat="48.78692" lon="2.5167">
        <ele>21.87</ele>
        <time>2024-11-24T13:51:11.000Z</time>
      </trkpt>
      <trkpt lat="48.78693" lon="2.51677">
        <ele>20.27</ele>
        <time>2024-11-24T13:51:18.000Z</time>
      </trkpt>
      <trkpt lat="48.78695" lon="2.51684">
        <ele>18.09</ele>
        <time>2024-11-24T13:51:34.000Z</time>
      </trkpt>
      <trkpt lat="48.78695" lon="2.51691">
        <ele>15.69</ele>
        <time>2024-11-24T13:51:42.000Z</time>
      </trkpt>
      <trkpt lat="48.78699" lon="2.51696">
        <ele>15.12</ele>
        <time>2024-11-24T13:51:48.000Z</time>
      </trkpt>
      <trkpt lat="48.78703" lon="2.51702">
        <ele>15.19</ele>
        <time>2024-11-24T13:51:54.000Z</time>
      </trkpt>
      <trkpt lat="48.78704" lon="2.51708">
        <ele>15.98</ele>
        <time>2024-11-24T13:51:59.000Z</time>
      </trkpt>
      <trkpt lat="48.78707" lon="2.51715">
        <ele>16.4</ele>
        <time>2024-11-24T13:52:04.000Z</time>
      </trkpt>
      <trkpt lat="48.78708" lon="2.51722">
        <ele>18.04</ele>
        <time>2024-11-24T13:52:09.000Z</time>
      </trkpt>
      <trkpt lat="48.78712" lon="2.51728">
        <ele>19.65</ele>
        <time>2024-11-24T13:52:14.000Z</time>
      </trkpt>
      <trkpt lat="48.78714" lon="2.51734">
        <ele>22.49</ele>
        <time>2024-11-24T13:52:19.000Z</time>
      </trkpt>
      <trkpt lat="48.78718" lon="2.51741">
        <ele>25.31</ele>
        <time>2024-11-24T13:52:25.000Z</time>
      </trkpt>
      <trkpt lat="48.78721" lon="2.51747">
        <ele>27.21</ele>
        <time>2024-11-24T13:52:31.000Z</time>
      </trkpt>
      <trkpt lat="48.78724" lon="2.51751">
        <ele>27.59</ele>
        <time>2024-11-24T13:52:36.000Z</time>
      </trkpt>
      <trkpt lat="48.78728" lon="2.51757">
        <ele>27.76</ele>
        <time>2024-11-24T13:52:41.000Z</time>
      </trkpt>
      <trkpt lat="48.78732" lon="2.51761">
        <ele>26.78</ele>
        <time>2024-11-24T13:52:47.000Z</time>
      </trkpt>
      <trkpt lat="48.78736" lon="2.51765">
        <ele>26.65</ele>
        <time>2024-11-24T13:52:53.000Z</time>
      </trkpt>
      <trkpt lat="48.7874" lon="2.51769">
        <ele>26.29</ele>
        <time>2024-11-24T13:52:58.000Z</time>
      </trkpt>
      <trkpt lat="48.78743" lon="2.51774">
        <ele>26.78</ele>
        <time>2024-11-24T13:53:04.000Z</time>
      </trkpt>
      <trkpt lat="48.78747" lon="2.51778">
        <ele>28.69</ele>
        <time>2024-11-24T13:53:13.000Z</time>
      </trkpt>
      <trkpt lat="48.78749" lon="2.51786">
        <ele>29.72</ele>
        <time>2024-11-24T13:53:19.000Z</time>
      </trkpt>
      <trkpt lat="48.78749" lon="2.51794">
        <ele>29.43</ele>
        <time>2024-11-24T13:53:23.000Z</time>
      </trkpt>
      <trkpt lat="48.7875" lon="2.51801">
        <ele>29.3</ele>
        <time>2024-11-24T13:53:28.000Z</time>
      </trkpt>
      <trkpt lat="48.78749" lon="2.51809">
        <ele>29.54</ele>
        <time>2024-11-24T13:53:35.000Z</time>
      </trkpt>
      <trkpt lat="48.78761" lon="2.51812">
        <ele>30.19</ele>
        <time>2024-11-24T13:54:27.000Z</time>
      </trkpt>
      <trkpt lat="48.78766" lon="2.51812">
        <ele>32.29</ele>
        <time>2024-11-24T13:54:29.000Z</time>
      </trkpt>
      <trkpt lat="48.78774" lon="2.51821">
        <ele>31.55</ele>
        <time>2024-11-24T13:54:46.000Z</time>
      </trkpt>
      <trkpt lat="48.78782" lon="2.51826">
        <ele>29.41</ele>
        <time>2024-11-24T13:55:13.000Z</time>
      </trkpt>
      <trkpt lat="48.78784" lon="2.51831">
        <ele>30.06</ele>
        <time>2024-11-24T13:55:19.000Z</time>
      </trkpt>
      <trkpt lat="48.78787" lon="2.51836">
        <ele>30.88</ele>
        <time>2024-11-24T13:55:26.000Z</time>
      </trkpt>
      <trkpt lat="48.7879" lon="2.51842">
        <ele>31.05</ele>
        <time>2024-11-24T13:55:34.000Z</time>
      </trkpt>
      <trkpt lat="48.78793" lon="2.51847">
        <ele>30.98</ele>
        <time>2024-11-24T13:55:41.000Z</time>
      </trkpt>
      <trkpt lat="48.78797" lon="2.51852">
        <ele>30.79</ele>
        <time>2024-11-24T13:55:46.000Z</time>
      </trkpt>
      <trkpt lat="48.78801" lon="2.51858">
        <ele>32.69</ele>
        <time>2024-11-24T13:55:50.000Z</time>
      </trkpt>
      <trkpt lat="48.78805" lon="2.51863">
        <ele>35.16</ele>
        <time>2024-11-24T13:56:02.000Z</time>
      </trkpt>
      <trkpt lat="48.78809" lon="2.51867">
        <ele>36.11</ele>
        <time>2024-11-24T13:56:08.000Z</time>
      </trkpt>
      <trkpt lat="48.78813" lon="2.51871">
        <ele>37.39</ele>
        <time>2024-11-24T13:56:13.000Z</time>
      </trkpt>
      <trkpt lat="48.78817" lon="2.51876">
        <ele>37.41</ele>
        <time>2024-11-24T13:56:17.000Z</time>
      </trkpt>
      <trkpt lat="48.7882" lon="2.5188">
        <ele>40.38</ele>
        <time>2024-11-24T13:56:28.000Z</time>
      </trkpt>
      <trkpt lat="48.78825" lon="2.51884">
        <ele>40.06</ele>
        <time>2024-11-24T13:56:36.000Z</time>
      </trkpt>
      <trkpt lat="48.78829" lon="2.51888">
        <ele>39.15</ele>
        <time>2024-11-24T13:56:44.000Z</time>
      </trkpt>
      <trkpt lat="48.78833" lon="2.51893">
        <ele>39</ele>
        <time>2024-11-24T13:56:52.000Z</time>
      </trkpt>
      <trkpt lat="48.78837" lon="2.51898">
        <ele>38.63</ele>
        <time>2024-11-24T13:56:59.000Z</time>
      </trkpt>
      <trkpt lat="48.78841" lon="2.51902">
        <ele>36.95</ele>
        <time>2024-11-24T13:57:06.000Z</time>
      </trkpt>
      <trkpt lat="48.78845" lon="2.51907">
        <ele>35.71</ele>
        <time>2024-11-24T13:57:13.000Z</time>
      </trkpt>
      <trkpt lat="48.78849" lon="2.51911">
        <ele>34.6</ele>
        <time>2024-11-24T13:57:17.000Z</time>
      </trkpt>
      <trkpt lat="48.78853" lon="2.51915">
        <ele>33.85</ele>
        <time>2024-11-24T13:57:26.000Z</time>
      </trkpt>
      <trkpt lat="48.78856" lon="2.51919">
        <ele>32.13</ele>
        <time>2024-11-24T13:57:31.000Z</time>
      </trkpt>
      <trkpt lat="48.7886" lon="2.51924">
        <ele>29.51</ele>
        <time>2024-11-24T13:57:35.000Z</time>
      </trkpt>
      <trkpt lat="48.78864" lon="2.51929">
        <ele>23.43</ele>
        <time>2024-11-24T13:57:41.000Z</time>
      </trkpt>
      <trkpt lat="48.78869" lon="2.51934">
        <ele>18.17</ele>
        <time>2024-11-24T13:57:45.000Z</time>
      </trkpt>
      <trkpt lat="48.78873" lon="2.51939">
        <ele>18.47</ele>
        <time>2024-11-24T13:57:51.000Z</time>
      </trkpt>
      <trkpt lat="48.78876" lon="2.51944">
        <ele>18.39</ele>
        <time>2024-11-24T13:57:55.000Z</time>
      </trkpt>
      <trkpt lat="48.78881" lon="2.51949">
        <ele>18.54</ele>
        <time>2024-11-24T13:58:00.000Z</time>
      </trkpt>
      <trkpt lat="48.78884" lon="2.51953">
        <ele>18.32</ele>
        <time>2024-11-24T13:58:05.000Z</time>
      </trkpt>
      <trkpt lat="48.78888" lon="2.51957">
        <ele>17.42</ele>
        <time>2024-11-24T13:58:10.000Z</time>
      </trkpt>
      <trkpt lat="48.78893" lon="2.51963">
        <ele>17.28</ele>
        <time>2024-11-24T13:58:14.000Z</time>
      </trkpt>
      <trkpt lat="48.78897" lon="2.51967">
        <ele>17.84</ele>
        <time>2024-11-24T13:58:18.000Z</time>
      </trkpt>
      <trkpt lat="48.78901" lon="2.51972">
        <ele>19.52</ele>
        <time>2024-11-24T13:58:24.000Z</time>
      </trkpt>
      <trkpt lat="48.78906" lon="2.51976">
        <ele>19.18</ele>
        <time>2024-11-24T13:58:29.000Z</time>
      </trkpt>
      <trkpt lat="48.7891" lon="2.5198">
        <ele>18.3</ele>
        <time>2024-11-24T13:58:34.000Z</time>
      </trkpt>
      <trkpt lat="48.78914" lon="2.51984">
        <ele>18.76</ele>
        <time>2024-11-24T13:58:39.000Z</time>
      </trkpt>
      <trkpt lat="48.78919" lon="2.51989">
        <ele>20.72</ele>
        <time>2024-11-24T13:58:43.000Z</time>
      </trkpt>
      <trkpt lat="48.78924" lon="2.51993">
        <ele>22.23</ele>
        <time>2024-11-24T13:58:48.000Z</time>
      </trkpt>
      <trkpt lat="48.78928" lon="2.51997">
        <ele>23.49</ele>
        <time>2024-11-24T13:58:51.000Z</time>
      </trkpt>
      <trkpt lat="48.78932" lon="2.52001">
        <ele>23.33</ele>
        <time>2024-11-24T13:58:55.000Z</time>
      </trkpt>
      <trkpt lat="48.78937" lon="2.52005">
        <ele>24.79</ele>
        <time>2024-11-24T13:59:01.000Z</time>
      </trkpt>
      <trkpt lat="48.78942" lon="2.52009">
        <ele>27.67</ele>
        <time>2024-11-24T13:59:08.000Z</time>
      </trkpt>
      <trkpt lat="48.78947" lon="2.52012">
        <ele>29.07</ele>
        <time>2024-11-24T13:59:13.000Z</time>
      </trkpt>
      <trkpt lat="48.78952" lon="2.52015">
        <ele>29.87</ele>
        <time>2024-11-24T13:59:17.000Z</time>
      </trkpt>
      <trkpt lat="48.78958" lon="2.52017">
        <ele>28.67</ele>
        <time>2024-11-24T13:59:22.000Z</time>
      </trkpt>
      <trkpt lat="48.78963" lon="2.52021">
        <ele>27.71</ele>
        <time>2024-11-24T13:59:26.000Z</time>
      </trkpt>
      <trkpt lat="48.78967" lon="2.52024">
        <ele>25.25</ele>
        <time>2024-11-24T13:59:32.000Z</time>
      </trkpt>
      <trkpt lat="48.78972" lon="2.52028">
        <ele>24.46</ele>
        <time>2024-11-24T13:59:36.000Z</time>
      </trkpt>
      <trkpt lat="48.78976" lon="2.52032">
        <ele>22.89</ele>
        <time>2024-11-24T13:59:40.000Z</time>
      </trkpt>
      <trkpt lat="48.78982" lon="2.52037">
        <ele>21.11</ele>
        <time>2024-11-24T13:59:43.000Z</time>
      </trkpt>
      <trkpt lat="48.78987" lon="2.52041">
        <ele>19.85</ele>
        <time>2024-11-24T13:59:51.000Z</time>
      </trkpt>
      <trkpt lat="48.78994" lon="2.52047">
        <ele>22.07</ele>
        <time>2024-11-24T13:59:54.000Z</time>
      </trkpt>
      <trkpt lat="48.78999" lon="2.52051">
        <ele>20.1</ele>
        <time>2024-11-24T14:00:02.000Z</time>
      </trkpt>
      <trkpt lat="48.79003" lon="2.52054">
        <ele>20.68</ele>
        <time>2024-11-24T14:00:04.000Z</time>
      </trkpt>
      <trkpt lat="48.79009" lon="2.52059">
        <ele>21.83</ele>
        <time>2024-11-24T14:00:08.000Z</time>
      </trkpt>
      <trkpt lat="48.79014" lon="2.52062">
        <ele>20.63</ele>
        <time>2024-11-24T14:00:15.000Z</time>
      </trkpt>
      <trkpt lat="48.7902" lon="2.52066">
        <ele>24.12</ele>
        <time>2024-11-24T14:00:20.000Z</time>
      </trkpt>
      <trkpt lat="48.79019" lon="2.52075">
        <ele>25.7</ele>
        <time>2024-11-24T14:00:29.000Z</time>
      </trkpt>
      <trkpt lat="48.79023" lon="2.52081">
        <ele>28.58</ele>
        <time>2024-11-24T14:00:35.000Z</time>
      </trkpt>
      <trkpt lat="48.79028" lon="2.52084">
        <ele>27.9</ele>
        <time>2024-11-24T14:00:37.000Z</time>
      </trkpt>
      <trkpt lat="48.79034" lon="2.52088">
        <ele>26.59</ele>
        <time>2024-11-24T14:00:42.000Z</time>
      </trkpt>
      <trkpt lat="48.79038" lon="2.52082">
        <ele>26.85</ele>
        <time>2024-11-24T14:00:50.000Z</time>
      </trkpt>
      <trkpt lat="48.79043" lon="2.52081">
        <ele>30.58</ele>
        <time>2024-11-24T14:00:54.000Z</time>
      </trkpt>
      <trkpt lat="48.79047" lon="2.52076">
        <ele>31.75</ele>
        <time>2024-11-24T14:01:25.000Z</time>
      </trkpt>
      <trkpt lat="48.79051" lon="2.52083">
        <ele>33.98</ele>
        <time>2024-11-24T14:01:29.000Z</time>
      </trkpt>
      <trkpt lat="48.79056" lon="2.52087">
        <ele>34.51</ele>
        <time>2024-11-24T14:01:32.000Z</time>
      </trkpt>
      <trkpt lat="48.7906" lon="2.52092">
        <ele>30.46</ele>
        <time>2024-11-24T14:01:37.000Z</time>
      </trkpt>
      <trkpt lat="48.79063" lon="2.52098">
        <ele>25.54</ele>
        <time>2024-11-24T14:01:43.000Z</time>
      </trkpt>
      <trkpt lat="48.79068" lon="2.52101">
        <ele>27.37</ele>
        <time>2024-11-24T14:01:47.000Z</time>
      </trkpt>
      <trkpt lat="48.79072" lon="2.52102">
        <ele>28.7</ele>
        <time>2024-11-24T14:01:53.000Z</time>
      </trkpt>
      <trkpt lat="48.79078" lon="2.52103">
        <ele>25.34</ele>
        <time>2024-11-24T14:01:58.000Z</time>
      </trkpt>
      <trkpt lat="48.79083" lon="2.52102">
        <ele>22.45</ele>
        <time>2024-11-24T14:02:01.000Z</time>
      </trkpt>
      <trkpt lat="48.79087" lon="2.52104">
        <ele>20.73</ele>
        <time>2024-11-24T14:02:06.000Z</time>
      </trkpt>
      <trkpt lat="48.7909" lon="2.5211">
        <ele>19.1</ele>
        <time>2024-11-24T14:02:12.000Z</time>
      </trkpt>
      <trkpt lat="48.79097" lon="2.52121">
        <ele>27.15</ele>
        <time>2024-11-24T14:02:13.000Z</time>
      </trkpt>
      <trkpt lat="48.79104" lon="2.52118">
        <ele>31.04</ele>
        <time>2024-11-24T14:02:27.000Z</time>
      </trkpt>
      <trkpt lat="48.79109" lon="2.52114">
        <ele>31.17</ele>
        <time>2024-11-24T14:02:31.000Z</time>
      </trkpt>
      <trkpt lat="48.79113" lon="2.52114">
        <ele>31.09</ele>
        <time>2024-11-24T14:02:43.000Z</time>
      </trkpt>
      <trkpt lat="48.79118" lon="2.52117">
        <ele>32.43</ele>
        <time>2024-11-24T14:02:50.000Z</time>
      </trkpt>
      <trkpt lat="48.79124" lon="2.52119">
        <ele>33.31</ele>
        <time>2024-11-24T14:02:55.000Z</time>
      </trkpt>
      <trkpt lat="48.79128" lon="2.52121">
        <ele>32.08</ele>
        <time>2024-11-24T14:03:03.000Z</time>
      </trkpt>
      <trkpt lat="48.79134" lon="2.52123">
        <ele>32.29</ele>
        <time>2024-11-24T14:03:08.000Z</time>
      </trkpt>
      <trkpt lat="48.79139" lon="2.52126">
        <ele>31.99</ele>
        <time>2024-11-24T14:03:14.000Z</time>
      </trkpt>
      <trkpt lat="48.79144" lon="2.52128">
        <ele>32.17</ele>
        <time>2024-11-24T14:03:18.000Z</time>
      </trkpt>
      <trkpt lat="48.79149" lon="2.5213">
        <ele>32.14</ele>
        <time>2024-11-24T14:03:22.000Z</time>
      </trkpt>
      <trkpt lat="48.79154" lon="2.52134">
        <ele>31.29</ele>
        <time>2024-11-24T14:03:26.000Z</time>
      </trkpt>
      <trkpt lat="48.79159" lon="2.52137">
        <ele>30.26</ele>
        <time>2024-11-24T14:03:32.000Z</time>
      </trkpt>
      <trkpt lat="48.79165" lon="2.52126">
        <ele>30.93</ele>
        <time>2024-11-24T14:04:49.000Z</time>
      </trkpt>
      <trkpt lat="48.7917" lon="2.52129">
        <ele>22.31</ele>
        <time>2024-11-24T14:04:54.000Z</time>
      </trkpt>
      <trkpt lat="48.79174" lon="2.52133">
        <ele>21.34</ele>
        <time>2024-11-24T14:05:01.000Z</time>
      </trkpt>
      <trkpt lat="48.79177" lon="2.52139">
        <ele>21.45</ele>
        <time>2024-11-24T14:05:06.000Z</time>
      </trkpt>
      <trkpt lat="48.79181" lon="2.52143">
        <ele>22.11</ele>
        <time>2024-11-24T14:05:10.000Z</time>
      </trkpt>
      <trkpt lat="48.79185" lon="2.5215">
        <ele>22.85</ele>
        <time>2024-11-24T14:05:14.000Z</time>
      </trkpt>
      <trkpt lat="48.7919" lon="2.52153">
        <ele>23.29</ele>
        <time>2024-11-24T14:05:18.000Z</time>
      </trkpt>
      <trkpt lat="48.79194" lon="2.52156">
        <ele>23.68</ele>
        <time>2024-11-24T14:05:22.000Z</time>
      </trkpt>
      <trkpt lat="48.79199" lon="2.52158">
        <ele>26.93</ele>
        <time>2024-11-24T14:05:29.000Z</time>
      </trkpt>
      <trkpt lat="48.79205" lon="2.52156">
        <ele>32.88</ele>
        <time>2024-11-24T14:09:47.000Z</time>
      </trkpt>
      <trkpt lat="48.79209" lon="2.52158">
        <ele>34.01</ele>
        <time>2024-11-24T14:09:50.000Z</time>
      </trkpt>
      <trkpt lat="48.79215" lon="2.52158">
        <ele>30.56</ele>
        <time>2024-11-24T14:09:55.000Z</time>
      </trkpt>
      <trkpt lat="48.79219" lon="2.52161">
        <ele>28.2</ele>
        <time>2024-11-24T14:10:00.000Z</time>
      </trkpt>
      <trkpt lat="48.79224" lon="2.52164">
        <ele>22.9</ele>
        <time>2024-11-24T14:10:07.000Z</time>
      </trkpt>
      <trkpt lat="48.79229" lon="2.52165">
        <ele>22.76</ele>
        <time>2024-11-24T14:10:11.000Z</time>
      </trkpt>
      <trkpt lat="48.79233" lon="2.52167">
        <ele>22.39</ele>
        <time>2024-11-24T14:10:17.000Z</time>
      </trkpt>
      <trkpt lat="48.79238" lon="2.52168">
        <ele>22.7</ele>
        <time>2024-11-24T14:10:20.000Z</time>
      </trkpt>
      <trkpt lat="48.79243" lon="2.5217">
        <ele>23.93</ele>
        <time>2024-11-24T14:10:27.000Z</time>
      </trkpt>
      <trkpt lat="48.79247" lon="2.52172">
        <ele>25.9</ele>
        <time>2024-11-24T14:10:29.000Z</time>
      </trkpt>
      <trkpt lat="48.79253" lon="2.52174">
        <ele>23.55</ele>
        <time>2024-11-24T14:10:37.000Z</time>
      </trkpt>
      <trkpt lat="48.79259" lon="2.52176">
        <ele>19.7</ele>
        <time>2024-11-24T14:10:45.000Z</time>
      </trkpt>
      <trkpt lat="48.79264" lon="2.52177">
        <ele>18.54</ele>
        <time>2024-11-24T14:10:51.000Z</time>
      </trkpt>
      <trkpt lat="48.79269" lon="2.52179">
        <ele>17.39</ele>
        <time>2024-11-24T14:10:53.000Z</time>
      </trkpt>
      <trkpt lat="48.79275" lon="2.52181">
        <ele>20.25</ele>
        <time>2024-11-24T14:10:59.000Z</time>
      </trkpt>
      <trkpt lat="48.7928" lon="2.52182">
        <ele>17.54</ele>
        <time>2024-11-24T14:11:04.000Z</time>
      </trkpt>
      <trkpt lat="48.79285" lon="2.52184">
        <ele>19.25</ele>
        <time>2024-11-24T14:11:09.000Z</time>
      </trkpt>
      <trkpt lat="48.79291" lon="2.52187">
        <ele>22.18</ele>
        <time>2024-11-24T14:11:15.000Z</time>
      </trkpt>
      <trkpt lat="48.79296" lon="2.52189">
        <ele>21.24</ele>
        <time>2024-11-24T14:11:22.000Z</time>
      </trkpt>
      <trkpt lat="48.79301" lon="2.5219">
        <ele>20.46</ele>
        <time>2024-11-24T14:11:26.000Z</time>
      </trkpt>
      <trkpt lat="48.79306" lon="2.5219">
        <ele>17.75</ele>
        <time>2024-11-24T14:11:31.000Z</time>
      </trkpt>
      <trkpt lat="48.79311" lon="2.52191">
        <ele>17.29</ele>
        <time>2024-11-24T14:11:34.000Z</time>
      </trkpt>
      <trkpt lat="48.79316" lon="2.52191">
        <ele>18.81</ele>
        <time>2024-11-24T14:11:39.000Z</time>
      </trkpt>
      <trkpt lat="48.79321" lon="2.52191">
        <ele>21.1</ele>
        <time>2024-11-24T14:11:46.000Z</time>
      </trkpt>
      <trkpt lat="48.79327" lon="2.52192">
        <ele>22.03</ele>
        <time>2024-11-24T14:11:48.000Z</time>
      </trkpt>
      <trkpt lat="48.79332" lon="2.52192">
        <ele>21.67</ele>
        <time>2024-11-24T14:11:52.000Z</time>
      </trkpt>
      <trkpt lat="48.79337" lon="2.52193">
        <ele>19.85</ele>
        <time>2024-11-24T14:12:00.000Z</time>
      </trkpt>
      <trkpt lat="48.79341" lon="2.52195">
        <ele>18.93</ele>
        <time>2024-11-24T14:12:05.000Z</time>
      </trkpt>
      <trkpt lat="48.79346" lon="2.52196">
        <ele>17.8</ele>
        <time>2024-11-24T14:12:12.000Z</time>
      </trkpt>
      <trkpt lat="48.79351" lon="2.52198">
        <ele>17.52</ele>
        <time>2024-11-24T14:12:16.000Z</time>
      </trkpt>
      <trkpt lat="48.79354" lon="2.52203">
        <ele>22.18</ele>
        <time>2024-11-24T14:12:20.000Z</time>
      </trkpt>
      <trkpt lat="48.79358" lon="2.52204">
        <ele>25.04</ele>
        <time>2024-11-24T14:12:26.000Z</time>
      </trkpt>
      <trkpt lat="48.79363" lon="2.52205">
        <ele>23.9</ele>
        <time>2024-11-24T14:12:33.000Z</time>
      </trkpt>
      <trkpt lat="48.79368" lon="2.52202">
        <ele>22.03</ele>
        <time>2024-11-24T14:12:39.000Z</time>
      </trkpt>
      <trkpt lat="48.79372" lon="2.52205">
        <ele>19.3</ele>
        <time>2024-11-24T14:12:46.000Z</time>
      </trkpt>
      <trkpt lat="48.79377" lon="2.52204">
        <ele>17.34</ele>
        <time>2024-11-24T14:12:52.000Z</time>
      </trkpt>
      <trkpt lat="48.79381" lon="2.52202">
        <ele>15.96</ele>
        <time>2024-11-24T14:13:00.000Z</time>
      </trkpt>
      <trkpt lat="48.79386" lon="2.522">
        <ele>14.68</ele>
        <time>2024-11-24T14:13:14.000Z</time>
      </trkpt>
      <trkpt lat="48.79395" lon="2.522">
        <ele>19.43</ele>
        <time>2024-11-24T14:13:20.000Z</time>
      </trkpt>
      <trkpt lat="48.79392" lon="2.5219">
        <ele>27.23</ele>
        <time>2024-11-24T14:13:46.000Z</time>
      </trkpt>
      <trkpt lat="48.79397" lon="2.52189">
        <ele>29.68</ele>
        <time>2024-11-24T14:13:52.000Z</time>
      </trkpt>
      <trkpt lat="48.79395" lon="2.52182">
        <ele>30.26</ele>
        <time>2024-11-24T14:14:02.000Z</time>
      </trkpt>
      <trkpt lat="48.79395" lon="2.52174">
        <ele>30.74</ele>
        <time>2024-11-24T14:14:10.000Z</time>
      </trkpt>
      <trkpt lat="48.79397" lon="2.52166">
        <ele>31.25</ele>
        <time>2024-11-24T14:14:12.000Z</time>
      </trkpt>
      <trkpt lat="48.79398" lon="2.52159">
        <ele>31.69</ele>
        <time>2024-11-24T14:14:15.000Z</time>
      </trkpt>
      <trkpt lat="48.794" lon="2.52153">
        <ele>30.96</ele>
        <time>2024-11-24T14:14:19.000Z</time>
      </trkpt>
      <trkpt lat="48.79402" lon="2.52145">
        <ele>29.5</ele>
        <time>2024-11-24T14:14:24.000Z</time>
      </trkpt>
      <trkpt lat="48.79404" lon="2.52138">
        <ele>31.01</ele>
        <time>2024-11-24T14:14:28.000Z</time>
      </trkpt>
      <trkpt lat="48.79406" lon="2.5213">
        <ele>32.12</ele>
        <time>2024-11-24T14:14:34.000Z</time>
      </trkpt>
      <trkpt lat="48.79408" lon="2.52124">
        <ele>34.91</ele>
        <time>2024-11-24T14:14:40.000Z</time>
      </trkpt>
      <trkpt lat="48.7941" lon="2.52116">
        <ele>33.95</ele>
        <time>2024-11-24T14:14:44.000Z</time>
      </trkpt>
      <trkpt lat="48.79412" lon="2.52109">
        <ele>30.73</ele>
        <time>2024-11-24T14:14:48.000Z</time>
      </trkpt>
      <trkpt lat="48.79414" lon="2.52102">
        <ele>29.19</ele>
        <time>2024-11-24T14:14:52.000Z</time>
      </trkpt>
      <trkpt lat="48.79416" lon="2.52095">
        <ele>24.59</ele>
        <time>2024-11-24T14:14:59.000Z</time>
      </trkpt>
      <trkpt lat="48.79418" lon="2.52086">
        <ele>23.24</ele>
        <time>2024-11-24T14:15:04.000Z</time>
      </trkpt>
      <trkpt lat="48.7942" lon="2.5208">
        <ele>23.76</ele>
        <time>2024-11-24T14:15:09.000Z</time>
      </trkpt>
      <trkpt lat="48.79423" lon="2.52071">
        <ele>25.5</ele>
        <time>2024-11-24T14:15:13.000Z</time>
      </trkpt>
      <trkpt lat="48.79425" lon="2.52064">
        <ele>24.14</ele>
        <time>2024-11-24T14:15:17.000Z</time>
      </trkpt>
      <trkpt lat="48.79427" lon="2.52057">
        <ele>23.36</ele>
        <time>2024-11-24T14:15:25.000Z</time>
      </trkpt>
      <trkpt lat="48.79429" lon="2.5205">
        <ele>26.03</ele>
        <time>2024-11-24T14:15:33.000Z</time>
      </trkpt>
      <trkpt lat="48.79432" lon="2.52044">
        <ele>25.11</ele>
        <time>2024-11-24T14:15:36.000Z</time>
      </trkpt>
      <trkpt lat="48.79433" lon="2.52037">
        <ele>23.86</ele>
        <time>2024-11-24T14:15:41.000Z</time>
      </trkpt>
      <trkpt lat="48.79436" lon="2.52031">
        <ele>24.27</ele>
        <time>2024-11-24T14:15:44.000Z</time>
      </trkpt>
      <trkpt lat="48.79438" lon="2.52024">
        <ele>25.83</ele>
        <time>2024-11-24T14:15:47.000Z</time>
      </trkpt>
      <trkpt lat="48.7944" lon="2.52018">
        <ele>25.66</ele>
        <time>2024-11-24T14:15:51.000Z</time>
      </trkpt>
      <trkpt lat="48.79441" lon="2.52012">
        <ele>28.06</ele>
        <time>2024-11-24T14:15:55.000Z</time>
      </trkpt>
      <trkpt lat="48.79444" lon="2.52003">
        <ele>26.68</ele>
        <time>2024-11-24T14:16:02.000Z</time>
      </trkpt>
      <trkpt lat="48.79446" lon="2.51995">
        <ele>26.55</ele>
        <time>2024-11-24T14:16:07.000Z</time>
      </trkpt>
      <trkpt lat="48.79448" lon="2.51988">
        <ele>26.53</ele>
        <time>2024-11-24T14:16:12.000Z</time>
      </trkpt>
      <trkpt lat="48.7945" lon="2.51981">
        <ele>32.81</ele>
        <time>2024-11-24T14:16:18.000Z</time>
      </trkpt>
      <trkpt lat="48.79452" lon="2.51974">
        <ele>32.38</ele>
        <time>2024-11-24T14:16:22.000Z</time>
      </trkpt>
      <trkpt lat="48.79451" lon="2.51967">
        <ele>31.59</ele>
        <time>2024-11-24T14:16:28.000Z</time>
      </trkpt>
      <trkpt lat="48.79451" lon="2.51959">
        <ele>30.6</ele>
        <time>2024-11-24T14:16:32.000Z</time>
      </trkpt>
      <trkpt lat="48.79455" lon="2.51954">
        <ele>32.17</ele>
        <time>2024-11-24T14:16:37.000Z</time>
      </trkpt>
      <trkpt lat="48.79458" lon="2.51946">
        <ele>31.08</ele>
        <time>2024-11-24T14:16:43.000Z</time>
      </trkpt>
      <trkpt lat="48.7946" lon="2.5194">
        <ele>30.59</ele>
        <time>2024-11-24T14:16:46.000Z</time>
      </trkpt>
      <trkpt lat="48.79462" lon="2.51932">
        <ele>30.72</ele>
        <time>2024-11-24T14:16:51.000Z</time>
      </trkpt>
      <trkpt lat="48.79464" lon="2.51924">
        <ele>31.25</ele>
        <time>2024-11-24T14:16:57.000Z</time>
      </trkpt>
      <trkpt lat="48.79466" lon="2.51917">
        <ele>31.68</ele>
        <time>2024-11-24T14:17:01.000Z</time>
      </trkpt>
      <trkpt lat="48.79468" lon="2.51909">
        <ele>36.28</ele>
        <time>2024-11-24T14:17:09.000Z</time>
      </trkpt>
      <trkpt lat="48.7947" lon="2.51901">
        <ele>35.4</ele>
        <time>2024-11-24T14:17:13.000Z</time>
      </trkpt>
      <trkpt lat="48.79472" lon="2.51894">
        <ele>34.47</ele>
        <time>2024-11-24T14:17:16.000Z</time>
      </trkpt>
      <trkpt lat="48.79474" lon="2.51886">
        <ele>34.37</ele>
        <time>2024-11-24T14:17:20.000Z</time>
      </trkpt>
      <trkpt lat="48.79476" lon="2.51878">
        <ele>36.38</ele>
        <time>2024-11-24T14:17:25.000Z</time>
      </trkpt>
      <trkpt lat="48.79479" lon="2.5187">
        <ele>34.16</ele>
        <time>2024-11-24T14:17:32.000Z</time>
      </trkpt>
      <trkpt lat="48.7948" lon="2.51863">
        <ele>33.22</ele>
        <time>2024-11-24T14:17:37.000Z</time>
      </trkpt>
      <trkpt lat="48.79482" lon="2.51857">
        <ele>30.88</ele>
        <time>2024-11-24T14:17:40.000Z</time>
      </trkpt>
      <trkpt lat="48.79484" lon="2.51849">
        <ele>30.92</ele>
        <time>2024-11-24T14:17:45.000Z</time>
      </trkpt>
      <trkpt lat="48.79486" lon="2.51841">
        <ele>32.17</ele>
        <time>2024-11-24T14:17:51.000Z</time>
      </trkpt>
      <trkpt lat="48.79488" lon="2.51834">
        <ele>33.15</ele>
        <time>2024-11-24T14:17:55.000Z</time>
      </trkpt>
      <trkpt lat="48.79489" lon="2.51826">
        <ele>31.51</ele>
        <time>2024-11-24T14:18:00.000Z</time>
      </trkpt>
      <trkpt lat="48.79492" lon="2.5182">
        <ele>31.17</ele>
        <time>2024-11-24T14:18:04.000Z</time>
      </trkpt>
      <trkpt lat="48.79495" lon="2.51814">
        <ele>28.22</ele>
        <time>2024-11-24T14:18:09.000Z</time>
      </trkpt>
      <trkpt lat="48.79498" lon="2.51809">
        <ele>28.07</ele>
        <time>2024-11-24T14:18:14.000Z</time>
      </trkpt>
      <trkpt lat="48.79499" lon="2.51801">
        <ele>26.46</ele>
        <time>2024-11-24T14:18:22.000Z</time>
      </trkpt>
      <trkpt lat="48.79501" lon="2.51793">
        <ele>26.19</ele>
        <time>2024-11-24T14:18:26.000Z</time>
      </trkpt>
      <trkpt lat="48.79503" lon="2.51786">
        <ele>27.05</ele>
        <time>2024-11-24T14:18:31.000Z</time>
      </trkpt>
      <trkpt lat="48.79505" lon="2.51779">
        <ele>30.73</ele>
        <time>2024-11-24T14:18:37.000Z</time>
      </trkpt>
      <trkpt lat="48.79507" lon="2.51772">
        <ele>31.97</ele>
        <time>2024-11-24T14:18:42.000Z</time>
      </trkpt>
      <trkpt lat="48.79509" lon="2.51765">
        <ele>32.53</ele>
        <time>2024-11-24T14:18:46.000Z</time>
      </trkpt>
      <trkpt lat="48.79511" lon="2.51757">
        <ele>29.09</ele>
        <time>2024-11-24T14:18:49.000Z</time>
      </trkpt>
      <trkpt lat="48.79512" lon="2.5175">
        <ele>27.44</ele>
        <time>2024-11-24T14:18:53.000Z</time>
      </trkpt>
      <trkpt lat="48.79515" lon="2.51742">
        <ele>28.03</ele>
        <time>2024-11-24T14:18:59.000Z</time>
      </trkpt>
      <trkpt lat="48.79517" lon="2.51734">
        <ele>28.06</ele>
        <time>2024-11-24T14:19:04.000Z</time>
      </trkpt>
      <trkpt lat="48.79518" lon="2.51727">
        <ele>25.38</ele>
        <time>2024-11-24T14:19:10.000Z</time>
      </trkpt>
      <trkpt lat="48.7952" lon="2.5172">
        <ele>25.21</ele>
        <time>2024-11-24T14:19:16.000Z</time>
      </trkpt>
      <trkpt lat="48.79522" lon="2.51712">
        <ele>25.64</ele>
        <time>2024-11-24T14:19:20.000Z</time>
      </trkpt>
      <trkpt lat="48.79523" lon="2.51705">
        <ele>27.7</ele>
        <time>2024-11-24T14:19:25.000Z</time>
      </trkpt>
      <trkpt lat="48.79526" lon="2.51697">
        <ele>26.59</ele>
        <time>2024-11-24T14:19:30.000Z</time>
      </trkpt>
      <trkpt lat="48.79529" lon="2.5169">
        <ele>25.83</ele>
        <time>2024-11-24T14:19:35.000Z</time>
      </trkpt>
      <trkpt lat="48.79531" lon="2.51683">
        <ele>26.47</ele>
        <time>2024-11-24T14:19:40.000Z</time>
      </trkpt>
      <trkpt lat="48.79534" lon="2.51678">
        <ele>27.03</ele>
        <time>2024-11-24T14:19:44.000Z</time>
      </trkpt>
      <trkpt lat="48.79536" lon="2.5167">
        <ele>25.85</ele>
        <time>2024-11-24T14:19:47.000Z</time>
      </trkpt>
      <trkpt lat="48.79538" lon="2.51664">
        <ele>25.72</ele>
        <time>2024-11-24T14:19:53.000Z</time>
      </trkpt>
      <trkpt lat="48.7954" lon="2.51656">
        <ele>26.18</ele>
        <time>2024-11-24T14:19:57.000Z</time>
      </trkpt>
      <trkpt lat="48.79542" lon="2.5165">
        <ele>26.69</ele>
        <time>2024-11-24T14:20:02.000Z</time>
      </trkpt>
      <trkpt lat="48.79544" lon="2.51642">
        <ele>27.8</ele>
        <time>2024-11-24T14:20:07.000Z</time>
      </trkpt>
      <trkpt lat="48.79546" lon="2.51634">
        <ele>29.23</ele>
        <time>2024-11-24T14:20:11.000Z</time>
      </trkpt>
      <trkpt lat="48.79548" lon="2.51627">
        <ele>28.39</ele>
        <time>2024-11-24T14:20:16.000Z</time>
      </trkpt>
      <trkpt lat="48.7955" lon="2.51621">
        <ele>27.84</ele>
        <time>2024-11-24T14:20:20.000Z</time>
      </trkpt>
      <trkpt lat="48.79552" lon="2.51613">
        <ele>28.29</ele>
        <time>2024-11-24T14:20:25.000Z</time>
      </trkpt>
      <trkpt lat="48.79555" lon="2.51604">
        <ele>29.21</ele>
        <time>2024-11-24T14:20:31.000Z</time>
      </trkpt>
      <trkpt lat="48.79558" lon="2.51597">
        <ele>28.73</ele>
        <time>2024-11-24T14:20:36.000Z</time>
      </trkpt>
      <trkpt lat="48.79561" lon="2.5159">
        <ele>27.17</ele>
        <time>2024-11-24T14:20:40.000Z</time>
      </trkpt>
      <trkpt lat="48.79561" lon="2.51582">
        <ele>26.4</ele>
        <time>2024-11-24T14:20:45.000Z</time>
      </trkpt>
      <trkpt lat="48.79563" lon="2.51575">
        <ele>26.29</ele>
        <time>2024-11-24T14:20:50.000Z</time>
      </trkpt>
      <trkpt lat="48.79567" lon="2.51569">
        <ele>24.72</ele>
        <time>2024-11-24T14:20:56.000Z</time>
      </trkpt>
      <trkpt lat="48.79571" lon="2.51564">
        <ele>23.39</ele>
        <time>2024-11-24T14:21:02.000Z</time>
      </trkpt>
      <trkpt lat="48.79573" lon="2.51556">
        <ele>21.57</ele>
        <time>2024-11-24T14:21:08.000Z</time>
      </trkpt>
      <trkpt lat="48.79574" lon="2.51548">
        <ele>20.13</ele>
        <time>2024-11-24T14:21:14.000Z</time>
      </trkpt>
      <trkpt lat="48.79574" lon="2.51541">
        <ele>20.94</ele>
        <time>2024-11-24T14:21:19.000Z</time>
      </trkpt>
      <trkpt lat="48.79576" lon="2.51534">
        <ele>23.34</ele>
        <time>2024-11-24T14:21:23.000Z</time>
      </trkpt>
      <trkpt lat="48.79577" lon="2.51527">
        <ele>27.15</ele>
        <time>2024-11-24T14:21:28.000Z</time>
      </trkpt>
      <trkpt lat="48.79579" lon="2.51519">
        <ele>29.69</ele>
        <time>2024-11-24T14:21:34.000Z</time>
      </trkpt>
      <trkpt lat="48.79581" lon="2.51512">
        <ele>31.26</ele>
        <time>2024-11-24T14:21:37.000Z</time>
      </trkpt>
      <trkpt lat="48.79583" lon="2.51506">
        <ele>33.08</ele>
        <time>2024-11-24T14:21:40.000Z</time>
      </trkpt>
      <trkpt lat="48.7958" lon="2.515">
        <ele>34.82</ele>
        <time>2024-11-24T14:21:45.000Z</time>
      </trkpt>
      <trkpt lat="48.79576" lon="2.51496">
        <ele>35.07</ele>
        <time>2024-11-24T14:21:50.000Z</time>
      </trkpt>
      <trkpt lat="48.79571" lon="2.51493">
        <ele>33.05</ele>
        <time>2024-11-24T14:21:58.000Z</time>
      </trkpt>
      <trkpt lat="48.79568" lon="2.51488">
        <ele>35.22</ele>
        <time>2024-11-24T14:22:04.000Z</time>
      </trkpt>
      <trkpt lat="48.79564" lon="2.51483">
        <ele>33.63</ele>
        <time>2024-11-24T14:22:10.000Z</time>
      </trkpt>
      <trkpt lat="48.79559" lon="2.5148">
        <ele>32.32</ele>
        <time>2024-11-24T14:22:15.000Z</time>
      </trkpt>
      <trkpt lat="48.79555" lon="2.51479">
        <ele>30.44</ele>
        <time>2024-11-24T14:22:21.000Z</time>
      </trkpt>
      <trkpt lat="48.7955" lon="2.51477">
        <ele>28.66</ele>
        <time>2024-11-24T14:22:27.000Z</time>
      </trkpt>
      <trkpt lat="48.79545" lon="2.51475">
        <ele>26.41</ele>
        <time>2024-11-24T14:22:33.000Z</time>
      </trkpt>
      <trkpt lat="48.79541" lon="2.51468">
        <ele>25.05</ele>
        <time>2024-11-24T14:22:37.000Z</time>
      </trkpt>
      <trkpt lat="48.79539" lon="2.51462">
        <ele>24.71</ele>
        <time>2024-11-24T14:22:40.000Z</time>
      </trkpt>
      <trkpt lat="48.79535" lon="2.51456">
        <ele>24.69</ele>
        <time>2024-11-24T14:22:44.000Z</time>
      </trkpt>
      <trkpt lat="48.79531" lon="2.51451">
        <ele>24.14</ele>
        <time>2024-11-24T14:22:48.000Z</time>
      </trkpt>
      <trkpt lat="48.79527" lon="2.51444">
        <ele>25.28</ele>
        <time>2024-11-24T14:22:51.000Z</time>
      </trkpt>
      <trkpt lat="48.79522" lon="2.51446">
        <ele>28.04</ele>
        <time>2024-11-24T14:22:54.000Z</time>
      </trkpt>
      <trkpt lat="48.79517" lon="2.51445">
        <ele>31.47</ele>
        <time>2024-11-24T14:23:00.000Z</time>
      </trkpt>
      <trkpt lat="48.79513" lon="2.5144">
        <ele>33.17</ele>
        <time>2024-11-24T14:23:07.000Z</time>
      </trkpt>
      <trkpt lat="48.79508" lon="2.51436">
        <ele>33.7</ele>
        <time>2024-11-24T14:23:12.000Z</time>
      </trkpt>
      <trkpt lat="48.79503" lon="2.51432">
        <ele>35.11</ele>
        <time>2024-11-24T14:23:18.000Z</time>
      </trkpt>
      <trkpt lat="48.79494" lon="2.51425">
        <ele>40.24</ele>
        <time>2024-11-24T14:23:21.000Z</time>
      </trkpt>
      <trkpt lat="48.79489" lon="2.51421">
        <ele>41.49</ele>
        <time>2024-11-24T14:23:30.000Z</time>
      </trkpt>
      <trkpt lat="48.79483" lon="2.51416">
        <ele>41.34</ele>
        <time>2024-11-24T14:23:35.000Z</time>
      </trkpt>
      <trkpt lat="48.7948" lon="2.51412">
        <ele>40.55</ele>
        <time>2024-11-24T14:23:45.000Z</time>
      </trkpt>
      <trkpt lat="48.79474" lon="2.51408">
        <ele>38.88</ele>
        <time>2024-11-24T14:23:51.000Z</time>
      </trkpt>
      <trkpt lat="48.79469" lon="2.51404">
        <ele>38.47</ele>
        <time>2024-11-24T14:23:55.000Z</time>
      </trkpt>
      <trkpt lat="48.79464" lon="2.51399">
        <ele>39.23</ele>
        <time>2024-11-24T14:23:59.000Z</time>
      </trkpt>
      <trkpt lat="48.7946" lon="2.51396">
        <ele>39.72</ele>
        <time>2024-11-24T14:24:02.000Z</time>
      </trkpt>
      <trkpt lat="48.79448" lon="2.51401">
        <ele>40.96</ele>
        <time>2024-11-24T14:24:13.000Z</time>
      </trkpt>
      <trkpt lat="48.79444" lon="2.51402">
        <ele>42.69</ele>
        <time>2024-11-24T14:24:16.000Z</time>
      </trkpt>
      <trkpt lat="48.79443" lon="2.51395">
        <ele>41.99</ele>
        <time>2024-11-24T14:24:25.000Z</time>
      </trkpt>
      <trkpt lat="48.79439" lon="2.51391">
        <ele>41.45</ele>
        <time>2024-11-24T14:24:33.000Z</time>
      </trkpt>
      <trkpt lat="48.79434" lon="2.51387">
        <ele>41.64</ele>
        <time>2024-11-24T14:24:37.000Z</time>
      </trkpt>
      <trkpt lat="48.7943" lon="2.51384">
        <ele>42.55</ele>
        <time>2024-11-24T14:24:41.000Z</time>
      </trkpt>
      <trkpt lat="48.79425" lon="2.5138">
        <ele>43.36</ele>
        <time>2024-11-24T14:24:44.000Z</time>
      </trkpt>
      <trkpt lat="48.79421" lon="2.51376">
        <ele>42.02</ele>
        <time>2024-11-24T14:24:47.000Z</time>
      </trkpt>
      <trkpt lat="48.7942" lon="2.51369">
        <ele>40.67</ele>
        <time>2024-11-24T14:24:57.000Z</time>
      </trkpt>
    </trkseg>
  </trk>
</gpx>